<?xml version="1.0" encoding="UTF-8" standalone="no" ?>
<gpx xmlns="http://www.topografix.com/GPX/1/1" xmlns:xsi="http://www.w3.org/2001/XMLSchema-instance" xsi:schemaLocation="http://www.topografix.com/GPX/1/1 http://www.topografix.com/GPX/1/1/gpx.xsd" version="1.1" creator="VisuGPX - https://www.visugpx.com">
  <metadata>
    <name>Points de vue sur Najac et la vallée de l'Aveyron</name>
    <desc><![CDATA[Circuit de découverte de la vallée de l'Aveyron au pied de Najac]]></desc>
  </metadata>
  <trk>
    <name><![CDATA[Points de vue sur Najac et la vallée de l'Aveyron_1]]></name>
    <trkseg>
      <trkpt lat="44.2113" lon="1.98898">
        <ele>416.7</ele>
        <time>2019-05-11T08:04:32Z</time>
      </trkpt>
      <trkpt lat="44.21121" lon="1.98893">
        <ele>414.8</ele>
        <time>2019-05-11T08:05:03Z</time>
      </trkpt>
      <trkpt lat="44.21116" lon="1.9889">
        <ele>415.7</ele>
        <time>2019-05-11T08:05:07Z</time>
      </trkpt>
      <trkpt lat="44.21112" lon="1.98889">
        <ele>414.7</ele>
        <time>2019-05-11T08:05:25Z</time>
      </trkpt>
      <trkpt lat="44.21109" lon="1.98884">
        <ele>416.2</ele>
        <time>2019-05-11T08:05:31Z</time>
      </trkpt>
      <trkpt lat="44.21105" lon="1.9888">
        <ele>417</ele>
        <time>2019-05-11T08:05:36Z</time>
      </trkpt>
      <trkpt lat="44.211" lon="1.98878">
        <ele>417</ele>
        <time>2019-05-11T08:05:43Z</time>
      </trkpt>
      <trkpt lat="44.21096" lon="1.98876">
        <ele>415.6</ele>
        <time>2019-05-11T08:05:49Z</time>
      </trkpt>
      <trkpt lat="44.21094" lon="1.9887">
        <ele>413.4</ele>
        <time>2019-05-11T08:05:59Z</time>
      </trkpt>
      <trkpt lat="44.21092" lon="1.98864">
        <ele>413.3</ele>
        <time>2019-05-11T08:06:07Z</time>
      </trkpt>
      <trkpt lat="44.2109" lon="1.98857">
        <ele>416</ele>
        <time>2019-05-11T08:06:11Z</time>
      </trkpt>
      <trkpt lat="44.21089" lon="1.98851">
        <ele>419</ele>
        <time>2019-05-11T08:06:14Z</time>
      </trkpt>
      <trkpt lat="44.21087" lon="1.98845">
        <ele>419.7</ele>
        <time>2019-05-11T08:06:20Z</time>
      </trkpt>
      <trkpt lat="44.21088" lon="1.98838">
        <ele>418.5</ele>
        <time>2019-05-11T08:06:26Z</time>
      </trkpt>
      <trkpt lat="44.21084" lon="1.98833">
        <ele>417</ele>
        <time>2019-05-11T08:06:30Z</time>
      </trkpt>
      <trkpt lat="44.21081" lon="1.98828">
        <ele>413.8</ele>
        <time>2019-05-11T08:06:39Z</time>
      </trkpt>
      <trkpt lat="44.21079" lon="1.98822">
        <ele>410.6</ele>
        <time>2019-05-11T08:06:47Z</time>
      </trkpt>
      <trkpt lat="44.21075" lon="1.98815">
        <ele>407.2</ele>
        <time>2019-05-11T08:06:52Z</time>
      </trkpt>
      <trkpt lat="44.21073" lon="1.98809">
        <ele>403.8</ele>
        <time>2019-05-11T08:06:58Z</time>
      </trkpt>
      <trkpt lat="44.21071" lon="1.98802">
        <ele>401.3</ele>
        <time>2019-05-11T08:07:07Z</time>
      </trkpt>
      <trkpt lat="44.21069" lon="1.98793">
        <ele>399.8</ele>
        <time>2019-05-11T08:07:14Z</time>
      </trkpt>
      <trkpt lat="44.21069" lon="1.98785">
        <ele>399.7</ele>
        <time>2019-05-11T08:07:16Z</time>
      </trkpt>
      <trkpt lat="44.21069" lon="1.98776">
        <ele>399.2</ele>
        <time>2019-05-11T08:07:20Z</time>
      </trkpt>
      <trkpt lat="44.21068" lon="1.9877">
        <ele>397.8</ele>
        <time>2019-05-11T08:07:25Z</time>
      </trkpt>
      <trkpt lat="44.21063" lon="1.98768">
        <ele>394.5</ele>
        <time>2019-05-11T08:07:35Z</time>
      </trkpt>
      <trkpt lat="44.21057" lon="1.98767">
        <ele>394.5</ele>
        <time>2019-05-11T08:07:39Z</time>
      </trkpt>
      <trkpt lat="44.21051" lon="1.98764">
        <ele>395.1</ele>
        <time>2019-05-11T08:07:43Z</time>
      </trkpt>
      <trkpt lat="44.21046" lon="1.98762">
        <ele>395.7</ele>
        <time>2019-05-11T08:07:47Z</time>
      </trkpt>
      <trkpt lat="44.21041" lon="1.9876">
        <ele>395.9</ele>
        <time>2019-05-11T08:07:51Z</time>
      </trkpt>
      <trkpt lat="44.21036" lon="1.98759">
        <ele>395.3</ele>
        <time>2019-05-11T08:07:55Z</time>
      </trkpt>
      <trkpt lat="44.21031" lon="1.98757">
        <ele>395.3</ele>
        <time>2019-05-11T08:07:58Z</time>
      </trkpt>
      <trkpt lat="44.21026" lon="1.98757">
        <ele>395.2</ele>
        <time>2019-05-11T08:08:02Z</time>
      </trkpt>
      <trkpt lat="44.2102" lon="1.98756">
        <ele>395.2</ele>
        <time>2019-05-11T08:08:06Z</time>
      </trkpt>
      <trkpt lat="44.21015" lon="1.98756">
        <ele>394.9</ele>
        <time>2019-05-11T08:08:12Z</time>
      </trkpt>
      <trkpt lat="44.21011" lon="1.98757">
        <ele>394.6</ele>
        <time>2019-05-11T08:08:17Z</time>
      </trkpt>
      <trkpt lat="44.21006" lon="1.98757">
        <ele>394.1</ele>
        <time>2019-05-11T08:08:20Z</time>
      </trkpt>
      <trkpt lat="44.21001" lon="1.98755">
        <ele>392.8</ele>
        <time>2019-05-11T08:08:26Z</time>
      </trkpt>
      <trkpt lat="44.20996" lon="1.98755">
        <ele>391.9</ele>
        <time>2019-05-11T08:08:31Z</time>
      </trkpt>
      <trkpt lat="44.2099" lon="1.98753">
        <ele>391.1</ele>
        <time>2019-05-11T08:08:42Z</time>
      </trkpt>
      <trkpt lat="44.20986" lon="1.98752">
        <ele>392</ele>
        <time>2019-05-11T08:08:45Z</time>
      </trkpt>
      <trkpt lat="44.20981" lon="1.98751">
        <ele>390.4</ele>
        <time>2019-05-11T08:08:49Z</time>
      </trkpt>
      <trkpt lat="44.20976" lon="1.98748">
        <ele>388.6</ele>
        <time>2019-05-11T08:08:53Z</time>
      </trkpt>
      <trkpt lat="44.20971" lon="1.98746">
        <ele>387.2</ele>
        <time>2019-05-11T08:08:58Z</time>
      </trkpt>
      <trkpt lat="44.20966" lon="1.98744">
        <ele>386.8</ele>
        <time>2019-05-11T08:09:01Z</time>
      </trkpt>
      <trkpt lat="44.20961" lon="1.98742">
        <ele>386</ele>
        <time>2019-05-11T08:09:06Z</time>
      </trkpt>
      <trkpt lat="44.20957" lon="1.98739">
        <ele>386.6</ele>
        <time>2019-05-11T08:09:09Z</time>
      </trkpt>
      <trkpt lat="44.20952" lon="1.98738">
        <ele>386.8</ele>
        <time>2019-05-11T08:09:13Z</time>
      </trkpt>
      <trkpt lat="44.20947" lon="1.98735">
        <ele>386.8</ele>
        <time>2019-05-11T08:09:17Z</time>
      </trkpt>
      <trkpt lat="44.20943" lon="1.98733">
        <ele>387.1</ele>
        <time>2019-05-11T08:09:22Z</time>
      </trkpt>
      <trkpt lat="44.20938" lon="1.98731">
        <ele>388.1</ele>
        <time>2019-05-11T08:09:29Z</time>
      </trkpt>
      <trkpt lat="44.20933" lon="1.9873">
        <ele>386.7</ele>
        <time>2019-05-11T08:09:34Z</time>
      </trkpt>
      <trkpt lat="44.20928" lon="1.9873">
        <ele>385.4</ele>
        <time>2019-05-11T08:09:40Z</time>
      </trkpt>
      <trkpt lat="44.20923" lon="1.9873">
        <ele>383.1</ele>
        <time>2019-05-11T08:09:44Z</time>
      </trkpt>
      <trkpt lat="44.20918" lon="1.98731">
        <ele>379.1</ele>
        <time>2019-05-11T08:09:51Z</time>
      </trkpt>
      <trkpt lat="44.20913" lon="1.98728">
        <ele>378.5</ele>
        <time>2019-05-11T08:09:57Z</time>
      </trkpt>
      <trkpt lat="44.20909" lon="1.98725">
        <ele>378.2</ele>
        <time>2019-05-11T08:10:01Z</time>
      </trkpt>
      <trkpt lat="44.20905" lon="1.9872">
        <ele>377.7</ele>
        <time>2019-05-11T08:10:05Z</time>
      </trkpt>
      <trkpt lat="44.209" lon="1.98718">
        <ele>377.2</ele>
        <time>2019-05-11T08:10:09Z</time>
      </trkpt>
      <trkpt lat="44.20895" lon="1.98717">
        <ele>377</ele>
        <time>2019-05-11T08:10:13Z</time>
      </trkpt>
      <trkpt lat="44.2089" lon="1.98713">
        <ele>376.7</ele>
        <time>2019-05-11T08:10:17Z</time>
      </trkpt>
      <trkpt lat="44.20886" lon="1.98709">
        <ele>376.7</ele>
        <time>2019-05-11T08:10:22Z</time>
      </trkpt>
      <trkpt lat="44.20883" lon="1.98705">
        <ele>377.1</ele>
        <time>2019-05-11T08:10:25Z</time>
      </trkpt>
      <trkpt lat="44.2088" lon="1.98699">
        <ele>377.7</ele>
        <time>2019-05-11T08:10:29Z</time>
      </trkpt>
      <trkpt lat="44.20877" lon="1.98692">
        <ele>376.8</ele>
        <time>2019-05-11T08:10:35Z</time>
      </trkpt>
      <trkpt lat="44.20876" lon="1.98684">
        <ele>375.6</ele>
        <time>2019-05-11T08:10:40Z</time>
      </trkpt>
      <trkpt lat="44.20874" lon="1.98678">
        <ele>374.9</ele>
        <time>2019-05-11T08:10:45Z</time>
      </trkpt>
      <trkpt lat="44.20871" lon="1.98673">
        <ele>375.1</ele>
        <time>2019-05-11T08:10:50Z</time>
      </trkpt>
      <trkpt lat="44.2087" lon="1.98666">
        <ele>375.1</ele>
        <time>2019-05-11T08:10:56Z</time>
      </trkpt>
      <trkpt lat="44.20869" lon="1.98659">
        <ele>375.2</ele>
        <time>2019-05-11T08:11:03Z</time>
      </trkpt>
      <trkpt lat="44.20867" lon="1.98653">
        <ele>374.1</ele>
        <time>2019-05-11T08:11:43Z</time>
      </trkpt>
      <trkpt lat="44.20865" lon="1.98647">
        <ele>372.1</ele>
        <time>2019-05-11T08:11:52Z</time>
      </trkpt>
      <trkpt lat="44.20861" lon="1.98642">
        <ele>372</ele>
        <time>2019-05-11T08:14:32Z</time>
      </trkpt>
      <trkpt lat="44.20856" lon="1.98638">
        <ele>371.6</ele>
        <time>2019-05-11T08:14:35Z</time>
      </trkpt>
      <trkpt lat="44.20851" lon="1.98637">
        <ele>370.5</ele>
        <time>2019-05-11T08:14:43Z</time>
      </trkpt>
      <trkpt lat="44.20847" lon="1.98634">
        <ele>370.6</ele>
        <time>2019-05-11T08:14:51Z</time>
      </trkpt>
      <trkpt lat="44.20843" lon="1.9863">
        <ele>372</ele>
        <time>2019-05-11T08:15:17Z</time>
      </trkpt>
      <trkpt lat="44.20839" lon="1.98626">
        <ele>369.4</ele>
        <time>2019-05-11T08:15:21Z</time>
      </trkpt>
      <trkpt lat="44.20834" lon="1.98624">
        <ele>367.6</ele>
        <time>2019-05-11T08:15:24Z</time>
      </trkpt>
      <trkpt lat="44.20829" lon="1.98624">
        <ele>363.5</ele>
        <time>2019-05-11T08:15:32Z</time>
      </trkpt>
      <trkpt lat="44.20823" lon="1.98624">
        <ele>360</ele>
        <time>2019-05-11T08:15:55Z</time>
      </trkpt>
      <trkpt lat="44.20816" lon="1.98624">
        <ele>360</ele>
        <time>2019-05-11T08:15:58Z</time>
      </trkpt>
      <trkpt lat="44.20812" lon="1.98622">
        <ele>358.5</ele>
        <time>2019-05-11T08:16:01Z</time>
      </trkpt>
      <trkpt lat="44.20806" lon="1.98621">
        <ele>358.8</ele>
        <time>2019-05-11T08:16:06Z</time>
      </trkpt>
      <trkpt lat="44.20801" lon="1.9862">
        <ele>359.2</ele>
        <time>2019-05-11T08:16:10Z</time>
      </trkpt>
      <trkpt lat="44.20797" lon="1.98619">
        <ele>359.4</ele>
        <time>2019-05-11T08:16:12Z</time>
      </trkpt>
      <trkpt lat="44.20792" lon="1.98619">
        <ele>361</ele>
        <time>2019-05-11T08:16:20Z</time>
      </trkpt>
      <trkpt lat="44.20787" lon="1.98617">
        <ele>362.4</ele>
        <time>2019-05-11T08:16:46Z</time>
      </trkpt>
      <trkpt lat="44.20783" lon="1.98616">
        <ele>361.4</ele>
        <time>2019-05-11T08:16:50Z</time>
      </trkpt>
      <trkpt lat="44.20778" lon="1.98617">
        <ele>360.1</ele>
        <time>2019-05-11T08:17:01Z</time>
      </trkpt>
      <trkpt lat="44.20772" lon="1.98621">
        <ele>359</ele>
        <time>2019-05-11T08:17:20Z</time>
      </trkpt>
      <trkpt lat="44.20768" lon="1.98625">
        <ele>356.9</ele>
        <time>2019-05-11T08:17:23Z</time>
      </trkpt>
      <trkpt lat="44.20763" lon="1.98629">
        <ele>355.2</ele>
        <time>2019-05-11T08:17:25Z</time>
      </trkpt>
      <trkpt lat="44.20757" lon="1.98633">
        <ele>353.2</ele>
        <time>2019-05-11T08:17:29Z</time>
      </trkpt>
      <trkpt lat="44.20751" lon="1.98635">
        <ele>352.3</ele>
        <time>2019-05-11T08:17:32Z</time>
      </trkpt>
      <trkpt lat="44.20746" lon="1.98635">
        <ele>351.2</ele>
        <time>2019-05-11T08:17:35Z</time>
      </trkpt>
      <trkpt lat="44.20742" lon="1.98638">
        <ele>351.1</ele>
        <time>2019-05-11T08:17:38Z</time>
      </trkpt>
      <trkpt lat="44.20736" lon="1.9864">
        <ele>351.2</ele>
        <time>2019-05-11T08:17:42Z</time>
      </trkpt>
      <trkpt lat="44.20733" lon="1.98645">
        <ele>350.7</ele>
        <time>2019-05-11T08:17:48Z</time>
      </trkpt>
      <trkpt lat="44.2073" lon="1.98651">
        <ele>348.6</ele>
        <time>2019-05-11T08:17:54Z</time>
      </trkpt>
      <trkpt lat="44.20725" lon="1.98651">
        <ele>347.5</ele>
        <time>2019-05-11T08:17:57Z</time>
      </trkpt>
      <trkpt lat="44.2072" lon="1.98651">
        <ele>347.1</ele>
        <time>2019-05-11T08:18:02Z</time>
      </trkpt>
      <trkpt lat="44.20715" lon="1.98656">
        <ele>346.6</ele>
        <time>2019-05-11T08:18:08Z</time>
      </trkpt>
      <trkpt lat="44.20709" lon="1.9866">
        <ele>344.8</ele>
        <time>2019-05-11T08:18:38Z</time>
      </trkpt>
      <trkpt lat="44.20703" lon="1.9866">
        <ele>345</ele>
        <time>2019-05-11T08:18:40Z</time>
      </trkpt>
      <trkpt lat="44.20698" lon="1.98661">
        <ele>343.9</ele>
        <time>2019-05-11T08:18:43Z</time>
      </trkpt>
      <trkpt lat="44.20693" lon="1.98663">
        <ele>343.6</ele>
        <time>2019-05-11T08:18:48Z</time>
      </trkpt>
      <trkpt lat="44.20685" lon="1.98664">
        <ele>344.6</ele>
        <time>2019-05-11T08:19:08Z</time>
      </trkpt>
      <trkpt lat="44.2068" lon="1.98664">
        <ele>343.3</ele>
        <time>2019-05-11T08:19:10Z</time>
      </trkpt>
      <trkpt lat="44.20672" lon="1.98664">
        <ele>344.5</ele>
        <time>2019-05-11T08:19:12Z</time>
      </trkpt>
      <trkpt lat="44.20666" lon="1.98665">
        <ele>343.8</ele>
        <time>2019-05-11T08:19:14Z</time>
      </trkpt>
      <trkpt lat="44.20661" lon="1.98664">
        <ele>342.5</ele>
        <time>2019-05-11T08:19:17Z</time>
      </trkpt>
      <trkpt lat="44.20661" lon="1.98671">
        <ele>341.9</ele>
        <time>2019-05-11T08:19:40Z</time>
      </trkpt>
      <trkpt lat="44.20657" lon="1.98674">
        <ele>345.4</ele>
        <time>2019-05-11T08:19:51Z</time>
      </trkpt>
      <trkpt lat="44.20651" lon="1.98675">
        <ele>345.7</ele>
        <time>2019-05-11T08:19:57Z</time>
      </trkpt>
      <trkpt lat="44.20647" lon="1.98679">
        <ele>343.5</ele>
        <time>2019-05-11T08:20:00Z</time>
      </trkpt>
      <trkpt lat="44.20644" lon="1.98684">
        <ele>341.9</ele>
        <time>2019-05-11T08:20:03Z</time>
      </trkpt>
      <trkpt lat="44.20641" lon="1.98688">
        <ele>341.1</ele>
        <time>2019-05-11T08:20:05Z</time>
      </trkpt>
      <trkpt lat="44.20636" lon="1.98691">
        <ele>339</ele>
        <time>2019-05-11T08:20:09Z</time>
      </trkpt>
      <trkpt lat="44.20631" lon="1.98693">
        <ele>337.3</ele>
        <time>2019-05-11T08:20:14Z</time>
      </trkpt>
      <trkpt lat="44.20627" lon="1.98696">
        <ele>336.3</ele>
        <time>2019-05-11T08:20:22Z</time>
      </trkpt>
      <trkpt lat="44.20627" lon="1.98704">
        <ele>333.5</ele>
        <time>2019-05-11T08:20:27Z</time>
      </trkpt>
      <trkpt lat="44.20627" lon="1.98711">
        <ele>330.3</ele>
        <time>2019-05-11T08:20:32Z</time>
      </trkpt>
      <trkpt lat="44.20618" lon="1.98716">
        <ele>328.1</ele>
        <time>2019-05-11T08:20:42Z</time>
      </trkpt>
      <trkpt lat="44.20614" lon="1.98717">
        <ele>329.7</ele>
        <time>2019-05-11T08:20:57Z</time>
      </trkpt>
      <trkpt lat="44.20608" lon="1.98723">
        <ele>331.4</ele>
        <time>2019-05-11T08:24:14Z</time>
      </trkpt>
      <trkpt lat="44.20605" lon="1.98729">
        <ele>329.8</ele>
        <time>2019-05-11T08:24:16Z</time>
      </trkpt>
      <trkpt lat="44.206" lon="1.98734">
        <ele>328.8</ele>
        <time>2019-05-11T08:24:18Z</time>
      </trkpt>
      <trkpt lat="44.20596" lon="1.98741">
        <ele>327.8</ele>
        <time>2019-05-11T08:24:20Z</time>
      </trkpt>
      <trkpt lat="44.2059" lon="1.98737">
        <ele>328.4</ele>
        <time>2019-05-11T08:24:27Z</time>
      </trkpt>
      <trkpt lat="44.20593" lon="1.98728">
        <ele>329.6</ele>
        <time>2019-05-11T08:24:29Z</time>
      </trkpt>
      <trkpt lat="44.20588" lon="1.98729">
        <ele>330.2</ele>
        <time>2019-05-11T08:24:33Z</time>
      </trkpt>
      <trkpt lat="44.20582" lon="1.98733">
        <ele>330.9</ele>
        <time>2019-05-11T08:24:36Z</time>
      </trkpt>
      <trkpt lat="44.20579" lon="1.98738">
        <ele>331.4</ele>
        <time>2019-05-11T08:24:39Z</time>
      </trkpt>
      <trkpt lat="44.20578" lon="1.98745">
        <ele>330.8</ele>
        <time>2019-05-11T08:24:47Z</time>
      </trkpt>
      <trkpt lat="44.20576" lon="1.98753">
        <ele>333.3</ele>
        <time>2019-05-11T08:24:58Z</time>
      </trkpt>
      <trkpt lat="44.20573" lon="1.98758">
        <ele>331.4</ele>
        <time>2019-05-11T08:25:05Z</time>
      </trkpt>
      <trkpt lat="44.20569" lon="1.98762">
        <ele>330.6</ele>
        <time>2019-05-11T08:25:12Z</time>
      </trkpt>
      <trkpt lat="44.20565" lon="1.98766">
        <ele>330.4</ele>
        <time>2019-05-11T08:25:15Z</time>
      </trkpt>
      <trkpt lat="44.20562" lon="1.98771">
        <ele>331.1</ele>
        <time>2019-05-11T08:25:19Z</time>
      </trkpt>
      <trkpt lat="44.20562" lon="1.98777">
        <ele>330.8</ele>
        <time>2019-05-11T08:25:25Z</time>
      </trkpt>
      <trkpt lat="44.20558" lon="1.98783">
        <ele>330.4</ele>
        <time>2019-05-11T08:25:31Z</time>
      </trkpt>
      <trkpt lat="44.20555" lon="1.98788">
        <ele>329.8</ele>
        <time>2019-05-11T08:25:41Z</time>
      </trkpt>
      <trkpt lat="44.20552" lon="1.98794">
        <ele>330</ele>
        <time>2019-05-11T08:25:45Z</time>
      </trkpt>
      <trkpt lat="44.20549" lon="1.98799">
        <ele>332.8</ele>
        <time>2019-05-11T08:26:12Z</time>
      </trkpt>
      <trkpt lat="44.20547" lon="1.98806">
        <ele>334.7</ele>
        <time>2019-05-11T08:26:19Z</time>
      </trkpt>
      <trkpt lat="44.20544" lon="1.98811">
        <ele>333.7</ele>
        <time>2019-05-11T08:26:29Z</time>
      </trkpt>
      <trkpt lat="44.20542" lon="1.98818">
        <ele>331.1</ele>
        <time>2019-05-11T08:26:44Z</time>
      </trkpt>
      <trkpt lat="44.20539" lon="1.98823">
        <ele>328.6</ele>
        <time>2019-05-11T08:26:51Z</time>
      </trkpt>
      <trkpt lat="44.20536" lon="1.98831">
        <ele>328.4</ele>
        <time>2019-05-11T08:26:55Z</time>
      </trkpt>
      <trkpt lat="44.20532" lon="1.98838">
        <ele>329</ele>
        <time>2019-05-11T08:26:57Z</time>
      </trkpt>
      <trkpt lat="44.20528" lon="1.98845">
        <ele>329.5</ele>
        <time>2019-05-11T08:27:01Z</time>
      </trkpt>
      <trkpt lat="44.20527" lon="1.98851">
        <ele>330.7</ele>
        <time>2019-05-11T08:27:06Z</time>
      </trkpt>
      <trkpt lat="44.20524" lon="1.98856">
        <ele>330.3</ele>
        <time>2019-05-11T08:27:10Z</time>
      </trkpt>
      <trkpt lat="44.20521" lon="1.98862">
        <ele>330.9</ele>
        <time>2019-05-11T08:27:13Z</time>
      </trkpt>
      <trkpt lat="44.20517" lon="1.98867">
        <ele>332.8</ele>
        <time>2019-05-11T08:27:17Z</time>
      </trkpt>
      <trkpt lat="44.20514" lon="1.98873">
        <ele>335.2</ele>
        <time>2019-05-11T08:27:20Z</time>
      </trkpt>
      <trkpt lat="44.20512" lon="1.98879">
        <ele>340.3</ele>
        <time>2019-05-11T08:27:32Z</time>
      </trkpt>
      <trkpt lat="44.20508" lon="1.98883">
        <ele>342.4</ele>
        <time>2019-05-11T08:27:40Z</time>
      </trkpt>
      <trkpt lat="44.20504" lon="1.98886">
        <ele>345</ele>
        <time>2019-05-11T08:27:50Z</time>
      </trkpt>
      <trkpt lat="44.205" lon="1.98892">
        <ele>344</ele>
        <time>2019-05-11T08:28:00Z</time>
      </trkpt>
      <trkpt lat="44.20495" lon="1.98895">
        <ele>342.2</ele>
        <time>2019-05-11T08:28:04Z</time>
      </trkpt>
      <trkpt lat="44.20492" lon="1.98898">
        <ele>342.6</ele>
        <time>2019-05-11T08:28:09Z</time>
      </trkpt>
      <trkpt lat="44.20486" lon="1.98903">
        <ele>342.6</ele>
        <time>2019-05-11T08:28:11Z</time>
      </trkpt>
      <trkpt lat="44.20483" lon="1.98907">
        <ele>343.5</ele>
        <time>2019-05-11T08:28:15Z</time>
      </trkpt>
      <trkpt lat="44.20478" lon="1.98911">
        <ele>345.8</ele>
        <time>2019-05-11T08:28:27Z</time>
      </trkpt>
      <trkpt lat="44.20474" lon="1.98916">
        <ele>346.6</ele>
        <time>2019-05-11T08:28:38Z</time>
      </trkpt>
      <trkpt lat="44.2047" lon="1.9892">
        <ele>347.6</ele>
        <time>2019-05-11T08:28:41Z</time>
      </trkpt>
      <trkpt lat="44.20465" lon="1.98922">
        <ele>348.9</ele>
        <time>2019-05-11T08:28:46Z</time>
      </trkpt>
      <trkpt lat="44.20461" lon="1.98926">
        <ele>348.4</ele>
        <time>2019-05-11T08:28:49Z</time>
      </trkpt>
      <trkpt lat="44.20458" lon="1.98932">
        <ele>349.8</ele>
        <time>2019-05-11T08:28:52Z</time>
      </trkpt>
      <trkpt lat="44.20456" lon="1.98937">
        <ele>350.6</ele>
        <time>2019-05-11T08:28:56Z</time>
      </trkpt>
      <trkpt lat="44.20451" lon="1.9894">
        <ele>351.8</ele>
        <time>2019-05-11T08:29:01Z</time>
      </trkpt>
      <trkpt lat="44.20446" lon="1.98942">
        <ele>351.5</ele>
        <time>2019-05-11T08:29:04Z</time>
      </trkpt>
      <trkpt lat="44.20447" lon="1.98935">
        <ele>351.9</ele>
        <time>2019-05-11T08:29:09Z</time>
      </trkpt>
      <trkpt lat="44.20443" lon="1.9894">
        <ele>352.5</ele>
        <time>2019-05-11T08:29:15Z</time>
      </trkpt>
      <trkpt lat="44.20439" lon="1.98943">
        <ele>353</ele>
        <time>2019-05-11T08:29:18Z</time>
      </trkpt>
      <trkpt lat="44.20439" lon="1.9895">
        <ele>354.1</ele>
        <time>2019-05-11T08:29:21Z</time>
      </trkpt>
      <trkpt lat="44.20436" lon="1.98955">
        <ele>355.1</ele>
        <time>2019-05-11T08:29:26Z</time>
      </trkpt>
      <trkpt lat="44.20431" lon="1.98959">
        <ele>354.8</ele>
        <time>2019-05-11T08:29:32Z</time>
      </trkpt>
      <trkpt lat="44.20426" lon="1.98961">
        <ele>355.3</ele>
        <time>2019-05-11T08:29:38Z</time>
      </trkpt>
      <trkpt lat="44.20423" lon="1.98967">
        <ele>355.8</ele>
        <time>2019-05-11T08:29:42Z</time>
      </trkpt>
      <trkpt lat="44.20418" lon="1.98972">
        <ele>356.7</ele>
        <time>2019-05-11T08:29:48Z</time>
      </trkpt>
      <trkpt lat="44.20413" lon="1.98973">
        <ele>357.3</ele>
        <time>2019-05-11T08:29:53Z</time>
      </trkpt>
      <trkpt lat="44.20409" lon="1.98976">
        <ele>358.7</ele>
        <time>2019-05-11T08:29:59Z</time>
      </trkpt>
      <trkpt lat="44.20404" lon="1.98978">
        <ele>359.6</ele>
        <time>2019-05-11T08:30:03Z</time>
      </trkpt>
      <trkpt lat="44.204" lon="1.98981">
        <ele>360.6</ele>
        <time>2019-05-11T08:30:07Z</time>
      </trkpt>
      <trkpt lat="44.20398" lon="1.98986">
        <ele>361.6</ele>
        <time>2019-05-11T08:30:10Z</time>
      </trkpt>
      <trkpt lat="44.20396" lon="1.98992">
        <ele>361.1</ele>
        <time>2019-05-11T08:30:15Z</time>
      </trkpt>
      <trkpt lat="44.20394" lon="1.98998">
        <ele>360.7</ele>
        <time>2019-05-11T08:30:20Z</time>
      </trkpt>
      <trkpt lat="44.2039" lon="1.99">
        <ele>361.5</ele>
        <time>2019-05-11T08:30:25Z</time>
      </trkpt>
      <trkpt lat="44.20386" lon="1.99004">
        <ele>360.8</ele>
        <time>2019-05-11T08:30:30Z</time>
      </trkpt>
      <trkpt lat="44.20382" lon="1.99009">
        <ele>359.4</ele>
        <time>2019-05-11T08:30:35Z</time>
      </trkpt>
      <trkpt lat="44.2038" lon="1.99016">
        <ele>358.8</ele>
        <time>2019-05-11T08:30:43Z</time>
      </trkpt>
      <trkpt lat="44.20376" lon="1.99022">
        <ele>358.8</ele>
        <time>2019-05-11T08:30:47Z</time>
      </trkpt>
      <trkpt lat="44.20373" lon="1.99026">
        <ele>359.2</ele>
        <time>2019-05-11T08:30:50Z</time>
      </trkpt>
      <trkpt lat="44.2037" lon="1.99032">
        <ele>360</ele>
        <time>2019-05-11T08:30:53Z</time>
      </trkpt>
      <trkpt lat="44.20368" lon="1.99038">
        <ele>361.6</ele>
        <time>2019-05-11T08:30:56Z</time>
      </trkpt>
      <trkpt lat="44.20366" lon="1.99045">
        <ele>363.5</ele>
        <time>2019-05-11T08:31:00Z</time>
      </trkpt>
      <trkpt lat="44.20363" lon="1.99051">
        <ele>364.8</ele>
        <time>2019-05-11T08:31:04Z</time>
      </trkpt>
      <trkpt lat="44.2036" lon="1.99056">
        <ele>365.6</ele>
        <time>2019-05-11T08:31:07Z</time>
      </trkpt>
      <trkpt lat="44.20356" lon="1.99058">
        <ele>364.7</ele>
        <time>2019-05-11T08:31:15Z</time>
      </trkpt>
      <trkpt lat="44.20356" lon="1.99064">
        <ele>363.5</ele>
        <time>2019-05-11T08:32:04Z</time>
      </trkpt>
      <trkpt lat="44.20351" lon="1.99065">
        <ele>364.7</ele>
        <time>2019-05-11T08:34:56Z</time>
      </trkpt>
      <trkpt lat="44.20347" lon="1.9906">
        <ele>365</ele>
        <time>2019-05-11T08:35:00Z</time>
      </trkpt>
      <trkpt lat="44.20343" lon="1.99062">
        <ele>365.5</ele>
        <time>2019-05-11T08:36:35Z</time>
      </trkpt>
      <trkpt lat="44.20338" lon="1.9906">
        <ele>366.2</ele>
        <time>2019-05-11T08:36:42Z</time>
      </trkpt>
      <trkpt lat="44.20333" lon="1.99058">
        <ele>367.9</ele>
        <time>2019-05-11T08:36:48Z</time>
      </trkpt>
      <trkpt lat="44.20329" lon="1.99054">
        <ele>368.1</ele>
        <time>2019-05-11T08:36:55Z</time>
      </trkpt>
      <trkpt lat="44.20325" lon="1.9905">
        <ele>366.9</ele>
        <time>2019-05-11T08:37:02Z</time>
      </trkpt>
      <trkpt lat="44.20321" lon="1.99046">
        <ele>367.2</ele>
        <time>2019-05-11T08:37:05Z</time>
      </trkpt>
      <trkpt lat="44.20316" lon="1.99043">
        <ele>367.8</ele>
        <time>2019-05-11T08:37:09Z</time>
      </trkpt>
      <trkpt lat="44.20311" lon="1.9904">
        <ele>368.6</ele>
        <time>2019-05-11T08:37:13Z</time>
      </trkpt>
      <trkpt lat="44.20307" lon="1.99038">
        <ele>369.6</ele>
        <time>2019-05-11T08:37:16Z</time>
      </trkpt>
      <trkpt lat="44.20302" lon="1.99036">
        <ele>370.5</ele>
        <time>2019-05-11T08:37:21Z</time>
      </trkpt>
      <trkpt lat="44.20297" lon="1.99035">
        <ele>371.1</ele>
        <time>2019-05-11T08:37:26Z</time>
      </trkpt>
      <trkpt lat="44.20293" lon="1.99032">
        <ele>371.7</ele>
        <time>2019-05-11T08:37:29Z</time>
      </trkpt>
      <trkpt lat="44.20288" lon="1.9903">
        <ele>372.1</ele>
        <time>2019-05-11T08:37:33Z</time>
      </trkpt>
      <trkpt lat="44.20283" lon="1.99029">
        <ele>371.8</ele>
        <time>2019-05-11T08:37:38Z</time>
      </trkpt>
      <trkpt lat="44.20278" lon="1.99028">
        <ele>371.2</ele>
        <time>2019-05-11T08:37:43Z</time>
      </trkpt>
      <trkpt lat="44.20273" lon="1.99026">
        <ele>371</ele>
        <time>2019-05-11T08:37:47Z</time>
      </trkpt>
      <trkpt lat="44.20268" lon="1.99025">
        <ele>370.5</ele>
        <time>2019-05-11T08:37:52Z</time>
      </trkpt>
      <trkpt lat="44.20262" lon="1.99025">
        <ele>370.6</ele>
        <time>2019-05-11T08:37:56Z</time>
      </trkpt>
      <trkpt lat="44.20257" lon="1.99024">
        <ele>370.5</ele>
        <time>2019-05-11T08:38:00Z</time>
      </trkpt>
      <trkpt lat="44.20252" lon="1.99023">
        <ele>370.6</ele>
        <time>2019-05-11T08:38:04Z</time>
      </trkpt>
      <trkpt lat="44.20247" lon="1.99022">
        <ele>370</ele>
        <time>2019-05-11T08:38:08Z</time>
      </trkpt>
      <trkpt lat="44.20241" lon="1.9902">
        <ele>369.2</ele>
        <time>2019-05-11T08:38:13Z</time>
      </trkpt>
      <trkpt lat="44.20237" lon="1.99018">
        <ele>368.8</ele>
        <time>2019-05-11T08:38:17Z</time>
      </trkpt>
      <trkpt lat="44.20231" lon="1.99017">
        <ele>367.3</ele>
        <time>2019-05-11T08:38:23Z</time>
      </trkpt>
      <trkpt lat="44.20227" lon="1.99018">
        <ele>365.6</ele>
        <time>2019-05-11T08:38:28Z</time>
      </trkpt>
      <trkpt lat="44.20222" lon="1.99018">
        <ele>364.2</ele>
        <time>2019-05-11T08:38:33Z</time>
      </trkpt>
      <trkpt lat="44.20217" lon="1.99017">
        <ele>363.3</ele>
        <time>2019-05-11T08:38:37Z</time>
      </trkpt>
      <trkpt lat="44.20212" lon="1.99015">
        <ele>362.9</ele>
        <time>2019-05-11T08:38:41Z</time>
      </trkpt>
      <trkpt lat="44.20206" lon="1.99014">
        <ele>362.3</ele>
        <time>2019-05-11T08:38:46Z</time>
      </trkpt>
      <trkpt lat="44.20201" lon="1.99014">
        <ele>361.8</ele>
        <time>2019-05-11T08:38:50Z</time>
      </trkpt>
      <trkpt lat="44.20196" lon="1.99013">
        <ele>361.6</ele>
        <time>2019-05-11T08:38:55Z</time>
      </trkpt>
      <trkpt lat="44.20191" lon="1.99012">
        <ele>361.1</ele>
        <time>2019-05-11T08:39:00Z</time>
      </trkpt>
      <trkpt lat="44.20186" lon="1.99013">
        <ele>360.2</ele>
        <time>2019-05-11T08:39:06Z</time>
      </trkpt>
      <trkpt lat="44.20181" lon="1.99013">
        <ele>359.9</ele>
        <time>2019-05-11T08:39:10Z</time>
      </trkpt>
      <trkpt lat="44.20176" lon="1.99015">
        <ele>359.6</ele>
        <time>2019-05-11T08:39:15Z</time>
      </trkpt>
      <trkpt lat="44.2017" lon="1.99015">
        <ele>359.7</ele>
        <time>2019-05-11T08:39:19Z</time>
      </trkpt>
      <trkpt lat="44.20162" lon="1.9902">
        <ele>358.8</ele>
        <time>2019-05-11T08:39:40Z</time>
      </trkpt>
      <trkpt lat="44.20157" lon="1.99021">
        <ele>358.4</ele>
        <time>2019-05-11T08:39:44Z</time>
      </trkpt>
      <trkpt lat="44.20153" lon="1.99018">
        <ele>355.9</ele>
        <time>2019-05-11T08:39:48Z</time>
      </trkpt>
      <trkpt lat="44.20148" lon="1.99014">
        <ele>350.6</ele>
        <time>2019-05-11T08:41:34Z</time>
      </trkpt>
      <trkpt lat="44.20144" lon="1.99009">
        <ele>350.3</ele>
        <time>2019-05-11T08:41:39Z</time>
      </trkpt>
      <trkpt lat="44.2014" lon="1.99005">
        <ele>350.2</ele>
        <time>2019-05-11T08:41:43Z</time>
      </trkpt>
      <trkpt lat="44.20137" lon="1.98999">
        <ele>350.5</ele>
        <time>2019-05-11T08:41:48Z</time>
      </trkpt>
      <trkpt lat="44.20133" lon="1.98995">
        <ele>350.9</ele>
        <time>2019-05-11T08:41:52Z</time>
      </trkpt>
      <trkpt lat="44.20128" lon="1.98992">
        <ele>350.4</ele>
        <time>2019-05-11T08:41:57Z</time>
      </trkpt>
      <trkpt lat="44.20124" lon="1.9899">
        <ele>350.6</ele>
        <time>2019-05-11T08:42:04Z</time>
      </trkpt>
      <trkpt lat="44.2012" lon="1.98987">
        <ele>350.4</ele>
        <time>2019-05-11T08:42:08Z</time>
      </trkpt>
      <trkpt lat="44.20116" lon="1.98983">
        <ele>350.3</ele>
        <time>2019-05-11T08:42:12Z</time>
      </trkpt>
      <trkpt lat="44.20113" lon="1.98977">
        <ele>349.9</ele>
        <time>2019-05-11T08:42:18Z</time>
      </trkpt>
      <trkpt lat="44.20114" lon="1.98971">
        <ele>347.4</ele>
        <time>2019-05-11T08:42:26Z</time>
      </trkpt>
      <trkpt lat="44.20116" lon="1.98965">
        <ele>346.1</ele>
        <time>2019-05-11T08:42:30Z</time>
      </trkpt>
      <trkpt lat="44.20118" lon="1.98959">
        <ele>344.8</ele>
        <time>2019-05-11T08:42:34Z</time>
      </trkpt>
      <trkpt lat="44.20119" lon="1.98953">
        <ele>344.2</ele>
        <time>2019-05-11T08:42:38Z</time>
      </trkpt>
      <trkpt lat="44.20119" lon="1.98946">
        <ele>343.1</ele>
        <time>2019-05-11T08:42:43Z</time>
      </trkpt>
      <trkpt lat="44.20116" lon="1.98941">
        <ele>344.4</ele>
        <time>2019-05-11T08:42:53Z</time>
      </trkpt>
      <trkpt lat="44.20113" lon="1.98935">
        <ele>348.1</ele>
        <time>2019-05-11T08:44:00Z</time>
      </trkpt>
      <trkpt lat="44.20109" lon="1.98931">
        <ele>349.5</ele>
        <time>2019-05-11T08:44:07Z</time>
      </trkpt>
      <trkpt lat="44.20106" lon="1.98926">
        <ele>345.9</ele>
        <time>2019-05-11T08:45:08Z</time>
      </trkpt>
      <trkpt lat="44.20107" lon="1.98932">
        <ele>344.4</ele>
        <time>2019-05-11T08:45:23Z</time>
      </trkpt>
      <trkpt lat="44.20111" lon="1.98933">
        <ele>343.2</ele>
        <time>2019-05-11T08:45:33Z</time>
      </trkpt>
      <trkpt lat="44.20116" lon="1.98931">
        <ele>344</ele>
        <time>2019-05-11T08:45:39Z</time>
      </trkpt>
      <trkpt lat="44.20121" lon="1.98927">
        <ele>344.8</ele>
        <time>2019-05-11T08:45:44Z</time>
      </trkpt>
      <trkpt lat="44.20124" lon="1.98922">
        <ele>343.7</ele>
        <time>2019-05-11T08:45:51Z</time>
      </trkpt>
      <trkpt lat="44.20125" lon="1.98916">
        <ele>342.4</ele>
        <time>2019-05-11T08:45:57Z</time>
      </trkpt>
      <trkpt lat="44.20127" lon="1.98909">
        <ele>342.9</ele>
        <time>2019-05-11T08:46:00Z</time>
      </trkpt>
      <trkpt lat="44.20128" lon="1.98903">
        <ele>343.6</ele>
        <time>2019-05-11T08:46:04Z</time>
      </trkpt>
      <trkpt lat="44.20126" lon="1.98896">
        <ele>343.9</ele>
        <time>2019-05-11T08:46:09Z</time>
      </trkpt>
      <trkpt lat="44.20126" lon="1.98889">
        <ele>343.9</ele>
        <time>2019-05-11T08:46:14Z</time>
      </trkpt>
      <trkpt lat="44.20126" lon="1.98882">
        <ele>343.5</ele>
        <time>2019-05-11T08:46:19Z</time>
      </trkpt>
      <trkpt lat="44.20127" lon="1.98875">
        <ele>342.6</ele>
        <time>2019-05-11T08:46:24Z</time>
      </trkpt>
      <trkpt lat="44.20127" lon="1.98869">
        <ele>342.1</ele>
        <time>2019-05-11T08:46:28Z</time>
      </trkpt>
      <trkpt lat="44.20127" lon="1.98862">
        <ele>341.4</ele>
        <time>2019-05-11T08:46:33Z</time>
      </trkpt>
      <trkpt lat="44.20125" lon="1.98855">
        <ele>339.9</ele>
        <time>2019-05-11T08:46:39Z</time>
      </trkpt>
      <trkpt lat="44.20124" lon="1.98848">
        <ele>338.9</ele>
        <time>2019-05-11T08:46:44Z</time>
      </trkpt>
      <trkpt lat="44.20124" lon="1.98841">
        <ele>338.9</ele>
        <time>2019-05-11T08:46:49Z</time>
      </trkpt>
      <trkpt lat="44.20124" lon="1.98834">
        <ele>338.4</ele>
        <time>2019-05-11T08:46:54Z</time>
      </trkpt>
      <trkpt lat="44.20121" lon="1.98829">
        <ele>338.1</ele>
        <time>2019-05-11T08:47:00Z</time>
      </trkpt>
      <trkpt lat="44.20121" lon="1.98822">
        <ele>338.2</ele>
        <time>2019-05-11T08:47:04Z</time>
      </trkpt>
      <trkpt lat="44.20123" lon="1.98816">
        <ele>338.7</ele>
        <time>2019-05-11T08:47:08Z</time>
      </trkpt>
      <trkpt lat="44.20123" lon="1.9881">
        <ele>339.1</ele>
        <time>2019-05-11T08:47:13Z</time>
      </trkpt>
      <trkpt lat="44.20123" lon="1.98804">
        <ele>339.4</ele>
        <time>2019-05-11T08:47:18Z</time>
      </trkpt>
      <trkpt lat="44.20123" lon="1.98797">
        <ele>340</ele>
        <time>2019-05-11T08:47:23Z</time>
      </trkpt>
      <trkpt lat="44.20122" lon="1.9879">
        <ele>339.6</ele>
        <time>2019-05-11T08:47:28Z</time>
      </trkpt>
      <trkpt lat="44.20121" lon="1.98784">
        <ele>339.2</ele>
        <time>2019-05-11T08:47:33Z</time>
      </trkpt>
      <trkpt lat="44.20119" lon="1.98777">
        <ele>338.5</ele>
        <time>2019-05-11T08:47:38Z</time>
      </trkpt>
      <trkpt lat="44.20118" lon="1.9877">
        <ele>338.1</ele>
        <time>2019-05-11T08:47:43Z</time>
      </trkpt>
      <trkpt lat="44.20117" lon="1.98764">
        <ele>338.3</ele>
        <time>2019-05-11T08:47:48Z</time>
      </trkpt>
      <trkpt lat="44.20116" lon="1.98758">
        <ele>338.6</ele>
        <time>2019-05-11T08:47:52Z</time>
      </trkpt>
      <trkpt lat="44.20114" lon="1.98751">
        <ele>338.4</ele>
        <time>2019-05-11T08:47:57Z</time>
      </trkpt>
      <trkpt lat="44.20113" lon="1.98743">
        <ele>338.9</ele>
        <time>2019-05-11T08:48:02Z</time>
      </trkpt>
      <trkpt lat="44.20111" lon="1.98737">
        <ele>339</ele>
        <time>2019-05-11T08:48:08Z</time>
      </trkpt>
      <trkpt lat="44.20111" lon="1.9873">
        <ele>339.3</ele>
        <time>2019-05-11T08:48:12Z</time>
      </trkpt>
      <trkpt lat="44.2011" lon="1.98723">
        <ele>338.9</ele>
        <time>2019-05-11T08:48:17Z</time>
      </trkpt>
      <trkpt lat="44.2011" lon="1.98715">
        <ele>338.7</ele>
        <time>2019-05-11T08:48:22Z</time>
      </trkpt>
      <trkpt lat="44.20109" lon="1.98709">
        <ele>338.7</ele>
        <time>2019-05-11T08:48:29Z</time>
      </trkpt>
      <trkpt lat="44.20109" lon="1.98702">
        <ele>339.3</ele>
        <time>2019-05-11T08:48:36Z</time>
      </trkpt>
      <trkpt lat="44.20108" lon="1.98695">
        <ele>339.1</ele>
        <time>2019-05-11T08:48:40Z</time>
      </trkpt>
      <trkpt lat="44.20107" lon="1.98689">
        <ele>339.1</ele>
        <time>2019-05-11T08:48:44Z</time>
      </trkpt>
      <trkpt lat="44.20106" lon="1.98682">
        <ele>339.4</ele>
        <time>2019-05-11T08:48:47Z</time>
      </trkpt>
      <trkpt lat="44.20105" lon="1.98675">
        <ele>340.5</ele>
        <time>2019-05-11T08:48:51Z</time>
      </trkpt>
      <trkpt lat="44.20104" lon="1.98667">
        <ele>341.2</ele>
        <time>2019-05-11T08:48:56Z</time>
      </trkpt>
      <trkpt lat="44.20102" lon="1.9866">
        <ele>341.6</ele>
        <time>2019-05-11T08:49:00Z</time>
      </trkpt>
      <trkpt lat="44.20101" lon="1.98654">
        <ele>342.2</ele>
        <time>2019-05-11T08:49:05Z</time>
      </trkpt>
      <trkpt lat="44.20098" lon="1.98648">
        <ele>341.4</ele>
        <time>2019-05-11T08:49:11Z</time>
      </trkpt>
      <trkpt lat="44.20096" lon="1.98641">
        <ele>340.6</ele>
        <time>2019-05-11T08:49:17Z</time>
      </trkpt>
      <trkpt lat="44.20094" lon="1.98634">
        <ele>340.1</ele>
        <time>2019-05-11T08:49:22Z</time>
      </trkpt>
      <trkpt lat="44.20092" lon="1.98628">
        <ele>339.7</ele>
        <time>2019-05-11T08:49:26Z</time>
      </trkpt>
      <trkpt lat="44.20091" lon="1.98622">
        <ele>340.3</ele>
        <time>2019-05-11T08:49:30Z</time>
      </trkpt>
      <trkpt lat="44.20089" lon="1.98616">
        <ele>341.4</ele>
        <time>2019-05-11T08:49:35Z</time>
      </trkpt>
      <trkpt lat="44.20087" lon="1.98608">
        <ele>343</ele>
        <time>2019-05-11T08:49:41Z</time>
      </trkpt>
      <trkpt lat="44.20085" lon="1.98602">
        <ele>343.6</ele>
        <time>2019-05-11T08:49:45Z</time>
      </trkpt>
      <trkpt lat="44.20082" lon="1.98596">
        <ele>344.4</ele>
        <time>2019-05-11T08:49:50Z</time>
      </trkpt>
      <trkpt lat="44.20079" lon="1.9859">
        <ele>344.5</ele>
        <time>2019-05-11T08:49:55Z</time>
      </trkpt>
      <trkpt lat="44.20076" lon="1.98585">
        <ele>344.7</ele>
        <time>2019-05-11T08:49:59Z</time>
      </trkpt>
      <trkpt lat="44.20072" lon="1.9858">
        <ele>344.2</ele>
        <time>2019-05-11T08:50:04Z</time>
      </trkpt>
      <trkpt lat="44.20068" lon="1.98577">
        <ele>343.3</ele>
        <time>2019-05-11T08:50:09Z</time>
      </trkpt>
      <trkpt lat="44.20065" lon="1.98572">
        <ele>343.2</ele>
        <time>2019-05-11T08:50:13Z</time>
      </trkpt>
      <trkpt lat="44.20062" lon="1.98565">
        <ele>342.6</ele>
        <time>2019-05-11T08:50:18Z</time>
      </trkpt>
      <trkpt lat="44.20059" lon="1.98561">
        <ele>342.4</ele>
        <time>2019-05-11T08:50:22Z</time>
      </trkpt>
      <trkpt lat="44.20055" lon="1.98555">
        <ele>341.7</ele>
        <time>2019-05-11T08:50:27Z</time>
      </trkpt>
      <trkpt lat="44.20053" lon="1.98549">
        <ele>341.2</ele>
        <time>2019-05-11T08:50:32Z</time>
      </trkpt>
      <trkpt lat="44.2005" lon="1.98543">
        <ele>341.2</ele>
        <time>2019-05-11T08:50:37Z</time>
      </trkpt>
      <trkpt lat="44.20047" lon="1.98537">
        <ele>341.2</ele>
        <time>2019-05-11T08:50:42Z</time>
      </trkpt>
      <trkpt lat="44.20044" lon="1.98531">
        <ele>341.1</ele>
        <time>2019-05-11T08:50:46Z</time>
      </trkpt>
      <trkpt lat="44.20041" lon="1.98526">
        <ele>340.9</ele>
        <time>2019-05-11T08:50:51Z</time>
      </trkpt>
      <trkpt lat="44.20038" lon="1.98521">
        <ele>340.4</ele>
        <time>2019-05-11T08:50:56Z</time>
      </trkpt>
      <trkpt lat="44.20035" lon="1.98516">
        <ele>340.8</ele>
        <time>2019-05-11T08:51:00Z</time>
      </trkpt>
      <trkpt lat="44.20033" lon="1.98509">
        <ele>340.5</ele>
        <time>2019-05-11T08:51:05Z</time>
      </trkpt>
      <trkpt lat="44.2003" lon="1.98504">
        <ele>340.8</ele>
        <time>2019-05-11T08:51:10Z</time>
      </trkpt>
      <trkpt lat="44.20027" lon="1.98499">
        <ele>341</ele>
        <time>2019-05-11T08:51:14Z</time>
      </trkpt>
      <trkpt lat="44.20024" lon="1.98493">
        <ele>341.1</ele>
        <time>2019-05-11T08:51:18Z</time>
      </trkpt>
      <trkpt lat="44.20021" lon="1.98488">
        <ele>341.3</ele>
        <time>2019-05-11T08:51:23Z</time>
      </trkpt>
      <trkpt lat="44.20017" lon="1.98483">
        <ele>341.6</ele>
        <time>2019-05-11T08:51:27Z</time>
      </trkpt>
      <trkpt lat="44.20013" lon="1.98478">
        <ele>341.7</ele>
        <time>2019-05-11T08:51:32Z</time>
      </trkpt>
      <trkpt lat="44.20009" lon="1.98472">
        <ele>342.3</ele>
        <time>2019-05-11T08:51:36Z</time>
      </trkpt>
      <trkpt lat="44.20006" lon="1.98467">
        <ele>342.5</ele>
        <time>2019-05-11T08:51:40Z</time>
      </trkpt>
      <trkpt lat="44.20003" lon="1.98461">
        <ele>342.2</ele>
        <time>2019-05-11T08:51:46Z</time>
      </trkpt>
      <trkpt lat="44.2" lon="1.98456">
        <ele>341.9</ele>
        <time>2019-05-11T08:51:50Z</time>
      </trkpt>
      <trkpt lat="44.19997" lon="1.98449">
        <ele>341.6</ele>
        <time>2019-05-11T08:51:55Z</time>
      </trkpt>
      <trkpt lat="44.19995" lon="1.98443">
        <ele>341.2</ele>
        <time>2019-05-11T08:51:59Z</time>
      </trkpt>
      <trkpt lat="44.19993" lon="1.98436">
        <ele>340.4</ele>
        <time>2019-05-11T08:52:04Z</time>
      </trkpt>
      <trkpt lat="44.19992" lon="1.98429">
        <ele>339.5</ele>
        <time>2019-05-11T08:52:09Z</time>
      </trkpt>
      <trkpt lat="44.19991" lon="1.98423">
        <ele>338.4</ele>
        <time>2019-05-11T08:52:14Z</time>
      </trkpt>
      <trkpt lat="44.19991" lon="1.98415">
        <ele>336.1</ele>
        <time>2019-05-11T08:52:21Z</time>
      </trkpt>
      <trkpt lat="44.19991" lon="1.98408">
        <ele>335.6</ele>
        <time>2019-05-11T08:52:26Z</time>
      </trkpt>
      <trkpt lat="44.19992" lon="1.98401">
        <ele>335.9</ele>
        <time>2019-05-11T08:52:30Z</time>
      </trkpt>
      <trkpt lat="44.19992" lon="1.98394">
        <ele>336.3</ele>
        <time>2019-05-11T08:52:35Z</time>
      </trkpt>
      <trkpt lat="44.19993" lon="1.98387">
        <ele>336.9</ele>
        <time>2019-05-11T08:52:40Z</time>
      </trkpt>
      <trkpt lat="44.19992" lon="1.98381">
        <ele>337.4</ele>
        <time>2019-05-11T08:52:44Z</time>
      </trkpt>
      <trkpt lat="44.19991" lon="1.98373">
        <ele>337.8</ele>
        <time>2019-05-11T08:52:49Z</time>
      </trkpt>
      <trkpt lat="44.1999" lon="1.98367">
        <ele>338.1</ele>
        <time>2019-05-11T08:52:54Z</time>
      </trkpt>
      <trkpt lat="44.19989" lon="1.9836">
        <ele>338.9</ele>
        <time>2019-05-11T08:52:59Z</time>
      </trkpt>
      <trkpt lat="44.19989" lon="1.98353">
        <ele>338.9</ele>
        <time>2019-05-11T08:53:07Z</time>
      </trkpt>
      <trkpt lat="44.19991" lon="1.98346">
        <ele>338.9</ele>
        <time>2019-05-11T08:53:12Z</time>
      </trkpt>
      <trkpt lat="44.19992" lon="1.98339">
        <ele>338.6</ele>
        <time>2019-05-11T08:53:16Z</time>
      </trkpt>
      <trkpt lat="44.19994" lon="1.98333">
        <ele>338.7</ele>
        <time>2019-05-11T08:53:19Z</time>
      </trkpt>
      <trkpt lat="44.19995" lon="1.98326">
        <ele>338</ele>
        <time>2019-05-11T08:53:24Z</time>
      </trkpt>
      <trkpt lat="44.19996" lon="1.98319">
        <ele>337.4</ele>
        <time>2019-05-11T08:53:29Z</time>
      </trkpt>
      <trkpt lat="44.19998" lon="1.98312">
        <ele>337.3</ele>
        <time>2019-05-11T08:53:34Z</time>
      </trkpt>
      <trkpt lat="44.2" lon="1.98307">
        <ele>337.8</ele>
        <time>2019-05-11T08:53:38Z</time>
      </trkpt>
      <trkpt lat="44.20002" lon="1.98301">
        <ele>337.4</ele>
        <time>2019-05-11T08:53:43Z</time>
      </trkpt>
      <trkpt lat="44.20005" lon="1.98295">
        <ele>337.1</ele>
        <time>2019-05-11T08:53:47Z</time>
      </trkpt>
      <trkpt lat="44.20007" lon="1.98289">
        <ele>336.7</ele>
        <time>2019-05-11T08:53:51Z</time>
      </trkpt>
      <trkpt lat="44.20009" lon="1.98283">
        <ele>336.2</ele>
        <time>2019-05-11T08:53:56Z</time>
      </trkpt>
      <trkpt lat="44.20012" lon="1.98278">
        <ele>336.7</ele>
        <time>2019-05-11T08:54:00Z</time>
      </trkpt>
      <trkpt lat="44.20014" lon="1.98271">
        <ele>335.5</ele>
        <time>2019-05-11T08:54:06Z</time>
      </trkpt>
      <trkpt lat="44.20014" lon="1.98263">
        <ele>333.8</ele>
        <time>2019-05-11T08:54:13Z</time>
      </trkpt>
      <trkpt lat="44.20012" lon="1.98256">
        <ele>332.6</ele>
        <time>2019-05-11T08:54:18Z</time>
      </trkpt>
      <trkpt lat="44.2001" lon="1.9825">
        <ele>332.4</ele>
        <time>2019-05-11T08:54:23Z</time>
      </trkpt>
      <trkpt lat="44.20007" lon="1.98244">
        <ele>332.8</ele>
        <time>2019-05-11T08:54:28Z</time>
      </trkpt>
      <trkpt lat="44.20005" lon="1.98238">
        <ele>332.8</ele>
        <time>2019-05-11T08:54:33Z</time>
      </trkpt>
      <trkpt lat="44.20002" lon="1.98231">
        <ele>333</ele>
        <time>2019-05-11T08:54:38Z</time>
      </trkpt>
      <trkpt lat="44.19999" lon="1.98225">
        <ele>332.9</ele>
        <time>2019-05-11T08:54:43Z</time>
      </trkpt>
      <trkpt lat="44.19996" lon="1.98219">
        <ele>332.5</ele>
        <time>2019-05-11T08:54:49Z</time>
      </trkpt>
      <trkpt lat="44.19993" lon="1.98213">
        <ele>331.3</ele>
        <time>2019-05-11T08:54:57Z</time>
      </trkpt>
      <trkpt lat="44.19991" lon="1.98207">
        <ele>330.2</ele>
        <time>2019-05-11T08:55:03Z</time>
      </trkpt>
      <trkpt lat="44.19988" lon="1.98201">
        <ele>329</ele>
        <time>2019-05-11T08:55:08Z</time>
      </trkpt>
      <trkpt lat="44.19987" lon="1.98194">
        <ele>328.1</ele>
        <time>2019-05-11T08:55:13Z</time>
      </trkpt>
      <trkpt lat="44.19988" lon="1.98188">
        <ele>327.4</ele>
        <time>2019-05-11T08:55:17Z</time>
      </trkpt>
      <trkpt lat="44.1999" lon="1.98181">
        <ele>327.2</ele>
        <time>2019-05-11T08:55:21Z</time>
      </trkpt>
      <trkpt lat="44.1999" lon="1.98174">
        <ele>327.4</ele>
        <time>2019-05-11T08:55:25Z</time>
      </trkpt>
      <trkpt lat="44.19994" lon="1.9817">
        <ele>327.9</ele>
        <time>2019-05-11T08:55:30Z</time>
      </trkpt>
      <trkpt lat="44.19997" lon="1.98164">
        <ele>325.4</ele>
        <time>2019-05-11T08:57:31Z</time>
      </trkpt>
      <trkpt lat="44.19996" lon="1.98158">
        <ele>324.8</ele>
        <time>2019-05-11T08:59:06Z</time>
      </trkpt>
      <trkpt lat="44.19991" lon="1.98157">
        <ele>322.8</ele>
        <time>2019-05-11T08:59:12Z</time>
      </trkpt>
      <trkpt lat="44.19985" lon="1.98156">
        <ele>320.8</ele>
        <time>2019-05-11T08:59:26Z</time>
      </trkpt>
      <trkpt lat="44.19981" lon="1.98154">
        <ele>320.4</ele>
        <time>2019-05-11T08:59:30Z</time>
      </trkpt>
      <trkpt lat="44.19976" lon="1.9815">
        <ele>320.5</ele>
        <time>2019-05-11T08:59:35Z</time>
      </trkpt>
      <trkpt lat="44.19971" lon="1.98148">
        <ele>320.6</ele>
        <time>2019-05-11T08:59:39Z</time>
      </trkpt>
      <trkpt lat="44.19966" lon="1.98149">
        <ele>320.2</ele>
        <time>2019-05-11T08:59:44Z</time>
      </trkpt>
      <trkpt lat="44.19962" lon="1.98146">
        <ele>320</ele>
        <time>2019-05-11T08:59:49Z</time>
      </trkpt>
      <trkpt lat="44.19956" lon="1.98145">
        <ele>321.2</ele>
        <time>2019-05-11T08:59:56Z</time>
      </trkpt>
      <trkpt lat="44.19952" lon="1.98146">
        <ele>321.8</ele>
        <time>2019-05-11T09:00:02Z</time>
      </trkpt>
      <trkpt lat="44.19947" lon="1.98148">
        <ele>321</ele>
        <time>2019-05-11T09:00:12Z</time>
      </trkpt>
      <trkpt lat="44.19943" lon="1.98146">
        <ele>321.8</ele>
        <time>2019-05-11T09:00:17Z</time>
      </trkpt>
      <trkpt lat="44.19938" lon="1.98142">
        <ele>322.3</ele>
        <time>2019-05-11T09:00:22Z</time>
      </trkpt>
      <trkpt lat="44.19934" lon="1.9814">
        <ele>322.6</ele>
        <time>2019-05-11T09:00:32Z</time>
      </trkpt>
      <trkpt lat="44.19929" lon="1.98143">
        <ele>321.7</ele>
        <time>2019-05-11T09:00:37Z</time>
      </trkpt>
      <trkpt lat="44.19925" lon="1.98145">
        <ele>320.2</ele>
        <time>2019-05-11T09:00:51Z</time>
      </trkpt>
      <trkpt lat="44.19922" lon="1.9814">
        <ele>319</ele>
        <time>2019-05-11T09:00:58Z</time>
      </trkpt>
      <trkpt lat="44.19926" lon="1.98135">
        <ele>311.6</ele>
        <time>2019-05-11T09:01:12Z</time>
      </trkpt>
      <trkpt lat="44.19929" lon="1.9813">
        <ele>310.5</ele>
        <time>2019-05-11T09:01:17Z</time>
      </trkpt>
      <trkpt lat="44.19933" lon="1.98126">
        <ele>308.4</ele>
        <time>2019-05-11T09:01:27Z</time>
      </trkpt>
      <trkpt lat="44.19938" lon="1.98123">
        <ele>306.8</ele>
        <time>2019-05-11T09:01:33Z</time>
      </trkpt>
      <trkpt lat="44.19943" lon="1.9812">
        <ele>307.2</ele>
        <time>2019-05-11T09:01:39Z</time>
      </trkpt>
      <trkpt lat="44.19946" lon="1.98115">
        <ele>307.3</ele>
        <time>2019-05-11T09:01:47Z</time>
      </trkpt>
      <trkpt lat="44.1995" lon="1.98111">
        <ele>307.5</ele>
        <time>2019-05-11T09:01:53Z</time>
      </trkpt>
      <trkpt lat="44.19955" lon="1.98109">
        <ele>307.5</ele>
        <time>2019-05-11T09:02:02Z</time>
      </trkpt>
      <trkpt lat="44.1996" lon="1.98108">
        <ele>306.5</ele>
        <time>2019-05-11T09:02:07Z</time>
      </trkpt>
      <trkpt lat="44.19964" lon="1.98104">
        <ele>305.3</ele>
        <time>2019-05-11T09:02:12Z</time>
      </trkpt>
      <trkpt lat="44.19968" lon="1.98102">
        <ele>305.7</ele>
        <time>2019-05-11T09:02:18Z</time>
      </trkpt>
      <trkpt lat="44.19968" lon="1.98095">
        <ele>304.4</ele>
        <time>2019-05-11T09:02:26Z</time>
      </trkpt>
      <trkpt lat="44.19965" lon="1.9809">
        <ele>303.9</ele>
        <time>2019-05-11T09:02:30Z</time>
      </trkpt>
      <trkpt lat="44.1996" lon="1.98089">
        <ele>302.5</ele>
        <time>2019-05-11T09:02:35Z</time>
      </trkpt>
      <trkpt lat="44.19955" lon="1.98089">
        <ele>302</ele>
        <time>2019-05-11T09:02:39Z</time>
      </trkpt>
      <trkpt lat="44.1995" lon="1.98088">
        <ele>300.8</ele>
        <time>2019-05-11T09:02:49Z</time>
      </trkpt>
      <trkpt lat="44.19945" lon="1.98086">
        <ele>301.5</ele>
        <time>2019-05-11T09:02:54Z</time>
      </trkpt>
      <trkpt lat="44.1994" lon="1.98082">
        <ele>302.5</ele>
        <time>2019-05-11T09:03:02Z</time>
      </trkpt>
      <trkpt lat="44.19936" lon="1.9808">
        <ele>302.6</ele>
        <time>2019-05-11T09:03:07Z</time>
      </trkpt>
      <trkpt lat="44.1993" lon="1.98079">
        <ele>301.9</ele>
        <time>2019-05-11T09:03:15Z</time>
      </trkpt>
      <trkpt lat="44.19926" lon="1.98082">
        <ele>298.3</ele>
        <time>2019-05-11T09:03:25Z</time>
      </trkpt>
      <trkpt lat="44.19921" lon="1.98083">
        <ele>296.9</ele>
        <time>2019-05-11T09:03:32Z</time>
      </trkpt>
      <trkpt lat="44.19917" lon="1.98086">
        <ele>295.4</ele>
        <time>2019-05-11T09:03:38Z</time>
      </trkpt>
      <trkpt lat="44.19913" lon="1.98083">
        <ele>296.2</ele>
        <time>2019-05-11T09:03:42Z</time>
      </trkpt>
      <trkpt lat="44.19908" lon="1.98085">
        <ele>294.5</ele>
        <time>2019-05-11T09:03:52Z</time>
      </trkpt>
      <trkpt lat="44.19904" lon="1.98087">
        <ele>293.5</ele>
        <time>2019-05-11T09:03:57Z</time>
      </trkpt>
      <trkpt lat="44.19899" lon="1.98087">
        <ele>292.4</ele>
        <time>2019-05-11T09:04:03Z</time>
      </trkpt>
      <trkpt lat="44.19895" lon="1.98089">
        <ele>291</ele>
        <time>2019-05-11T09:04:11Z</time>
      </trkpt>
      <trkpt lat="44.19891" lon="1.98093">
        <ele>291.5</ele>
        <time>2019-05-11T09:04:15Z</time>
      </trkpt>
      <trkpt lat="44.19885" lon="1.98094">
        <ele>292.5</ele>
        <time>2019-05-11T09:04:20Z</time>
      </trkpt>
      <trkpt lat="44.1988" lon="1.98093">
        <ele>293.3</ele>
        <time>2019-05-11T09:04:25Z</time>
      </trkpt>
      <trkpt lat="44.19875" lon="1.98091">
        <ele>293.9</ele>
        <time>2019-05-11T09:04:29Z</time>
      </trkpt>
      <trkpt lat="44.19873" lon="1.98085">
        <ele>288.4</ele>
        <time>2019-05-11T09:04:45Z</time>
      </trkpt>
      <trkpt lat="44.19876" lon="1.98081">
        <ele>285</ele>
        <time>2019-05-11T09:04:59Z</time>
      </trkpt>
      <trkpt lat="44.19879" lon="1.98075">
        <ele>282.8</ele>
        <time>2019-05-11T09:05:04Z</time>
      </trkpt>
      <trkpt lat="44.19882" lon="1.98069">
        <ele>281.1</ele>
        <time>2019-05-11T09:05:10Z</time>
      </trkpt>
      <trkpt lat="44.19883" lon="1.98063">
        <ele>280.9</ele>
        <time>2019-05-11T09:05:15Z</time>
      </trkpt>
      <trkpt lat="44.19885" lon="1.98056">
        <ele>281.6</ele>
        <time>2019-05-11T09:05:21Z</time>
      </trkpt>
      <trkpt lat="44.19887" lon="1.98049">
        <ele>279.1</ele>
        <time>2019-05-11T09:05:31Z</time>
      </trkpt>
      <trkpt lat="44.19887" lon="1.98041">
        <ele>278.7</ele>
        <time>2019-05-11T09:05:35Z</time>
      </trkpt>
      <trkpt lat="44.19886" lon="1.98034">
        <ele>277.3</ele>
        <time>2019-05-11T09:05:39Z</time>
      </trkpt>
      <trkpt lat="44.19885" lon="1.98027">
        <ele>276.2</ele>
        <time>2019-05-11T09:05:44Z</time>
      </trkpt>
      <trkpt lat="44.19881" lon="1.98022">
        <ele>274.8</ele>
        <time>2019-05-11T09:05:50Z</time>
      </trkpt>
      <trkpt lat="44.19878" lon="1.98017">
        <ele>274.1</ele>
        <time>2019-05-11T09:05:57Z</time>
      </trkpt>
      <trkpt lat="44.19874" lon="1.98011">
        <ele>273.3</ele>
        <time>2019-05-11T09:06:03Z</time>
      </trkpt>
      <trkpt lat="44.1987" lon="1.98006">
        <ele>272.3</ele>
        <time>2019-05-11T09:06:09Z</time>
      </trkpt>
      <trkpt lat="44.19868" lon="1.97999">
        <ele>271.3</ele>
        <time>2019-05-11T09:06:16Z</time>
      </trkpt>
      <trkpt lat="44.19866" lon="1.97993">
        <ele>270.5</ele>
        <time>2019-05-11T09:06:22Z</time>
      </trkpt>
      <trkpt lat="44.19868" lon="1.97986">
        <ele>270.6</ele>
        <time>2019-05-11T09:06:27Z</time>
      </trkpt>
      <trkpt lat="44.19867" lon="1.97979">
        <ele>270.7</ele>
        <time>2019-05-11T09:06:32Z</time>
      </trkpt>
      <trkpt lat="44.19864" lon="1.97974">
        <ele>270.4</ele>
        <time>2019-05-11T09:06:38Z</time>
      </trkpt>
      <trkpt lat="44.19859" lon="1.97973">
        <ele>268.9</ele>
        <time>2019-05-11T09:06:44Z</time>
      </trkpt>
      <trkpt lat="44.19854" lon="1.9797">
        <ele>267.6</ele>
        <time>2019-05-11T09:06:49Z</time>
      </trkpt>
      <trkpt lat="44.1985" lon="1.97966">
        <ele>267.2</ele>
        <time>2019-05-11T09:06:54Z</time>
      </trkpt>
      <trkpt lat="44.19845" lon="1.97963">
        <ele>267.4</ele>
        <time>2019-05-11T09:07:00Z</time>
      </trkpt>
      <trkpt lat="44.1984" lon="1.9796">
        <ele>267.6</ele>
        <time>2019-05-11T09:07:05Z</time>
      </trkpt>
      <trkpt lat="44.19835" lon="1.97958">
        <ele>268.4</ele>
        <time>2019-05-11T09:07:09Z</time>
      </trkpt>
      <trkpt lat="44.19831" lon="1.97956">
        <ele>269.8</ele>
        <time>2019-05-11T09:07:15Z</time>
      </trkpt>
      <trkpt lat="44.19828" lon="1.9795">
        <ele>267.6</ele>
        <time>2019-05-11T09:07:28Z</time>
      </trkpt>
      <trkpt lat="44.19823" lon="1.97947">
        <ele>268</ele>
        <time>2019-05-11T09:07:33Z</time>
      </trkpt>
      <trkpt lat="44.19819" lon="1.97943">
        <ele>267.3</ele>
        <time>2019-05-11T09:07:40Z</time>
      </trkpt>
      <trkpt lat="44.19815" lon="1.97939">
        <ele>265.8</ele>
        <time>2019-05-11T09:07:48Z</time>
      </trkpt>
      <trkpt lat="44.19812" lon="1.97934">
        <ele>262.8</ele>
        <time>2019-05-11T09:07:55Z</time>
      </trkpt>
      <trkpt lat="44.19808" lon="1.9793">
        <ele>261.2</ele>
        <time>2019-05-11T09:08:00Z</time>
      </trkpt>
      <trkpt lat="44.19804" lon="1.97926">
        <ele>260</ele>
        <time>2019-05-11T09:08:04Z</time>
      </trkpt>
      <trkpt lat="44.19799" lon="1.97923">
        <ele>259.3</ele>
        <time>2019-05-11T09:08:08Z</time>
      </trkpt>
      <trkpt lat="44.19795" lon="1.97919">
        <ele>258.5</ele>
        <time>2019-05-11T09:08:14Z</time>
      </trkpt>
      <trkpt lat="44.19791" lon="1.97916">
        <ele>255.1</ele>
        <time>2019-05-11T09:08:24Z</time>
      </trkpt>
      <trkpt lat="44.19786" lon="1.97913">
        <ele>254.7</ele>
        <time>2019-05-11T09:08:29Z</time>
      </trkpt>
      <trkpt lat="44.19782" lon="1.9791">
        <ele>252.1</ele>
        <time>2019-05-11T09:08:41Z</time>
      </trkpt>
      <trkpt lat="44.19777" lon="1.97907">
        <ele>252.4</ele>
        <time>2019-05-11T09:08:45Z</time>
      </trkpt>
      <trkpt lat="44.19772" lon="1.97907">
        <ele>249.4</ele>
        <time>2019-05-11T09:08:56Z</time>
      </trkpt>
      <trkpt lat="44.19767" lon="1.97909">
        <ele>247.4</ele>
        <time>2019-05-11T09:09:03Z</time>
      </trkpt>
      <trkpt lat="44.1976" lon="1.97907">
        <ele>248.9</ele>
        <time>2019-05-11T09:09:08Z</time>
      </trkpt>
      <trkpt lat="44.19754" lon="1.97906">
        <ele>251.2</ele>
        <time>2019-05-11T09:09:11Z</time>
      </trkpt>
      <trkpt lat="44.19749" lon="1.97908">
        <ele>254.4</ele>
        <time>2019-05-11T09:09:18Z</time>
      </trkpt>
      <trkpt lat="44.19744" lon="1.97907">
        <ele>256.4</ele>
        <time>2019-05-11T09:09:23Z</time>
      </trkpt>
      <trkpt lat="44.19739" lon="1.97904">
        <ele>256.4</ele>
        <time>2019-05-11T09:09:28Z</time>
      </trkpt>
      <trkpt lat="44.19735" lon="1.97907">
        <ele>251.9</ele>
        <time>2019-05-11T09:09:37Z</time>
      </trkpt>
      <trkpt lat="44.1973" lon="1.97908">
        <ele>251.5</ele>
        <time>2019-05-11T09:09:43Z</time>
      </trkpt>
      <trkpt lat="44.19725" lon="1.97906">
        <ele>250.7</ele>
        <time>2019-05-11T09:09:49Z</time>
      </trkpt>
      <trkpt lat="44.1972" lon="1.97904">
        <ele>251.1</ele>
        <time>2019-05-11T09:09:53Z</time>
      </trkpt>
      <trkpt lat="44.19716" lon="1.97905">
        <ele>251.7</ele>
        <time>2019-05-11T09:09:58Z</time>
      </trkpt>
      <trkpt lat="44.19712" lon="1.9791">
        <ele>250.7</ele>
        <time>2019-05-11T09:10:07Z</time>
      </trkpt>
      <trkpt lat="44.19708" lon="1.97913">
        <ele>248.9</ele>
        <time>2019-05-11T09:10:13Z</time>
      </trkpt>
      <trkpt lat="44.19703" lon="1.97913">
        <ele>247.9</ele>
        <time>2019-05-11T09:10:18Z</time>
      </trkpt>
      <trkpt lat="44.19698" lon="1.97913">
        <ele>248.3</ele>
        <time>2019-05-11T09:10:23Z</time>
      </trkpt>
      <trkpt lat="44.19693" lon="1.97914">
        <ele>246.6</ele>
        <time>2019-05-11T09:10:30Z</time>
      </trkpt>
      <trkpt lat="44.19688" lon="1.97915">
        <ele>246.1</ele>
        <time>2019-05-11T09:10:36Z</time>
      </trkpt>
      <trkpt lat="44.19682" lon="1.97913">
        <ele>246</ele>
        <time>2019-05-11T09:10:41Z</time>
      </trkpt>
      <trkpt lat="44.19677" lon="1.97913">
        <ele>244.9</ele>
        <time>2019-05-11T09:10:47Z</time>
      </trkpt>
      <trkpt lat="44.19672" lon="1.97912">
        <ele>243.2</ele>
        <time>2019-05-11T09:10:54Z</time>
      </trkpt>
      <trkpt lat="44.19668" lon="1.9791">
        <ele>240.3</ele>
        <time>2019-05-11T09:11:00Z</time>
      </trkpt>
      <trkpt lat="44.19664" lon="1.97906">
        <ele>238</ele>
        <time>2019-05-11T09:11:06Z</time>
      </trkpt>
      <trkpt lat="44.19658" lon="1.97904">
        <ele>235.5</ele>
        <time>2019-05-11T09:14:39Z</time>
      </trkpt>
      <trkpt lat="44.19652" lon="1.97902">
        <ele>235.4</ele>
        <time>2019-05-11T09:14:42Z</time>
      </trkpt>
      <trkpt lat="44.19647" lon="1.97899">
        <ele>235.6</ele>
        <time>2019-05-11T09:14:46Z</time>
      </trkpt>
      <trkpt lat="44.19642" lon="1.97898">
        <ele>237</ele>
        <time>2019-05-11T09:14:57Z</time>
      </trkpt>
      <trkpt lat="44.19638" lon="1.97895">
        <ele>234.8</ele>
        <time>2019-05-11T09:15:02Z</time>
      </trkpt>
      <trkpt lat="44.19633" lon="1.97893">
        <ele>233</ele>
        <time>2019-05-11T09:15:11Z</time>
      </trkpt>
      <trkpt lat="44.19628" lon="1.97891">
        <ele>231.1</ele>
        <time>2019-05-11T09:15:16Z</time>
      </trkpt>
      <trkpt lat="44.19624" lon="1.97894">
        <ele>226.4</ele>
        <time>2019-05-11T09:15:23Z</time>
      </trkpt>
      <trkpt lat="44.19619" lon="1.97896">
        <ele>224.2</ele>
        <time>2019-05-11T09:15:29Z</time>
      </trkpt>
      <trkpt lat="44.19614" lon="1.97895">
        <ele>223.1</ele>
        <time>2019-05-11T09:15:35Z</time>
      </trkpt>
      <trkpt lat="44.1961" lon="1.97893">
        <ele>224.1</ele>
        <time>2019-05-11T09:15:39Z</time>
      </trkpt>
      <trkpt lat="44.19607" lon="1.97888">
        <ele>223</ele>
        <time>2019-05-11T09:15:47Z</time>
      </trkpt>
      <trkpt lat="44.19603" lon="1.97882">
        <ele>221.8</ele>
        <time>2019-05-11T09:15:54Z</time>
      </trkpt>
      <trkpt lat="44.196" lon="1.97878">
        <ele>221.4</ele>
        <time>2019-05-11T09:15:57Z</time>
      </trkpt>
      <trkpt lat="44.19595" lon="1.97875">
        <ele>221.9</ele>
        <time>2019-05-11T09:16:01Z</time>
      </trkpt>
      <trkpt lat="44.1959" lon="1.97873">
        <ele>223.6</ele>
        <time>2019-05-11T09:16:12Z</time>
      </trkpt>
      <trkpt lat="44.19585" lon="1.97873">
        <ele>222.9</ele>
        <time>2019-05-11T09:16:21Z</time>
      </trkpt>
      <trkpt lat="44.1958" lon="1.97877">
        <ele>221.4</ele>
        <time>2019-05-11T09:16:25Z</time>
      </trkpt>
      <trkpt lat="44.19574" lon="1.97876">
        <ele>220.5</ele>
        <time>2019-05-11T09:16:29Z</time>
      </trkpt>
      <trkpt lat="44.1957" lon="1.97874">
        <ele>218.4</ele>
        <time>2019-05-11T09:16:41Z</time>
      </trkpt>
      <trkpt lat="44.19566" lon="1.9787">
        <ele>218.4</ele>
        <time>2019-05-11T09:16:50Z</time>
      </trkpt>
      <trkpt lat="44.19562" lon="1.97866">
        <ele>218.7</ele>
        <time>2019-05-11T09:16:53Z</time>
      </trkpt>
      <trkpt lat="44.19557" lon="1.97861">
        <ele>218.1</ele>
        <time>2019-05-11T09:16:57Z</time>
      </trkpt>
      <trkpt lat="44.19553" lon="1.97859">
        <ele>217.3</ele>
        <time>2019-05-11T09:17:00Z</time>
      </trkpt>
      <trkpt lat="44.19547" lon="1.97855">
        <ele>215.2</ele>
        <time>2019-05-11T09:17:04Z</time>
      </trkpt>
      <trkpt lat="44.19542" lon="1.9785">
        <ele>214.1</ele>
        <time>2019-05-11T09:17:06Z</time>
      </trkpt>
      <trkpt lat="44.19539" lon="1.97845">
        <ele>211.3</ele>
        <time>2019-05-11T09:17:15Z</time>
      </trkpt>
      <trkpt lat="44.19534" lon="1.97847">
        <ele>211</ele>
        <time>2019-05-11T09:17:21Z</time>
      </trkpt>
      <trkpt lat="44.1953" lon="1.97842">
        <ele>211.4</ele>
        <time>2019-05-11T09:17:31Z</time>
      </trkpt>
      <trkpt lat="44.19525" lon="1.97838">
        <ele>210.6</ele>
        <time>2019-05-11T09:17:37Z</time>
      </trkpt>
      <trkpt lat="44.19521" lon="1.97835">
        <ele>209.4</ele>
        <time>2019-05-11T09:17:41Z</time>
      </trkpt>
      <trkpt lat="44.19517" lon="1.97834">
        <ele>209.1</ele>
        <time>2019-05-11T09:17:46Z</time>
      </trkpt>
      <trkpt lat="44.19511" lon="1.97834">
        <ele>207.7</ele>
        <time>2019-05-11T09:17:52Z</time>
      </trkpt>
      <trkpt lat="44.19506" lon="1.97835">
        <ele>207.2</ele>
        <time>2019-05-11T09:17:56Z</time>
      </trkpt>
      <trkpt lat="44.195" lon="1.97833">
        <ele>207.3</ele>
        <time>2019-05-11T09:18:00Z</time>
      </trkpt>
      <trkpt lat="44.19495" lon="1.97836">
        <ele>202.9</ele>
        <time>2019-05-11T09:18:07Z</time>
      </trkpt>
      <trkpt lat="44.19491" lon="1.97841">
        <ele>201.9</ele>
        <time>2019-05-11T09:18:10Z</time>
      </trkpt>
      <trkpt lat="44.19483" lon="1.97846">
        <ele>197.3</ele>
        <time>2019-05-11T09:18:20Z</time>
      </trkpt>
      <trkpt lat="44.19479" lon="1.97843">
        <ele>198.1</ele>
        <time>2019-05-11T09:18:24Z</time>
      </trkpt>
      <trkpt lat="44.19474" lon="1.9784">
        <ele>197.9</ele>
        <time>2019-05-11T09:18:30Z</time>
      </trkpt>
      <trkpt lat="44.1947" lon="1.97844">
        <ele>197.4</ele>
        <time>2019-05-11T09:18:37Z</time>
      </trkpt>
      <trkpt lat="44.19465" lon="1.97846">
        <ele>198</ele>
        <time>2019-05-11T09:18:44Z</time>
      </trkpt>
      <trkpt lat="44.1946" lon="1.97849">
        <ele>197.5</ele>
        <time>2019-05-11T09:18:50Z</time>
      </trkpt>
      <trkpt lat="44.19456" lon="1.97851">
        <ele>196.8</ele>
        <time>2019-05-11T09:18:57Z</time>
      </trkpt>
      <trkpt lat="44.19454" lon="1.97856">
        <ele>196</ele>
        <time>2019-05-11T09:19:04Z</time>
      </trkpt>
      <trkpt lat="44.19452" lon="1.97863">
        <ele>193.5</ele>
        <time>2019-05-11T09:19:10Z</time>
      </trkpt>
      <trkpt lat="44.1945" lon="1.97869">
        <ele>190.9</ele>
        <time>2019-05-11T09:19:15Z</time>
      </trkpt>
      <trkpt lat="44.19446" lon="1.97873">
        <ele>189.9</ele>
        <time>2019-05-11T09:19:20Z</time>
      </trkpt>
      <trkpt lat="44.19448" lon="1.97878">
        <ele>187.7</ele>
        <time>2019-05-11T09:19:26Z</time>
      </trkpt>
      <trkpt lat="44.19446" lon="1.97884">
        <ele>186.5</ele>
        <time>2019-05-11T09:19:32Z</time>
      </trkpt>
      <trkpt lat="44.19443" lon="1.9789">
        <ele>183.2</ele>
        <time>2019-05-11T09:19:40Z</time>
      </trkpt>
      <trkpt lat="44.19439" lon="1.97893">
        <ele>180.8</ele>
        <time>2019-05-11T09:19:49Z</time>
      </trkpt>
      <trkpt lat="44.19433" lon="1.97895">
        <ele>181.2</ele>
        <time>2019-05-11T09:19:54Z</time>
      </trkpt>
      <trkpt lat="44.1943" lon="1.97898">
        <ele>181.7</ele>
        <time>2019-05-11T09:20:00Z</time>
      </trkpt>
      <trkpt lat="44.19427" lon="1.97904">
        <ele>182.8</ele>
        <time>2019-05-11T09:20:06Z</time>
      </trkpt>
      <trkpt lat="44.19425" lon="1.9791">
        <ele>184</ele>
        <time>2019-05-11T09:20:12Z</time>
      </trkpt>
      <trkpt lat="44.19419" lon="1.9792">
        <ele>185.3</ele>
        <time>2019-05-11T09:20:21Z</time>
      </trkpt>
      <trkpt lat="44.19418" lon="1.97927">
        <ele>184.7</ele>
        <time>2019-05-11T09:20:26Z</time>
      </trkpt>
      <trkpt lat="44.19416" lon="1.97939">
        <ele>182.6</ele>
        <time>2019-05-11T09:20:37Z</time>
      </trkpt>
      <trkpt lat="44.19417" lon="1.97947">
        <ele>183.2</ele>
        <time>2019-05-11T09:20:41Z</time>
      </trkpt>
      <trkpt lat="44.19416" lon="1.97954">
        <ele>184.9</ele>
        <time>2019-05-11T09:20:46Z</time>
      </trkpt>
      <trkpt lat="44.19411" lon="1.97958">
        <ele>185.5</ele>
        <time>2019-05-11T09:20:49Z</time>
      </trkpt>
      <trkpt lat="44.1941" lon="1.97964">
        <ele>186.8</ele>
        <time>2019-05-11T09:20:54Z</time>
      </trkpt>
      <trkpt lat="44.19406" lon="1.97969">
        <ele>187.8</ele>
        <time>2019-05-11T09:20:58Z</time>
      </trkpt>
      <trkpt lat="44.19402" lon="1.97972">
        <ele>188</ele>
        <time>2019-05-11T09:21:02Z</time>
      </trkpt>
      <trkpt lat="44.19398" lon="1.97976">
        <ele>187.7</ele>
        <time>2019-05-11T09:21:07Z</time>
      </trkpt>
      <trkpt lat="44.19401" lon="1.9797">
        <ele>181.6</ele>
        <time>2019-05-11T09:24:47Z</time>
      </trkpt>
      <trkpt lat="44.19398" lon="1.97969">
        <ele>182.9</ele>
        <time>2019-05-11T09:27:14Z</time>
      </trkpt>
      <trkpt lat="44.19393" lon="1.97964">
        <ele>183.7</ele>
        <time>2019-05-11T09:27:16Z</time>
      </trkpt>
      <trkpt lat="44.1939" lon="1.97956">
        <ele>184.2</ele>
        <time>2019-05-11T09:27:19Z</time>
      </trkpt>
      <trkpt lat="44.1939" lon="1.97949">
        <ele>185.8</ele>
        <time>2019-05-11T09:27:22Z</time>
      </trkpt>
      <trkpt lat="44.19391" lon="1.97942">
        <ele>186</ele>
        <time>2019-05-11T09:27:26Z</time>
      </trkpt>
      <trkpt lat="44.19389" lon="1.97936">
        <ele>185.6</ele>
        <time>2019-05-11T09:27:29Z</time>
      </trkpt>
      <trkpt lat="44.19387" lon="1.97929">
        <ele>185.4</ele>
        <time>2019-05-11T09:27:31Z</time>
      </trkpt>
      <trkpt lat="44.19387" lon="1.97922">
        <ele>185.3</ele>
        <time>2019-05-11T09:27:35Z</time>
      </trkpt>
      <trkpt lat="44.19387" lon="1.97914">
        <ele>185.7</ele>
        <time>2019-05-11T09:27:39Z</time>
      </trkpt>
      <trkpt lat="44.19385" lon="1.97906">
        <ele>185.6</ele>
        <time>2019-05-11T09:27:43Z</time>
      </trkpt>
      <trkpt lat="44.19382" lon="1.97899">
        <ele>184.6</ele>
        <time>2019-05-11T09:27:47Z</time>
      </trkpt>
      <trkpt lat="44.19383" lon="1.97893">
        <ele>182.9</ele>
        <time>2019-05-11T09:27:51Z</time>
      </trkpt>
      <trkpt lat="44.19386" lon="1.97886">
        <ele>182.7</ele>
        <time>2019-05-11T09:27:54Z</time>
      </trkpt>
      <trkpt lat="44.19386" lon="1.97879">
        <ele>181.1</ele>
        <time>2019-05-11T09:28:00Z</time>
      </trkpt>
      <trkpt lat="44.19388" lon="1.97859">
        <ele>176.9</ele>
        <time>2019-05-11T09:28:13Z</time>
      </trkpt>
      <trkpt lat="44.19391" lon="1.97853">
        <ele>177.3</ele>
        <time>2019-05-11T09:28:16Z</time>
      </trkpt>
      <trkpt lat="44.19394" lon="1.97848">
        <ele>179</ele>
        <time>2019-05-11T09:28:21Z</time>
      </trkpt>
      <trkpt lat="44.19398" lon="1.97843">
        <ele>180.3</ele>
        <time>2019-05-11T09:28:29Z</time>
      </trkpt>
      <trkpt lat="44.19403" lon="1.97827">
        <ele>180.5</ele>
        <time>2019-05-11T09:28:50Z</time>
      </trkpt>
      <trkpt lat="44.1941" lon="1.97812">
        <ele>185.6</ele>
        <time>2019-05-11T09:29:01Z</time>
      </trkpt>
      <trkpt lat="44.19412" lon="1.97805">
        <ele>184.5</ele>
        <time>2019-05-11T09:29:04Z</time>
      </trkpt>
      <trkpt lat="44.19417" lon="1.978">
        <ele>183.5</ele>
        <time>2019-05-11T09:29:07Z</time>
      </trkpt>
      <trkpt lat="44.1942" lon="1.97793">
        <ele>182.1</ele>
        <time>2019-05-11T09:29:12Z</time>
      </trkpt>
      <trkpt lat="44.19421" lon="1.97785">
        <ele>181.7</ele>
        <time>2019-05-11T09:29:17Z</time>
      </trkpt>
      <trkpt lat="44.19427" lon="1.97785">
        <ele>182.5</ele>
        <time>2019-05-11T09:29:21Z</time>
      </trkpt>
      <trkpt lat="44.19431" lon="1.97781">
        <ele>184.8</ele>
        <time>2019-05-11T09:29:26Z</time>
      </trkpt>
      <trkpt lat="44.19436" lon="1.97777">
        <ele>187</ele>
        <time>2019-05-11T09:29:30Z</time>
      </trkpt>
      <trkpt lat="44.1944" lon="1.97774">
        <ele>187.5</ele>
        <time>2019-05-11T09:29:36Z</time>
      </trkpt>
      <trkpt lat="44.19444" lon="1.9777">
        <ele>188.2</ele>
        <time>2019-05-11T09:29:40Z</time>
      </trkpt>
      <trkpt lat="44.19448" lon="1.97769">
        <ele>188.7</ele>
        <time>2019-05-11T09:29:43Z</time>
      </trkpt>
      <trkpt lat="44.1945" lon="1.97762">
        <ele>190</ele>
        <time>2019-05-11T09:29:48Z</time>
      </trkpt>
      <trkpt lat="44.19451" lon="1.97756">
        <ele>190.4</ele>
        <time>2019-05-11T09:29:51Z</time>
      </trkpt>
      <trkpt lat="44.19454" lon="1.97751">
        <ele>189.5</ele>
        <time>2019-05-11T09:30:00Z</time>
      </trkpt>
      <trkpt lat="44.19459" lon="1.97748">
        <ele>190.1</ele>
        <time>2019-05-11T09:30:06Z</time>
      </trkpt>
      <trkpt lat="44.19462" lon="1.97743">
        <ele>191.6</ele>
        <time>2019-05-11T09:30:15Z</time>
      </trkpt>
      <trkpt lat="44.19463" lon="1.97735">
        <ele>193.5</ele>
        <time>2019-05-11T09:30:21Z</time>
      </trkpt>
      <trkpt lat="44.19465" lon="1.9773">
        <ele>195</ele>
        <time>2019-05-11T09:30:25Z</time>
      </trkpt>
      <trkpt lat="44.19466" lon="1.97723">
        <ele>196</ele>
        <time>2019-05-11T09:30:30Z</time>
      </trkpt>
      <trkpt lat="44.19468" lon="1.97715">
        <ele>195.9</ele>
        <time>2019-05-11T09:30:34Z</time>
      </trkpt>
      <trkpt lat="44.19472" lon="1.97709">
        <ele>195.1</ele>
        <time>2019-05-11T09:30:37Z</time>
      </trkpt>
      <trkpt lat="44.19476" lon="1.97706">
        <ele>194.9</ele>
        <time>2019-05-11T09:30:41Z</time>
      </trkpt>
      <trkpt lat="44.19479" lon="1.97701">
        <ele>192.8</ele>
        <time>2019-05-11T09:30:47Z</time>
      </trkpt>
      <trkpt lat="44.19482" lon="1.97695">
        <ele>192.1</ele>
        <time>2019-05-11T09:30:52Z</time>
      </trkpt>
      <trkpt lat="44.19486" lon="1.97689">
        <ele>192.5</ele>
        <time>2019-05-11T09:30:57Z</time>
      </trkpt>
      <trkpt lat="44.19488" lon="1.97683">
        <ele>192.4</ele>
        <time>2019-05-11T09:31:01Z</time>
      </trkpt>
      <trkpt lat="44.1949" lon="1.97677">
        <ele>192.3</ele>
        <time>2019-05-11T09:31:04Z</time>
      </trkpt>
      <trkpt lat="44.19495" lon="1.97675">
        <ele>191.7</ele>
        <time>2019-05-11T09:31:07Z</time>
      </trkpt>
      <trkpt lat="44.19498" lon="1.9767">
        <ele>191.7</ele>
        <time>2019-05-11T09:31:12Z</time>
      </trkpt>
      <trkpt lat="44.19498" lon="1.97663">
        <ele>192</ele>
        <time>2019-05-11T09:31:15Z</time>
      </trkpt>
      <trkpt lat="44.19501" lon="1.97659">
        <ele>192.9</ele>
        <time>2019-05-11T09:31:21Z</time>
      </trkpt>
      <trkpt lat="44.19506" lon="1.97657">
        <ele>194.4</ele>
        <time>2019-05-11T09:31:25Z</time>
      </trkpt>
      <trkpt lat="44.1951" lon="1.97653">
        <ele>195.1</ele>
        <time>2019-05-11T09:31:28Z</time>
      </trkpt>
      <trkpt lat="44.19514" lon="1.97648">
        <ele>191.5</ele>
        <time>2019-05-11T09:31:38Z</time>
      </trkpt>
      <trkpt lat="44.19518" lon="1.97644">
        <ele>191.1</ele>
        <time>2019-05-11T09:31:41Z</time>
      </trkpt>
      <trkpt lat="44.19521" lon="1.97639">
        <ele>189.6</ele>
        <time>2019-05-11T09:31:46Z</time>
      </trkpt>
      <trkpt lat="44.19523" lon="1.97633">
        <ele>189.4</ele>
        <time>2019-05-11T09:31:50Z</time>
      </trkpt>
      <trkpt lat="44.19525" lon="1.97628">
        <ele>188.8</ele>
        <time>2019-05-11T09:31:53Z</time>
      </trkpt>
      <trkpt lat="44.1953" lon="1.97621">
        <ele>188.9</ele>
        <time>2019-05-11T09:31:56Z</time>
      </trkpt>
      <trkpt lat="44.19532" lon="1.97616">
        <ele>188.5</ele>
        <time>2019-05-11T09:32:02Z</time>
      </trkpt>
      <trkpt lat="44.19536" lon="1.97611">
        <ele>188.8</ele>
        <time>2019-05-11T09:32:07Z</time>
      </trkpt>
      <trkpt lat="44.19547" lon="1.97604">
        <ele>192.9</ele>
        <time>2019-05-11T09:32:17Z</time>
      </trkpt>
      <trkpt lat="44.19553" lon="1.97605">
        <ele>192.6</ele>
        <time>2019-05-11T09:32:20Z</time>
      </trkpt>
      <trkpt lat="44.19554" lon="1.97599">
        <ele>189.8</ele>
        <time>2019-05-11T09:32:29Z</time>
      </trkpt>
      <trkpt lat="44.19558" lon="1.97595">
        <ele>188.9</ele>
        <time>2019-05-11T09:32:34Z</time>
      </trkpt>
      <trkpt lat="44.19562" lon="1.9759">
        <ele>189.2</ele>
        <time>2019-05-11T09:32:38Z</time>
      </trkpt>
      <trkpt lat="44.19567" lon="1.97586">
        <ele>189</ele>
        <time>2019-05-11T09:32:41Z</time>
      </trkpt>
      <trkpt lat="44.19569" lon="1.9758">
        <ele>189.6</ele>
        <time>2019-05-11T09:32:48Z</time>
      </trkpt>
      <trkpt lat="44.19574" lon="1.97579">
        <ele>188.5</ele>
        <time>2019-05-11T09:32:53Z</time>
      </trkpt>
      <trkpt lat="44.19582" lon="1.97576">
        <ele>188.3</ele>
        <time>2019-05-11T09:33:02Z</time>
      </trkpt>
      <trkpt lat="44.19583" lon="1.97566">
        <ele>187.8</ele>
        <time>2019-05-11T09:33:34Z</time>
      </trkpt>
      <trkpt lat="44.19588" lon="1.97564">
        <ele>187.5</ele>
        <time>2019-05-11T09:33:36Z</time>
      </trkpt>
      <trkpt lat="44.19593" lon="1.97562">
        <ele>186.6</ele>
        <time>2019-05-11T09:33:38Z</time>
      </trkpt>
      <trkpt lat="44.19598" lon="1.97558">
        <ele>184.7</ele>
        <time>2019-05-11T09:33:41Z</time>
      </trkpt>
      <trkpt lat="44.19603" lon="1.97555">
        <ele>184.4</ele>
        <time>2019-05-11T09:33:43Z</time>
      </trkpt>
      <trkpt lat="44.19608" lon="1.97549">
        <ele>196</ele>
        <time>2019-05-11T09:33:47Z</time>
      </trkpt>
      <trkpt lat="44.19612" lon="1.97546">
        <ele>198.5</ele>
        <time>2019-05-11T09:33:51Z</time>
      </trkpt>
      <trkpt lat="44.19618" lon="1.97544">
        <ele>198.8</ele>
        <time>2019-05-11T09:33:54Z</time>
      </trkpt>
      <trkpt lat="44.19623" lon="1.9754">
        <ele>198.1</ele>
        <time>2019-05-11T09:33:58Z</time>
      </trkpt>
      <trkpt lat="44.19633" lon="1.97535">
        <ele>192.1</ele>
        <time>2019-05-11T09:34:08Z</time>
      </trkpt>
      <trkpt lat="44.19638" lon="1.9753">
        <ele>191.9</ele>
        <time>2019-05-11T09:34:12Z</time>
      </trkpt>
      <trkpt lat="44.19643" lon="1.97526">
        <ele>191.6</ele>
        <time>2019-05-11T09:34:15Z</time>
      </trkpt>
      <trkpt lat="44.19652" lon="1.97531">
        <ele>191</ele>
        <time>2019-05-11T09:34:18Z</time>
      </trkpt>
      <trkpt lat="44.19658" lon="1.97532">
        <ele>188.9</ele>
        <time>2019-05-11T09:34:26Z</time>
      </trkpt>
      <trkpt lat="44.19663" lon="1.97533">
        <ele>189.4</ele>
        <time>2019-05-11T09:34:36Z</time>
      </trkpt>
      <trkpt lat="44.19679" lon="1.9753">
        <ele>188.1</ele>
        <time>2019-05-11T09:35:14Z</time>
      </trkpt>
      <trkpt lat="44.19683" lon="1.97531">
        <ele>186.4</ele>
        <time>2019-05-11T09:35:16Z</time>
      </trkpt>
      <trkpt lat="44.19692" lon="1.97534">
        <ele>183.8</ele>
        <time>2019-05-11T09:35:19Z</time>
      </trkpt>
      <trkpt lat="44.197" lon="1.97533">
        <ele>182.6</ele>
        <time>2019-05-11T09:35:21Z</time>
      </trkpt>
      <trkpt lat="44.19705" lon="1.97533">
        <ele>181.5</ele>
        <time>2019-05-11T09:35:23Z</time>
      </trkpt>
      <trkpt lat="44.19711" lon="1.97534">
        <ele>181.1</ele>
        <time>2019-05-11T09:35:25Z</time>
      </trkpt>
      <trkpt lat="44.19715" lon="1.97534">
        <ele>181</ele>
        <time>2019-05-11T09:35:28Z</time>
      </trkpt>
      <trkpt lat="44.19721" lon="1.97532">
        <ele>181.7</ele>
        <time>2019-05-11T09:35:31Z</time>
      </trkpt>
      <trkpt lat="44.19731" lon="1.97524">
        <ele>187.3</ele>
        <time>2019-05-11T09:35:44Z</time>
      </trkpt>
      <trkpt lat="44.19735" lon="1.97524">
        <ele>187</ele>
        <time>2019-05-11T09:35:52Z</time>
      </trkpt>
      <trkpt lat="44.1974" lon="1.97528">
        <ele>187.5</ele>
        <time>2019-05-11T09:35:57Z</time>
      </trkpt>
      <trkpt lat="44.19744" lon="1.9753">
        <ele>187.2</ele>
        <time>2019-05-11T09:36:01Z</time>
      </trkpt>
      <trkpt lat="44.19749" lon="1.97533">
        <ele>187.2</ele>
        <time>2019-05-11T09:36:05Z</time>
      </trkpt>
      <trkpt lat="44.19755" lon="1.97532">
        <ele>186.6</ele>
        <time>2019-05-11T09:36:08Z</time>
      </trkpt>
      <trkpt lat="44.1976" lon="1.97534">
        <ele>185.8</ele>
        <time>2019-05-11T09:36:12Z</time>
      </trkpt>
      <trkpt lat="44.19765" lon="1.97539">
        <ele>184.8</ele>
        <time>2019-05-11T09:36:16Z</time>
      </trkpt>
      <trkpt lat="44.19769" lon="1.97541">
        <ele>183.8</ele>
        <time>2019-05-11T09:36:39Z</time>
      </trkpt>
      <trkpt lat="44.19775" lon="1.97544">
        <ele>184.6</ele>
        <time>2019-05-11T09:36:42Z</time>
      </trkpt>
      <trkpt lat="44.19779" lon="1.97548">
        <ele>186.2</ele>
        <time>2019-05-11T09:36:47Z</time>
      </trkpt>
      <trkpt lat="44.19783" lon="1.97553">
        <ele>187.6</ele>
        <time>2019-05-11T09:36:55Z</time>
      </trkpt>
      <trkpt lat="44.19791" lon="1.97561">
        <ele>185.2</ele>
        <time>2019-05-11T09:37:09Z</time>
      </trkpt>
      <trkpt lat="44.19798" lon="1.97567">
        <ele>183.3</ele>
        <time>2019-05-11T09:37:11Z</time>
      </trkpt>
      <trkpt lat="44.19802" lon="1.9757">
        <ele>181.6</ele>
        <time>2019-05-11T09:37:13Z</time>
      </trkpt>
      <trkpt lat="44.19808" lon="1.97574">
        <ele>180.3</ele>
        <time>2019-05-11T09:37:16Z</time>
      </trkpt>
      <trkpt lat="44.19812" lon="1.9758">
        <ele>181.3</ele>
        <time>2019-05-11T09:37:19Z</time>
      </trkpt>
      <trkpt lat="44.19813" lon="1.97586">
        <ele>178.5</ele>
        <time>2019-05-11T09:37:26Z</time>
      </trkpt>
      <trkpt lat="44.19817" lon="1.9759">
        <ele>178.4</ele>
        <time>2019-05-11T09:37:30Z</time>
      </trkpt>
      <trkpt lat="44.19822" lon="1.97594">
        <ele>179.4</ele>
        <time>2019-05-11T09:37:35Z</time>
      </trkpt>
      <trkpt lat="44.19826" lon="1.97598">
        <ele>180.7</ele>
        <time>2019-05-11T09:37:39Z</time>
      </trkpt>
      <trkpt lat="44.19828" lon="1.97603">
        <ele>181.9</ele>
        <time>2019-05-11T09:37:43Z</time>
      </trkpt>
      <trkpt lat="44.19832" lon="1.97609">
        <ele>183.3</ele>
        <time>2019-05-11T09:37:48Z</time>
      </trkpt>
      <trkpt lat="44.19836" lon="1.97614">
        <ele>185</ele>
        <time>2019-05-11T09:37:52Z</time>
      </trkpt>
      <trkpt lat="44.1984" lon="1.97617">
        <ele>185.4</ele>
        <time>2019-05-11T09:37:54Z</time>
      </trkpt>
      <trkpt lat="44.19844" lon="1.97622">
        <ele>185.4</ele>
        <time>2019-05-11T09:37:57Z</time>
      </trkpt>
      <trkpt lat="44.19848" lon="1.97625">
        <ele>185.1</ele>
        <time>2019-05-11T09:38:04Z</time>
      </trkpt>
      <trkpt lat="44.19853" lon="1.97628">
        <ele>185.5</ele>
        <time>2019-05-11T09:38:07Z</time>
      </trkpt>
      <trkpt lat="44.19858" lon="1.97627">
        <ele>185.9</ele>
        <time>2019-05-11T09:38:11Z</time>
      </trkpt>
      <trkpt lat="44.19862" lon="1.9763">
        <ele>187</ele>
        <time>2019-05-11T09:38:17Z</time>
      </trkpt>
      <trkpt lat="44.19866" lon="1.97634">
        <ele>188.1</ele>
        <time>2019-05-11T09:38:24Z</time>
      </trkpt>
      <trkpt lat="44.19865" lon="1.97641">
        <ele>187.2</ele>
        <time>2019-05-11T09:38:34Z</time>
      </trkpt>
      <trkpt lat="44.19868" lon="1.97654">
        <ele>186</ele>
        <time>2019-05-11T09:39:43Z</time>
      </trkpt>
      <trkpt lat="44.19872" lon="1.97658">
        <ele>184.9</ele>
        <time>2019-05-11T09:39:46Z</time>
      </trkpt>
      <trkpt lat="44.19874" lon="1.97665">
        <ele>183</ele>
        <time>2019-05-11T09:39:50Z</time>
      </trkpt>
      <trkpt lat="44.19877" lon="1.97671">
        <ele>182.1</ele>
        <time>2019-05-11T09:39:54Z</time>
      </trkpt>
      <trkpt lat="44.19882" lon="1.97676">
        <ele>181.2</ele>
        <time>2019-05-11T09:39:58Z</time>
      </trkpt>
      <trkpt lat="44.19885" lon="1.97682">
        <ele>180.7</ele>
        <time>2019-05-11T09:40:01Z</time>
      </trkpt>
      <trkpt lat="44.19889" lon="1.97687">
        <ele>181.4</ele>
        <time>2019-05-11T09:40:03Z</time>
      </trkpt>
      <trkpt lat="44.19893" lon="1.9769">
        <ele>182.1</ele>
        <time>2019-05-11T09:40:06Z</time>
      </trkpt>
      <trkpt lat="44.19894" lon="1.97697">
        <ele>182.6</ele>
        <time>2019-05-11T09:40:09Z</time>
      </trkpt>
      <trkpt lat="44.19893" lon="1.97703">
        <ele>181.6</ele>
        <time>2019-05-11T09:40:14Z</time>
      </trkpt>
      <trkpt lat="44.19896" lon="1.9771">
        <ele>182.2</ele>
        <time>2019-05-11T09:40:19Z</time>
      </trkpt>
      <trkpt lat="44.19899" lon="1.97715">
        <ele>182.8</ele>
        <time>2019-05-11T09:40:25Z</time>
      </trkpt>
      <trkpt lat="44.19903" lon="1.97719">
        <ele>182.5</ele>
        <time>2019-05-11T09:40:34Z</time>
      </trkpt>
      <trkpt lat="44.19908" lon="1.97723">
        <ele>183.4</ele>
        <time>2019-05-11T09:40:41Z</time>
      </trkpt>
      <trkpt lat="44.19914" lon="1.97725">
        <ele>182.9</ele>
        <time>2019-05-11T09:40:45Z</time>
      </trkpt>
      <trkpt lat="44.19917" lon="1.9773">
        <ele>182.4</ele>
        <time>2019-05-11T09:40:50Z</time>
      </trkpt>
      <trkpt lat="44.19921" lon="1.97733">
        <ele>180.9</ele>
        <time>2019-05-11T09:40:54Z</time>
      </trkpt>
      <trkpt lat="44.19924" lon="1.97738">
        <ele>179.2</ele>
        <time>2019-05-11T09:40:59Z</time>
      </trkpt>
      <trkpt lat="44.19928" lon="1.97743">
        <ele>178.9</ele>
        <time>2019-05-11T09:41:05Z</time>
      </trkpt>
      <trkpt lat="44.19931" lon="1.97748">
        <ele>179</ele>
        <time>2019-05-11T09:41:09Z</time>
      </trkpt>
      <trkpt lat="44.19936" lon="1.97752">
        <ele>177.6</ele>
        <time>2019-05-11T09:41:13Z</time>
      </trkpt>
      <trkpt lat="44.19939" lon="1.97758">
        <ele>177.5</ele>
        <time>2019-05-11T09:41:18Z</time>
      </trkpt>
      <trkpt lat="44.19942" lon="1.97762">
        <ele>177.8</ele>
        <time>2019-05-11T09:41:23Z</time>
      </trkpt>
      <trkpt lat="44.19946" lon="1.97765">
        <ele>178.4</ele>
        <time>2019-05-11T09:41:27Z</time>
      </trkpt>
      <trkpt lat="44.19954" lon="1.97771">
        <ele>179.4</ele>
        <time>2019-05-11T09:41:43Z</time>
      </trkpt>
      <trkpt lat="44.19959" lon="1.97775">
        <ele>179.5</ele>
        <time>2019-05-11T09:42:02Z</time>
      </trkpt>
      <trkpt lat="44.19964" lon="1.97779">
        <ele>179.7</ele>
        <time>2019-05-11T09:42:05Z</time>
      </trkpt>
      <trkpt lat="44.19981" lon="1.97794">
        <ele>184</ele>
        <time>2019-05-11T09:42:21Z</time>
      </trkpt>
      <trkpt lat="44.20003" lon="1.97803">
        <ele>189.1</ele>
        <time>2019-05-11T09:42:46Z</time>
      </trkpt>
      <trkpt lat="44.20008" lon="1.97807">
        <ele>189.1</ele>
        <time>2019-05-11T09:42:48Z</time>
      </trkpt>
      <trkpt lat="44.20013" lon="1.97809">
        <ele>189.3</ele>
        <time>2019-05-11T09:42:50Z</time>
      </trkpt>
      <trkpt lat="44.20019" lon="1.97814">
        <ele>189</ele>
        <time>2019-05-11T09:42:53Z</time>
      </trkpt>
      <trkpt lat="44.20023" lon="1.97817">
        <ele>189.4</ele>
        <time>2019-05-11T09:42:55Z</time>
      </trkpt>
      <trkpt lat="44.20029" lon="1.97821">
        <ele>189.7</ele>
        <time>2019-05-11T09:42:58Z</time>
      </trkpt>
      <trkpt lat="44.20035" lon="1.97822">
        <ele>190.2</ele>
        <time>2019-05-11T09:43:01Z</time>
      </trkpt>
      <trkpt lat="44.20041" lon="1.97825">
        <ele>190.4</ele>
        <time>2019-05-11T09:43:04Z</time>
      </trkpt>
      <trkpt lat="44.20046" lon="1.97826">
        <ele>191.8</ele>
        <time>2019-05-11T09:43:08Z</time>
      </trkpt>
      <trkpt lat="44.20055" lon="1.97826">
        <ele>194.9</ele>
        <time>2019-05-11T09:43:19Z</time>
      </trkpt>
      <trkpt lat="44.2006" lon="1.97827">
        <ele>194.2</ele>
        <time>2019-05-11T09:43:29Z</time>
      </trkpt>
      <trkpt lat="44.20065" lon="1.97828">
        <ele>194.2</ele>
        <time>2019-05-11T09:43:33Z</time>
      </trkpt>
      <trkpt lat="44.20072" lon="1.97828">
        <ele>193.8</ele>
        <time>2019-05-11T09:43:36Z</time>
      </trkpt>
      <trkpt lat="44.20078" lon="1.97828">
        <ele>192.9</ele>
        <time>2019-05-11T09:43:39Z</time>
      </trkpt>
      <trkpt lat="44.20084" lon="1.97832">
        <ele>191.9</ele>
        <time>2019-05-11T09:43:42Z</time>
      </trkpt>
      <trkpt lat="44.2009" lon="1.97834">
        <ele>191.5</ele>
        <time>2019-05-11T09:43:45Z</time>
      </trkpt>
      <trkpt lat="44.20094" lon="1.97836">
        <ele>190.5</ele>
        <time>2019-05-11T09:43:48Z</time>
      </trkpt>
      <trkpt lat="44.201" lon="1.97837">
        <ele>188.3</ele>
        <time>2019-05-11T09:43:54Z</time>
      </trkpt>
      <trkpt lat="44.20106" lon="1.9784">
        <ele>187.5</ele>
        <time>2019-05-11T09:43:58Z</time>
      </trkpt>
      <trkpt lat="44.2011" lon="1.97839">
        <ele>186.9</ele>
        <time>2019-05-11T09:44:02Z</time>
      </trkpt>
      <trkpt lat="44.20115" lon="1.97842">
        <ele>185</ele>
        <time>2019-05-11T09:44:05Z</time>
      </trkpt>
      <trkpt lat="44.2012" lon="1.97844">
        <ele>182.3</ele>
        <time>2019-05-11T09:44:10Z</time>
      </trkpt>
      <trkpt lat="44.20124" lon="1.97842">
        <ele>181.1</ele>
        <time>2019-05-11T09:44:17Z</time>
      </trkpt>
      <trkpt lat="44.20129" lon="1.97842">
        <ele>180.3</ele>
        <time>2019-05-11T09:44:22Z</time>
      </trkpt>
      <trkpt lat="44.20134" lon="1.97843">
        <ele>179.7</ele>
        <time>2019-05-11T09:44:27Z</time>
      </trkpt>
      <trkpt lat="44.20138" lon="1.97843">
        <ele>178.6</ele>
        <time>2019-05-11T09:44:33Z</time>
      </trkpt>
      <trkpt lat="44.20144" lon="1.97839">
        <ele>178.4</ele>
        <time>2019-05-11T09:47:07Z</time>
      </trkpt>
      <trkpt lat="44.20149" lon="1.97837">
        <ele>179.2</ele>
        <time>2019-05-11T09:47:11Z</time>
      </trkpt>
      <trkpt lat="44.20153" lon="1.97835">
        <ele>179.8</ele>
        <time>2019-05-11T09:47:16Z</time>
      </trkpt>
      <trkpt lat="44.20158" lon="1.97833">
        <ele>182.5</ele>
        <time>2019-05-11T09:47:27Z</time>
      </trkpt>
      <trkpt lat="44.20161" lon="1.97827">
        <ele>183.6</ele>
        <time>2019-05-11T09:47:32Z</time>
      </trkpt>
      <trkpt lat="44.20166" lon="1.97826">
        <ele>183.6</ele>
        <time>2019-05-11T09:47:36Z</time>
      </trkpt>
      <trkpt lat="44.20171" lon="1.97824">
        <ele>183.8</ele>
        <time>2019-05-11T09:47:40Z</time>
      </trkpt>
      <trkpt lat="44.20176" lon="1.97821">
        <ele>183.5</ele>
        <time>2019-05-11T09:47:44Z</time>
      </trkpt>
      <trkpt lat="44.20181" lon="1.97819">
        <ele>183.8</ele>
        <time>2019-05-11T09:47:48Z</time>
      </trkpt>
      <trkpt lat="44.20186" lon="1.97817">
        <ele>184.7</ele>
        <time>2019-05-11T09:47:52Z</time>
      </trkpt>
      <trkpt lat="44.20191" lon="1.97815">
        <ele>184.7</ele>
        <time>2019-05-11T09:47:56Z</time>
      </trkpt>
      <trkpt lat="44.20195" lon="1.97811">
        <ele>185.2</ele>
        <time>2019-05-11T09:47:59Z</time>
      </trkpt>
      <trkpt lat="44.20199" lon="1.97811">
        <ele>185.1</ele>
        <time>2019-05-11T09:48:04Z</time>
      </trkpt>
      <trkpt lat="44.20205" lon="1.9781">
        <ele>185.6</ele>
        <time>2019-05-11T09:48:08Z</time>
      </trkpt>
      <trkpt lat="44.2021" lon="1.97808">
        <ele>185.8</ele>
        <time>2019-05-11T09:48:14Z</time>
      </trkpt>
      <trkpt lat="44.20215" lon="1.97803">
        <ele>187</ele>
        <time>2019-05-11T09:48:18Z</time>
      </trkpt>
      <trkpt lat="44.2022" lon="1.97802">
        <ele>186.3</ele>
        <time>2019-05-11T09:48:21Z</time>
      </trkpt>
      <trkpt lat="44.20224" lon="1.97798">
        <ele>185.4</ele>
        <time>2019-05-11T09:48:25Z</time>
      </trkpt>
      <trkpt lat="44.20228" lon="1.97794">
        <ele>184.3</ele>
        <time>2019-05-11T09:48:31Z</time>
      </trkpt>
      <trkpt lat="44.20232" lon="1.97788">
        <ele>183.2</ele>
        <time>2019-05-11T09:48:35Z</time>
      </trkpt>
      <trkpt lat="44.20235" lon="1.97784">
        <ele>183.3</ele>
        <time>2019-05-11T09:48:39Z</time>
      </trkpt>
      <trkpt lat="44.2024" lon="1.97783">
        <ele>183</ele>
        <time>2019-05-11T09:48:44Z</time>
      </trkpt>
      <trkpt lat="44.20245" lon="1.9778">
        <ele>184</ele>
        <time>2019-05-11T09:48:48Z</time>
      </trkpt>
      <trkpt lat="44.20249" lon="1.97776">
        <ele>184.8</ele>
        <time>2019-05-11T09:48:51Z</time>
      </trkpt>
      <trkpt lat="44.20258" lon="1.97772">
        <ele>185.3</ele>
        <time>2019-05-11T09:49:00Z</time>
      </trkpt>
      <trkpt lat="44.20263" lon="1.97753">
        <ele>186.8</ele>
        <time>2019-05-11T09:49:11Z</time>
      </trkpt>
      <trkpt lat="44.20265" lon="1.97746">
        <ele>187</ele>
        <time>2019-05-11T09:49:14Z</time>
      </trkpt>
      <trkpt lat="44.20268" lon="1.9774">
        <ele>187.6</ele>
        <time>2019-05-11T09:49:17Z</time>
      </trkpt>
      <trkpt lat="44.20269" lon="1.97723">
        <ele>189</ele>
        <time>2019-05-11T09:49:30Z</time>
      </trkpt>
      <trkpt lat="44.2027" lon="1.97715">
        <ele>189.3</ele>
        <time>2019-05-11T09:49:34Z</time>
      </trkpt>
      <trkpt lat="44.2027" lon="1.97709">
        <ele>189.2</ele>
        <time>2019-05-11T09:49:36Z</time>
      </trkpt>
      <trkpt lat="44.20271" lon="1.97702">
        <ele>189.2</ele>
        <time>2019-05-11T09:49:39Z</time>
      </trkpt>
      <trkpt lat="44.20275" lon="1.97698">
        <ele>189.2</ele>
        <time>2019-05-11T09:49:43Z</time>
      </trkpt>
      <trkpt lat="44.20279" lon="1.97692">
        <ele>189.7</ele>
        <time>2019-05-11T09:49:47Z</time>
      </trkpt>
      <trkpt lat="44.20275" lon="1.97656">
        <ele>188.4</ele>
        <time>2019-05-11T09:50:10Z</time>
      </trkpt>
      <trkpt lat="44.20277" lon="1.9765">
        <ele>189.4</ele>
        <time>2019-05-11T09:50:16Z</time>
      </trkpt>
      <trkpt lat="44.20277" lon="1.97635">
        <ele>192.1</ele>
        <time>2019-05-11T09:50:55Z</time>
      </trkpt>
      <trkpt lat="44.20275" lon="1.97629">
        <ele>190.1</ele>
        <time>2019-05-11T09:51:02Z</time>
      </trkpt>
      <trkpt lat="44.20274" lon="1.97622">
        <ele>190.4</ele>
        <time>2019-05-11T09:51:06Z</time>
      </trkpt>
      <trkpt lat="44.20274" lon="1.97615">
        <ele>191.4</ele>
        <time>2019-05-11T09:51:09Z</time>
      </trkpt>
      <trkpt lat="44.20275" lon="1.97597">
        <ele>189.8</ele>
        <time>2019-05-11T09:51:21Z</time>
      </trkpt>
      <trkpt lat="44.20276" lon="1.97589">
        <ele>190.2</ele>
        <time>2019-05-11T09:51:26Z</time>
      </trkpt>
      <trkpt lat="44.20277" lon="1.97582">
        <ele>191.9</ele>
        <time>2019-05-11T09:51:29Z</time>
      </trkpt>
      <trkpt lat="44.20277" lon="1.97575">
        <ele>193.9</ele>
        <time>2019-05-11T09:51:35Z</time>
      </trkpt>
      <trkpt lat="44.20279" lon="1.97567">
        <ele>192.7</ele>
        <time>2019-05-11T09:51:41Z</time>
      </trkpt>
      <trkpt lat="44.2028" lon="1.97561">
        <ele>191.4</ele>
        <time>2019-05-11T09:51:46Z</time>
      </trkpt>
      <trkpt lat="44.20287" lon="1.9752">
        <ele>194.9</ele>
        <time>2019-05-11T09:52:08Z</time>
      </trkpt>
      <trkpt lat="44.20289" lon="1.97505">
        <ele>199.3</ele>
        <time>2019-05-11T09:52:19Z</time>
      </trkpt>
      <trkpt lat="44.20292" lon="1.97498">
        <ele>199.4</ele>
        <time>2019-05-11T09:52:23Z</time>
      </trkpt>
      <trkpt lat="44.20294" lon="1.97492">
        <ele>199.9</ele>
        <time>2019-05-11T09:52:27Z</time>
      </trkpt>
      <trkpt lat="44.20305" lon="1.97483">
        <ele>203.3</ele>
        <time>2019-05-11T09:53:02Z</time>
      </trkpt>
      <trkpt lat="44.2031" lon="1.9748">
        <ele>202.8</ele>
        <time>2019-05-11T09:53:07Z</time>
      </trkpt>
      <trkpt lat="44.20313" lon="1.97474">
        <ele>199.9</ele>
        <time>2019-05-11T09:53:14Z</time>
      </trkpt>
      <trkpt lat="44.20317" lon="1.97469">
        <ele>199.5</ele>
        <time>2019-05-11T09:53:19Z</time>
      </trkpt>
      <trkpt lat="44.20323" lon="1.9747">
        <ele>199.6</ele>
        <time>2019-05-11T09:53:23Z</time>
      </trkpt>
      <trkpt lat="44.20329" lon="1.9747">
        <ele>200.3</ele>
        <time>2019-05-11T09:53:26Z</time>
      </trkpt>
      <trkpt lat="44.20334" lon="1.97471">
        <ele>199.5</ele>
        <time>2019-05-11T09:53:30Z</time>
      </trkpt>
      <trkpt lat="44.20337" lon="1.97464">
        <ele>199.1</ele>
        <time>2019-05-11T09:53:37Z</time>
      </trkpt>
      <trkpt lat="44.20343" lon="1.97465">
        <ele>197.3</ele>
        <time>2019-05-11T09:53:42Z</time>
      </trkpt>
      <trkpt lat="44.20348" lon="1.97467">
        <ele>196</ele>
        <time>2019-05-11T09:53:46Z</time>
      </trkpt>
      <trkpt lat="44.20356" lon="1.9747">
        <ele>192.5</ele>
        <time>2019-05-11T09:54:08Z</time>
      </trkpt>
      <trkpt lat="44.20361" lon="1.97472">
        <ele>192.1</ele>
        <time>2019-05-11T09:54:10Z</time>
      </trkpt>
      <trkpt lat="44.20367" lon="1.97474">
        <ele>191.6</ele>
        <time>2019-05-11T09:54:13Z</time>
      </trkpt>
      <trkpt lat="44.20372" lon="1.97475">
        <ele>189.6</ele>
        <time>2019-05-11T09:54:18Z</time>
      </trkpt>
      <trkpt lat="44.20377" lon="1.97478">
        <ele>191.3</ele>
        <time>2019-05-11T09:54:26Z</time>
      </trkpt>
      <trkpt lat="44.2039" lon="1.97485">
        <ele>194.7</ele>
        <time>2019-05-11T09:54:38Z</time>
      </trkpt>
      <trkpt lat="44.20394" lon="1.97488">
        <ele>194.4</ele>
        <time>2019-05-11T09:54:40Z</time>
      </trkpt>
      <trkpt lat="44.20399" lon="1.97489">
        <ele>193.2</ele>
        <time>2019-05-11T09:54:45Z</time>
      </trkpt>
      <trkpt lat="44.20407" lon="1.97495">
        <ele>189.2</ele>
        <time>2019-05-11T09:54:55Z</time>
      </trkpt>
      <trkpt lat="44.20412" lon="1.97508">
        <ele>190.4</ele>
        <time>2019-05-11T09:55:18Z</time>
      </trkpt>
      <trkpt lat="44.20422" lon="1.97526">
        <ele>193</ele>
        <time>2019-05-11T09:55:29Z</time>
      </trkpt>
      <trkpt lat="44.20427" lon="1.97532">
        <ele>193.6</ele>
        <time>2019-05-11T09:55:32Z</time>
      </trkpt>
      <trkpt lat="44.20432" lon="1.97535">
        <ele>194.3</ele>
        <time>2019-05-11T09:55:36Z</time>
      </trkpt>
      <trkpt lat="44.20437" lon="1.97535">
        <ele>194.5</ele>
        <time>2019-05-11T09:55:38Z</time>
      </trkpt>
      <trkpt lat="44.20444" lon="1.97536">
        <ele>194.6</ele>
        <time>2019-05-11T09:55:41Z</time>
      </trkpt>
      <trkpt lat="44.20449" lon="1.97538">
        <ele>194.6</ele>
        <time>2019-05-11T09:55:43Z</time>
      </trkpt>
      <trkpt lat="44.20453" lon="1.97541">
        <ele>194.9</ele>
        <time>2019-05-11T09:55:50Z</time>
      </trkpt>
      <trkpt lat="44.20456" lon="1.97546">
        <ele>194</ele>
        <time>2019-05-11T09:55:55Z</time>
      </trkpt>
      <trkpt lat="44.20449" lon="1.97546">
        <ele>196.8</ele>
        <time>2019-05-11T09:56:25Z</time>
      </trkpt>
      <trkpt lat="44.20461" lon="1.97546">
        <ele>195.3</ele>
        <time>2019-05-11T09:57:19Z</time>
      </trkpt>
      <trkpt lat="44.20474" lon="1.9755">
        <ele>191.6</ele>
        <time>2019-05-11T09:57:30Z</time>
      </trkpt>
      <trkpt lat="44.20478" lon="1.97553">
        <ele>190.8</ele>
        <time>2019-05-11T09:57:45Z</time>
      </trkpt>
      <trkpt lat="44.20484" lon="1.97556">
        <ele>190.3</ele>
        <time>2019-05-11T09:57:50Z</time>
      </trkpt>
      <trkpt lat="44.2049" lon="1.9756">
        <ele>189.9</ele>
        <time>2019-05-11T09:57:56Z</time>
      </trkpt>
      <trkpt lat="44.20495" lon="1.97563">
        <ele>189.3</ele>
        <time>2019-05-11T09:57:59Z</time>
      </trkpt>
      <trkpt lat="44.20506" lon="1.97563">
        <ele>188.3</ele>
        <time>2019-05-11T09:58:06Z</time>
      </trkpt>
      <trkpt lat="44.2051" lon="1.97564">
        <ele>188.4</ele>
        <time>2019-05-11T09:58:09Z</time>
      </trkpt>
      <trkpt lat="44.20514" lon="1.97568">
        <ele>188.3</ele>
        <time>2019-05-11T09:58:12Z</time>
      </trkpt>
      <trkpt lat="44.20517" lon="1.97573">
        <ele>187.2</ele>
        <time>2019-05-11T09:58:15Z</time>
      </trkpt>
      <trkpt lat="44.20521" lon="1.97578">
        <ele>187.1</ele>
        <time>2019-05-11T09:58:19Z</time>
      </trkpt>
      <trkpt lat="44.20526" lon="1.97582">
        <ele>186.3</ele>
        <time>2019-05-11T09:58:23Z</time>
      </trkpt>
      <trkpt lat="44.2053" lon="1.97584">
        <ele>185.9</ele>
        <time>2019-05-11T09:58:26Z</time>
      </trkpt>
      <trkpt lat="44.20535" lon="1.97587">
        <ele>185.6</ele>
        <time>2019-05-11T09:58:32Z</time>
      </trkpt>
      <trkpt lat="44.20538" lon="1.97593">
        <ele>186.3</ele>
        <time>2019-05-11T09:58:37Z</time>
      </trkpt>
      <trkpt lat="44.20542" lon="1.97595">
        <ele>187.7</ele>
        <time>2019-05-11T09:58:41Z</time>
      </trkpt>
      <trkpt lat="44.20547" lon="1.97598">
        <ele>187.9</ele>
        <time>2019-05-11T09:58:45Z</time>
      </trkpt>
      <trkpt lat="44.20551" lon="1.97602">
        <ele>189.7</ele>
        <time>2019-05-11T09:58:51Z</time>
      </trkpt>
      <trkpt lat="44.20555" lon="1.97605">
        <ele>189.6</ele>
        <time>2019-05-11T09:58:55Z</time>
      </trkpt>
      <trkpt lat="44.2056" lon="1.97603">
        <ele>189.5</ele>
        <time>2019-05-11T09:58:59Z</time>
      </trkpt>
      <trkpt lat="44.20565" lon="1.97605">
        <ele>188.6</ele>
        <time>2019-05-11T09:59:04Z</time>
      </trkpt>
      <trkpt lat="44.20569" lon="1.97608">
        <ele>186.9</ele>
        <time>2019-05-11T09:59:08Z</time>
      </trkpt>
      <trkpt lat="44.20574" lon="1.97609">
        <ele>184.9</ele>
        <time>2019-05-11T09:59:13Z</time>
      </trkpt>
      <trkpt lat="44.20579" lon="1.9761">
        <ele>182.5</ele>
        <time>2019-05-11T09:59:22Z</time>
      </trkpt>
      <trkpt lat="44.20598" lon="1.97619">
        <ele>177.8</ele>
        <time>2019-05-11T09:59:49Z</time>
      </trkpt>
      <trkpt lat="44.20602" lon="1.97623">
        <ele>177.9</ele>
        <time>2019-05-11T09:59:53Z</time>
      </trkpt>
      <trkpt lat="44.20606" lon="1.97628">
        <ele>177.9</ele>
        <time>2019-05-11T09:59:57Z</time>
      </trkpt>
      <trkpt lat="44.20612" lon="1.97631">
        <ele>177.6</ele>
        <time>2019-05-11T10:00:00Z</time>
      </trkpt>
      <trkpt lat="44.20617" lon="1.97632">
        <ele>177.9</ele>
        <time>2019-05-11T10:00:03Z</time>
      </trkpt>
      <trkpt lat="44.20621" lon="1.97635">
        <ele>178</ele>
        <time>2019-05-11T10:00:06Z</time>
      </trkpt>
      <trkpt lat="44.20628" lon="1.97637">
        <ele>178.6</ele>
        <time>2019-05-11T10:00:09Z</time>
      </trkpt>
      <trkpt lat="44.20632" lon="1.9764">
        <ele>179.4</ele>
        <time>2019-05-11T10:00:11Z</time>
      </trkpt>
      <trkpt lat="44.20637" lon="1.97643">
        <ele>180.5</ele>
        <time>2019-05-11T10:00:15Z</time>
      </trkpt>
      <trkpt lat="44.20641" lon="1.97646">
        <ele>183.8</ele>
        <time>2019-05-11T10:00:30Z</time>
      </trkpt>
      <trkpt lat="44.20645" lon="1.9765">
        <ele>183.4</ele>
        <time>2019-05-11T10:00:36Z</time>
      </trkpt>
      <trkpt lat="44.2065" lon="1.97654">
        <ele>182</ele>
        <time>2019-05-11T10:00:39Z</time>
      </trkpt>
      <trkpt lat="44.20654" lon="1.97657">
        <ele>181.7</ele>
        <time>2019-05-11T10:00:41Z</time>
      </trkpt>
      <trkpt lat="44.20659" lon="1.97663">
        <ele>182.4</ele>
        <time>2019-05-11T10:00:44Z</time>
      </trkpt>
      <trkpt lat="44.20664" lon="1.97666">
        <ele>182.3</ele>
        <time>2019-05-11T10:00:48Z</time>
      </trkpt>
      <trkpt lat="44.20667" lon="1.9767">
        <ele>183.2</ele>
        <time>2019-05-11T10:00:53Z</time>
      </trkpt>
      <trkpt lat="44.20673" lon="1.97672">
        <ele>182.9</ele>
        <time>2019-05-11T10:00:58Z</time>
      </trkpt>
      <trkpt lat="44.20678" lon="1.97675">
        <ele>182.8</ele>
        <time>2019-05-11T10:01:02Z</time>
      </trkpt>
      <trkpt lat="44.20682" lon="1.97678">
        <ele>184.2</ele>
        <time>2019-05-11T10:01:06Z</time>
      </trkpt>
      <trkpt lat="44.20685" lon="1.97684">
        <ele>185.6</ele>
        <time>2019-05-11T10:01:11Z</time>
      </trkpt>
      <trkpt lat="44.2069" lon="1.97689">
        <ele>186.3</ele>
        <time>2019-05-11T10:01:14Z</time>
      </trkpt>
      <trkpt lat="44.20693" lon="1.97694">
        <ele>187.2</ele>
        <time>2019-05-11T10:01:17Z</time>
      </trkpt>
      <trkpt lat="44.20697" lon="1.97699">
        <ele>188.7</ele>
        <time>2019-05-11T10:01:24Z</time>
      </trkpt>
      <trkpt lat="44.207" lon="1.97706">
        <ele>189.6</ele>
        <time>2019-05-11T10:01:29Z</time>
      </trkpt>
      <trkpt lat="44.20703" lon="1.97712">
        <ele>190.5</ele>
        <time>2019-05-11T10:01:34Z</time>
      </trkpt>
      <trkpt lat="44.20706" lon="1.97717">
        <ele>190.8</ele>
        <time>2019-05-11T10:01:37Z</time>
      </trkpt>
      <trkpt lat="44.20708" lon="1.97724">
        <ele>192.1</ele>
        <time>2019-05-11T10:01:40Z</time>
      </trkpt>
      <trkpt lat="44.20713" lon="1.97729">
        <ele>192.3</ele>
        <time>2019-05-11T10:01:44Z</time>
      </trkpt>
      <trkpt lat="44.20717" lon="1.97733">
        <ele>192.9</ele>
        <time>2019-05-11T10:01:48Z</time>
      </trkpt>
      <trkpt lat="44.20719" lon="1.97739">
        <ele>192.7</ele>
        <time>2019-05-11T10:01:53Z</time>
      </trkpt>
      <trkpt lat="44.20724" lon="1.97741">
        <ele>192.4</ele>
        <time>2019-05-11T10:01:59Z</time>
      </trkpt>
      <trkpt lat="44.20724" lon="1.97748">
        <ele>191.5</ele>
        <time>2019-05-11T10:02:03Z</time>
      </trkpt>
      <trkpt lat="44.20728" lon="1.97753">
        <ele>191.7</ele>
        <time>2019-05-11T10:02:06Z</time>
      </trkpt>
      <trkpt lat="44.20736" lon="1.97756">
        <ele>194.1</ele>
        <time>2019-05-11T10:02:09Z</time>
      </trkpt>
      <trkpt lat="44.20741" lon="1.97761">
        <ele>195.3</ele>
        <time>2019-05-11T10:02:13Z</time>
      </trkpt>
      <trkpt lat="44.20741" lon="1.97768">
        <ele>197.3</ele>
        <time>2019-05-11T10:02:17Z</time>
      </trkpt>
      <trkpt lat="44.20747" lon="1.97769">
        <ele>198.2</ele>
        <time>2019-05-11T10:02:20Z</time>
      </trkpt>
      <trkpt lat="44.2075" lon="1.97775">
        <ele>198.1</ele>
        <time>2019-05-11T10:02:26Z</time>
      </trkpt>
      <trkpt lat="44.2075" lon="1.97782">
        <ele>198</ele>
        <time>2019-05-11T10:02:31Z</time>
      </trkpt>
      <trkpt lat="44.20753" lon="1.97789">
        <ele>198.5</ele>
        <time>2019-05-11T10:02:35Z</time>
      </trkpt>
      <trkpt lat="44.20758" lon="1.97789">
        <ele>198.7</ele>
        <time>2019-05-11T10:02:37Z</time>
      </trkpt>
      <trkpt lat="44.2076" lon="1.97794">
        <ele>199.5</ele>
        <time>2019-05-11T10:02:40Z</time>
      </trkpt>
      <trkpt lat="44.20765" lon="1.978">
        <ele>200.1</ele>
        <time>2019-05-11T10:02:43Z</time>
      </trkpt>
      <trkpt lat="44.20769" lon="1.97804">
        <ele>199.6</ele>
        <time>2019-05-11T10:02:46Z</time>
      </trkpt>
      <trkpt lat="44.20772" lon="1.9781">
        <ele>198.6</ele>
        <time>2019-05-11T10:02:51Z</time>
      </trkpt>
      <trkpt lat="44.20775" lon="1.97816">
        <ele>196.2</ele>
        <time>2019-05-11T10:02:59Z</time>
      </trkpt>
      <trkpt lat="44.20774" lon="1.97823">
        <ele>194.9</ele>
        <time>2019-05-11T10:03:03Z</time>
      </trkpt>
      <trkpt lat="44.20776" lon="1.9783">
        <ele>193.6</ele>
        <time>2019-05-11T10:03:09Z</time>
      </trkpt>
      <trkpt lat="44.20778" lon="1.97836">
        <ele>193.8</ele>
        <time>2019-05-11T10:03:15Z</time>
      </trkpt>
      <trkpt lat="44.20781" lon="1.97842">
        <ele>193.5</ele>
        <time>2019-05-11T10:03:21Z</time>
      </trkpt>
      <trkpt lat="44.20783" lon="1.97849">
        <ele>192.7</ele>
        <time>2019-05-11T10:03:27Z</time>
      </trkpt>
      <trkpt lat="44.20785" lon="1.97855">
        <ele>190.6</ele>
        <time>2019-05-11T10:03:32Z</time>
      </trkpt>
      <trkpt lat="44.20787" lon="1.9786">
        <ele>189.4</ele>
        <time>2019-05-11T10:03:37Z</time>
      </trkpt>
      <trkpt lat="44.20793" lon="1.9787">
        <ele>187.2</ele>
        <time>2019-05-11T10:03:46Z</time>
      </trkpt>
      <trkpt lat="44.20795" lon="1.97876">
        <ele>186.6</ele>
        <time>2019-05-11T10:03:50Z</time>
      </trkpt>
      <trkpt lat="44.20799" lon="1.97881">
        <ele>186.4</ele>
        <time>2019-05-11T10:03:54Z</time>
      </trkpt>
      <trkpt lat="44.20802" lon="1.97887">
        <ele>186.7</ele>
        <time>2019-05-11T10:03:58Z</time>
      </trkpt>
      <trkpt lat="44.20804" lon="1.97892">
        <ele>187.7</ele>
        <time>2019-05-11T10:04:03Z</time>
      </trkpt>
      <trkpt lat="44.20804" lon="1.97898">
        <ele>187.3</ele>
        <time>2019-05-11T10:04:08Z</time>
      </trkpt>
      <trkpt lat="44.20807" lon="1.97903">
        <ele>187.1</ele>
        <time>2019-05-11T10:04:12Z</time>
      </trkpt>
      <trkpt lat="44.20812" lon="1.97909">
        <ele>186.7</ele>
        <time>2019-05-11T10:04:16Z</time>
      </trkpt>
      <trkpt lat="44.20816" lon="1.97913">
        <ele>186</ele>
        <time>2019-05-11T10:04:19Z</time>
      </trkpt>
      <trkpt lat="44.20819" lon="1.97919">
        <ele>184.5</ele>
        <time>2019-05-11T10:04:25Z</time>
      </trkpt>
      <trkpt lat="44.20824" lon="1.97923">
        <ele>184.5</ele>
        <time>2019-05-11T10:04:29Z</time>
      </trkpt>
      <trkpt lat="44.2083" lon="1.97924">
        <ele>185.1</ele>
        <time>2019-05-11T10:04:32Z</time>
      </trkpt>
      <trkpt lat="44.20833" lon="1.97929">
        <ele>186.8</ele>
        <time>2019-05-11T10:04:40Z</time>
      </trkpt>
      <trkpt lat="44.20837" lon="1.97934">
        <ele>189</ele>
        <time>2019-05-11T10:04:43Z</time>
      </trkpt>
      <trkpt lat="44.20839" lon="1.9794">
        <ele>190.7</ele>
        <time>2019-05-11T10:04:46Z</time>
      </trkpt>
      <trkpt lat="44.20843" lon="1.97945">
        <ele>189.6</ele>
        <time>2019-05-11T10:05:02Z</time>
      </trkpt>
      <trkpt lat="44.20845" lon="1.97951">
        <ele>189.3</ele>
        <time>2019-05-11T10:05:50Z</time>
      </trkpt>
      <trkpt lat="44.20848" lon="1.97956">
        <ele>189.6</ele>
        <time>2019-05-11T10:05:53Z</time>
      </trkpt>
      <trkpt lat="44.20852" lon="1.97961">
        <ele>190.2</ele>
        <time>2019-05-11T10:05:56Z</time>
      </trkpt>
      <trkpt lat="44.20855" lon="1.97967">
        <ele>190.7</ele>
        <time>2019-05-11T10:05:59Z</time>
      </trkpt>
      <trkpt lat="44.20859" lon="1.97972">
        <ele>191.4</ele>
        <time>2019-05-11T10:06:01Z</time>
      </trkpt>
      <trkpt lat="44.20859" lon="1.97981">
        <ele>192</ele>
        <time>2019-05-11T10:06:04Z</time>
      </trkpt>
      <trkpt lat="44.20872" lon="1.98007">
        <ele>194</ele>
        <time>2019-05-11T10:06:17Z</time>
      </trkpt>
      <trkpt lat="44.20875" lon="1.98012">
        <ele>194.8</ele>
        <time>2019-05-11T10:06:20Z</time>
      </trkpt>
      <trkpt lat="44.20877" lon="1.98019">
        <ele>195.6</ele>
        <time>2019-05-11T10:06:24Z</time>
      </trkpt>
      <trkpt lat="44.20877" lon="1.98027">
        <ele>196.8</ele>
        <time>2019-05-11T10:06:29Z</time>
      </trkpt>
      <trkpt lat="44.20884" lon="1.98045">
        <ele>201</ele>
        <time>2019-05-11T10:06:42Z</time>
      </trkpt>
      <trkpt lat="44.20888" lon="1.9805">
        <ele>201.2</ele>
        <time>2019-05-11T10:06:45Z</time>
      </trkpt>
      <trkpt lat="44.2089" lon="1.98056">
        <ele>200.2</ele>
        <time>2019-05-11T10:06:50Z</time>
      </trkpt>
      <trkpt lat="44.20892" lon="1.98062">
        <ele>199</ele>
        <time>2019-05-11T10:07:06Z</time>
      </trkpt>
      <trkpt lat="44.20896" lon="1.98065">
        <ele>197.6</ele>
        <time>2019-05-11T10:07:18Z</time>
      </trkpt>
      <trkpt lat="44.20902" lon="1.98069">
        <ele>196.9</ele>
        <time>2019-05-11T10:07:21Z</time>
      </trkpt>
      <trkpt lat="44.20905" lon="1.98074">
        <ele>196.7</ele>
        <time>2019-05-11T10:07:24Z</time>
      </trkpt>
      <trkpt lat="44.20907" lon="1.98081">
        <ele>196.4</ele>
        <time>2019-05-11T10:07:27Z</time>
      </trkpt>
      <trkpt lat="44.20909" lon="1.98087">
        <ele>197.7</ele>
        <time>2019-05-11T10:07:32Z</time>
      </trkpt>
      <trkpt lat="44.20912" lon="1.98092">
        <ele>200.9</ele>
        <time>2019-05-11T10:07:45Z</time>
      </trkpt>
      <trkpt lat="44.20917" lon="1.98095">
        <ele>200.5</ele>
        <time>2019-05-11T10:07:47Z</time>
      </trkpt>
      <trkpt lat="44.2092" lon="1.981">
        <ele>200.8</ele>
        <time>2019-05-11T10:07:49Z</time>
      </trkpt>
      <trkpt lat="44.20926" lon="1.98108">
        <ele>200.5</ele>
        <time>2019-05-11T10:07:52Z</time>
      </trkpt>
      <trkpt lat="44.2093" lon="1.98115">
        <ele>199.7</ele>
        <time>2019-05-11T10:07:54Z</time>
      </trkpt>
      <trkpt lat="44.20934" lon="1.98121">
        <ele>199.6</ele>
        <time>2019-05-11T10:07:57Z</time>
      </trkpt>
      <trkpt lat="44.20938" lon="1.98125">
        <ele>199.3</ele>
        <time>2019-05-11T10:08:06Z</time>
      </trkpt>
      <trkpt lat="44.2094" lon="1.98132">
        <ele>197.7</ele>
        <time>2019-05-11T10:08:22Z</time>
      </trkpt>
      <trkpt lat="44.2094" lon="1.98138">
        <ele>196.4</ele>
        <time>2019-05-11T10:08:26Z</time>
      </trkpt>
      <trkpt lat="44.20945" lon="1.98143">
        <ele>195.7</ele>
        <time>2019-05-11T10:08:29Z</time>
      </trkpt>
      <trkpt lat="44.20951" lon="1.98148">
        <ele>195.9</ele>
        <time>2019-05-11T10:08:32Z</time>
      </trkpt>
      <trkpt lat="44.20954" lon="1.98154">
        <ele>195.8</ele>
        <time>2019-05-11T10:08:35Z</time>
      </trkpt>
      <trkpt lat="44.20959" lon="1.98157">
        <ele>195.4</ele>
        <time>2019-05-11T10:08:39Z</time>
      </trkpt>
      <trkpt lat="44.20963" lon="1.9816">
        <ele>193.8</ele>
        <time>2019-05-11T10:09:01Z</time>
      </trkpt>
      <trkpt lat="44.20966" lon="1.98165">
        <ele>192.7</ele>
        <time>2019-05-11T10:09:04Z</time>
      </trkpt>
      <trkpt lat="44.2097" lon="1.98169">
        <ele>192.3</ele>
        <time>2019-05-11T10:09:06Z</time>
      </trkpt>
      <trkpt lat="44.20975" lon="1.98172">
        <ele>191</ele>
        <time>2019-05-11T10:09:09Z</time>
      </trkpt>
      <trkpt lat="44.2098" lon="1.98175">
        <ele>191.3</ele>
        <time>2019-05-11T10:09:12Z</time>
      </trkpt>
      <trkpt lat="44.20984" lon="1.98179">
        <ele>191.5</ele>
        <time>2019-05-11T10:09:15Z</time>
      </trkpt>
      <trkpt lat="44.20986" lon="1.98186">
        <ele>192.2</ele>
        <time>2019-05-11T10:09:19Z</time>
      </trkpt>
      <trkpt lat="44.2099" lon="1.98192">
        <ele>192.9</ele>
        <time>2019-05-11T10:09:22Z</time>
      </trkpt>
      <trkpt lat="44.20994" lon="1.98196">
        <ele>192.3</ele>
        <time>2019-05-11T10:09:25Z</time>
      </trkpt>
      <trkpt lat="44.20998" lon="1.982">
        <ele>191.3</ele>
        <time>2019-05-11T10:09:30Z</time>
      </trkpt>
      <trkpt lat="44.21002" lon="1.98204">
        <ele>190</ele>
        <time>2019-05-11T10:09:36Z</time>
      </trkpt>
      <trkpt lat="44.21008" lon="1.9821">
        <ele>191.5</ele>
        <time>2019-05-11T10:09:57Z</time>
      </trkpt>
      <trkpt lat="44.21012" lon="1.98212">
        <ele>190.8</ele>
        <time>2019-05-11T10:10:00Z</time>
      </trkpt>
      <trkpt lat="44.21017" lon="1.98214">
        <ele>192.3</ele>
        <time>2019-05-11T10:10:03Z</time>
      </trkpt>
      <trkpt lat="44.21021" lon="1.98218">
        <ele>192.5</ele>
        <time>2019-05-11T10:10:05Z</time>
      </trkpt>
      <trkpt lat="44.21026" lon="1.98223">
        <ele>190.6</ele>
        <time>2019-05-11T10:10:07Z</time>
      </trkpt>
      <trkpt lat="44.21032" lon="1.98229">
        <ele>190.4</ele>
        <time>2019-05-11T10:10:10Z</time>
      </trkpt>
      <trkpt lat="44.21036" lon="1.98233">
        <ele>190</ele>
        <time>2019-05-11T10:10:13Z</time>
      </trkpt>
      <trkpt lat="44.2104" lon="1.98237">
        <ele>189.1</ele>
        <time>2019-05-11T10:10:16Z</time>
      </trkpt>
      <trkpt lat="44.21045" lon="1.98241">
        <ele>188</ele>
        <time>2019-05-11T10:10:19Z</time>
      </trkpt>
      <trkpt lat="44.21049" lon="1.98245">
        <ele>186.2</ele>
        <time>2019-05-11T10:10:23Z</time>
      </trkpt>
      <trkpt lat="44.21055" lon="1.98249">
        <ele>184.8</ele>
        <time>2019-05-11T10:10:27Z</time>
      </trkpt>
      <trkpt lat="44.21059" lon="1.98248">
        <ele>184.4</ele>
        <time>2019-05-11T10:10:32Z</time>
      </trkpt>
      <trkpt lat="44.21064" lon="1.98248">
        <ele>185.6</ele>
        <time>2019-05-11T10:10:37Z</time>
      </trkpt>
      <trkpt lat="44.2107" lon="1.98248">
        <ele>184.3</ele>
        <time>2019-05-11T10:10:42Z</time>
      </trkpt>
      <trkpt lat="44.21074" lon="1.98248">
        <ele>184.6</ele>
        <time>2019-05-11T10:10:46Z</time>
      </trkpt>
      <trkpt lat="44.2108" lon="1.98248">
        <ele>187.2</ele>
        <time>2019-05-11T10:10:51Z</time>
      </trkpt>
      <trkpt lat="44.21085" lon="1.98247">
        <ele>188.2</ele>
        <time>2019-05-11T10:10:55Z</time>
      </trkpt>
      <trkpt lat="44.2109" lon="1.98246">
        <ele>187.7</ele>
        <time>2019-05-11T10:10:59Z</time>
      </trkpt>
      <trkpt lat="44.21095" lon="1.98246">
        <ele>187.3</ele>
        <time>2019-05-11T10:11:03Z</time>
      </trkpt>
      <trkpt lat="44.21099" lon="1.98244">
        <ele>188.5</ele>
        <time>2019-05-11T10:11:18Z</time>
      </trkpt>
      <trkpt lat="44.21104" lon="1.98244">
        <ele>191</ele>
        <time>2019-05-11T10:11:35Z</time>
      </trkpt>
      <trkpt lat="44.21108" lon="1.98244">
        <ele>192</ele>
        <time>2019-05-11T10:11:38Z</time>
      </trkpt>
      <trkpt lat="44.21113" lon="1.98243">
        <ele>193.1</ele>
        <time>2019-05-11T10:11:42Z</time>
      </trkpt>
      <trkpt lat="44.21117" lon="1.98241">
        <ele>195.3</ele>
        <time>2019-05-11T10:11:48Z</time>
      </trkpt>
      <trkpt lat="44.21123" lon="1.98239">
        <ele>194.2</ele>
        <time>2019-05-11T10:11:53Z</time>
      </trkpt>
      <trkpt lat="44.21129" lon="1.98239">
        <ele>192.1</ele>
        <time>2019-05-11T10:11:57Z</time>
      </trkpt>
      <trkpt lat="44.21133" lon="1.98238">
        <ele>191.1</ele>
        <time>2019-05-11T10:12:01Z</time>
      </trkpt>
      <trkpt lat="44.2114" lon="1.98238">
        <ele>189.9</ele>
        <time>2019-05-11T10:12:05Z</time>
      </trkpt>
      <trkpt lat="44.21144" lon="1.98237">
        <ele>188.8</ele>
        <time>2019-05-11T10:12:08Z</time>
      </trkpt>
      <trkpt lat="44.21148" lon="1.98235">
        <ele>188.7</ele>
        <time>2019-05-11T10:12:14Z</time>
      </trkpt>
      <trkpt lat="44.21153" lon="1.98231">
        <ele>188</ele>
        <time>2019-05-11T10:12:22Z</time>
      </trkpt>
      <trkpt lat="44.21157" lon="1.98226">
        <ele>187.3</ele>
        <time>2019-05-11T10:12:27Z</time>
      </trkpt>
      <trkpt lat="44.21162" lon="1.98223">
        <ele>185.9</ele>
        <time>2019-05-11T10:12:32Z</time>
      </trkpt>
      <trkpt lat="44.21166" lon="1.9822">
        <ele>185</ele>
        <time>2019-05-11T10:12:36Z</time>
      </trkpt>
      <trkpt lat="44.2117" lon="1.98218">
        <ele>184.7</ele>
        <time>2019-05-11T10:12:40Z</time>
      </trkpt>
      <trkpt lat="44.21175" lon="1.98216">
        <ele>184.8</ele>
        <time>2019-05-11T10:12:45Z</time>
      </trkpt>
      <trkpt lat="44.2118" lon="1.98214">
        <ele>184.5</ele>
        <time>2019-05-11T10:12:49Z</time>
      </trkpt>
      <trkpt lat="44.21184" lon="1.98213">
        <ele>183.6</ele>
        <time>2019-05-11T10:12:54Z</time>
      </trkpt>
      <trkpt lat="44.2119" lon="1.98211">
        <ele>181.8</ele>
        <time>2019-05-11T10:12:59Z</time>
      </trkpt>
      <trkpt lat="44.21194" lon="1.98209">
        <ele>179.4</ele>
        <time>2019-05-11T10:13:04Z</time>
      </trkpt>
      <trkpt lat="44.21198" lon="1.98205">
        <ele>178.7</ele>
        <time>2019-05-11T10:13:08Z</time>
      </trkpt>
      <trkpt lat="44.21202" lon="1.982">
        <ele>177.9</ele>
        <time>2019-05-11T10:13:13Z</time>
      </trkpt>
      <trkpt lat="44.21207" lon="1.98201">
        <ele>176.9</ele>
        <time>2019-05-11T10:13:17Z</time>
      </trkpt>
      <trkpt lat="44.21212" lon="1.982">
        <ele>176</ele>
        <time>2019-05-11T10:13:21Z</time>
      </trkpt>
      <trkpt lat="44.21217" lon="1.98197">
        <ele>175.5</ele>
        <time>2019-05-11T10:13:25Z</time>
      </trkpt>
      <trkpt lat="44.21222" lon="1.98195">
        <ele>175.5</ele>
        <time>2019-05-11T10:13:29Z</time>
      </trkpt>
      <trkpt lat="44.21226" lon="1.98191">
        <ele>174.8</ele>
        <time>2019-05-11T10:13:34Z</time>
      </trkpt>
      <trkpt lat="44.2123" lon="1.98187">
        <ele>175.2</ele>
        <time>2019-05-11T10:13:40Z</time>
      </trkpt>
      <trkpt lat="44.21235" lon="1.98184">
        <ele>175.2</ele>
        <time>2019-05-11T10:13:45Z</time>
      </trkpt>
      <trkpt lat="44.21239" lon="1.98182">
        <ele>175.1</ele>
        <time>2019-05-11T10:13:49Z</time>
      </trkpt>
      <trkpt lat="44.21243" lon="1.98177">
        <ele>175.9</ele>
        <time>2019-05-11T10:13:53Z</time>
      </trkpt>
      <trkpt lat="44.21247" lon="1.98172">
        <ele>178.6</ele>
        <time>2019-05-11T10:13:58Z</time>
      </trkpt>
      <trkpt lat="44.21251" lon="1.98167">
        <ele>180.5</ele>
        <time>2019-05-11T10:14:02Z</time>
      </trkpt>
      <trkpt lat="44.21254" lon="1.98162">
        <ele>181.3</ele>
        <time>2019-05-11T10:14:04Z</time>
      </trkpt>
      <trkpt lat="44.21259" lon="1.9816">
        <ele>181.7</ele>
        <time>2019-05-11T10:14:09Z</time>
      </trkpt>
      <trkpt lat="44.21263" lon="1.98159">
        <ele>182</ele>
        <time>2019-05-11T10:14:12Z</time>
      </trkpt>
      <trkpt lat="44.21267" lon="1.98155">
        <ele>181.4</ele>
        <time>2019-05-11T10:14:17Z</time>
      </trkpt>
      <trkpt lat="44.21271" lon="1.98151">
        <ele>181.7</ele>
        <time>2019-05-11T10:14:21Z</time>
      </trkpt>
      <trkpt lat="44.21276" lon="1.98149">
        <ele>182</ele>
        <time>2019-05-11T10:14:24Z</time>
      </trkpt>
      <trkpt lat="44.21279" lon="1.98143">
        <ele>183</ele>
        <time>2019-05-11T10:14:29Z</time>
      </trkpt>
      <trkpt lat="44.21283" lon="1.98138">
        <ele>185.9</ele>
        <time>2019-05-11T10:14:36Z</time>
      </trkpt>
      <trkpt lat="44.21287" lon="1.98133">
        <ele>186.8</ele>
        <time>2019-05-11T10:14:40Z</time>
      </trkpt>
      <trkpt lat="44.21291" lon="1.98128">
        <ele>187.9</ele>
        <time>2019-05-11T10:14:44Z</time>
      </trkpt>
      <trkpt lat="44.21296" lon="1.98125">
        <ele>190.3</ele>
        <time>2019-05-11T10:14:49Z</time>
      </trkpt>
      <trkpt lat="44.21301" lon="1.98124">
        <ele>188.7</ele>
        <time>2019-05-11T10:14:54Z</time>
      </trkpt>
      <trkpt lat="44.21306" lon="1.98124">
        <ele>187.8</ele>
        <time>2019-05-11T10:14:56Z</time>
      </trkpt>
      <trkpt lat="44.2131" lon="1.9812">
        <ele>187.1</ele>
        <time>2019-05-11T10:14:58Z</time>
      </trkpt>
      <trkpt lat="44.21314" lon="1.98118">
        <ele>186</ele>
        <time>2019-05-11T10:15:02Z</time>
      </trkpt>
      <trkpt lat="44.21318" lon="1.98113">
        <ele>183.5</ele>
        <time>2019-05-11T10:15:08Z</time>
      </trkpt>
      <trkpt lat="44.21322" lon="1.9811">
        <ele>182.7</ele>
        <time>2019-05-11T10:15:12Z</time>
      </trkpt>
      <trkpt lat="44.21325" lon="1.98104">
        <ele>181.2</ele>
        <time>2019-05-11T10:15:19Z</time>
      </trkpt>
      <trkpt lat="44.21331" lon="1.981">
        <ele>180.8</ele>
        <time>2019-05-11T10:15:24Z</time>
      </trkpt>
      <trkpt lat="44.21335" lon="1.98095">
        <ele>180.3</ele>
        <time>2019-05-11T10:15:28Z</time>
      </trkpt>
      <trkpt lat="44.21337" lon="1.98088">
        <ele>180.3</ele>
        <time>2019-05-11T10:15:33Z</time>
      </trkpt>
      <trkpt lat="44.21341" lon="1.98083">
        <ele>181.1</ele>
        <time>2019-05-11T10:15:36Z</time>
      </trkpt>
      <trkpt lat="44.21346" lon="1.98078">
        <ele>182.7</ele>
        <time>2019-05-11T10:15:40Z</time>
      </trkpt>
      <trkpt lat="44.21349" lon="1.98073">
        <ele>183.8</ele>
        <time>2019-05-11T10:15:45Z</time>
      </trkpt>
      <trkpt lat="44.2135" lon="1.98066">
        <ele>185.5</ele>
        <time>2019-05-11T10:15:52Z</time>
      </trkpt>
      <trkpt lat="44.21354" lon="1.9806">
        <ele>185.6</ele>
        <time>2019-05-11T10:15:56Z</time>
      </trkpt>
      <trkpt lat="44.21359" lon="1.98057">
        <ele>185.1</ele>
        <time>2019-05-11T10:16:02Z</time>
      </trkpt>
      <trkpt lat="44.21364" lon="1.98056">
        <ele>184.5</ele>
        <time>2019-05-11T10:16:06Z</time>
      </trkpt>
      <trkpt lat="44.21367" lon="1.9805">
        <ele>185.1</ele>
        <time>2019-05-11T10:16:11Z</time>
      </trkpt>
      <trkpt lat="44.21371" lon="1.98046">
        <ele>186.4</ele>
        <time>2019-05-11T10:16:17Z</time>
      </trkpt>
      <trkpt lat="44.21376" lon="1.98043">
        <ele>188.1</ele>
        <time>2019-05-11T10:16:22Z</time>
      </trkpt>
      <trkpt lat="44.2138" lon="1.9804">
        <ele>187.7</ele>
        <time>2019-05-11T10:16:25Z</time>
      </trkpt>
      <trkpt lat="44.21384" lon="1.98037">
        <ele>186.5</ele>
        <time>2019-05-11T10:16:31Z</time>
      </trkpt>
      <trkpt lat="44.21389" lon="1.98034">
        <ele>186.6</ele>
        <time>2019-05-11T10:16:35Z</time>
      </trkpt>
      <trkpt lat="44.21393" lon="1.9803">
        <ele>187.1</ele>
        <time>2019-05-11T10:16:39Z</time>
      </trkpt>
      <trkpt lat="44.21397" lon="1.98026">
        <ele>187.2</ele>
        <time>2019-05-11T10:16:43Z</time>
      </trkpt>
      <trkpt lat="44.21401" lon="1.98022">
        <ele>187.1</ele>
        <time>2019-05-11T10:16:48Z</time>
      </trkpt>
      <trkpt lat="44.21421" lon="1.97999">
        <ele>183.3</ele>
        <time>2019-05-11T10:17:19Z</time>
      </trkpt>
      <trkpt lat="44.21425" lon="1.97996">
        <ele>185.6</ele>
        <time>2019-05-11T10:17:21Z</time>
      </trkpt>
      <trkpt lat="44.2143" lon="1.9799">
        <ele>189</ele>
        <time>2019-05-11T10:17:24Z</time>
      </trkpt>
      <trkpt lat="44.21433" lon="1.97986">
        <ele>193.2</ele>
        <time>2019-05-11T10:17:29Z</time>
      </trkpt>
      <trkpt lat="44.21436" lon="1.9798">
        <ele>194.7</ele>
        <time>2019-05-11T10:17:35Z</time>
      </trkpt>
      <trkpt lat="44.2144" lon="1.97976">
        <ele>195.5</ele>
        <time>2019-05-11T10:17:40Z</time>
      </trkpt>
      <trkpt lat="44.21444" lon="1.97972">
        <ele>195.6</ele>
        <time>2019-05-11T10:17:44Z</time>
      </trkpt>
      <trkpt lat="44.21448" lon="1.97968">
        <ele>195.8</ele>
        <time>2019-05-11T10:17:49Z</time>
      </trkpt>
      <trkpt lat="44.21452" lon="1.97964">
        <ele>195.5</ele>
        <time>2019-05-11T10:17:53Z</time>
      </trkpt>
      <trkpt lat="44.21456" lon="1.97959">
        <ele>194.9</ele>
        <time>2019-05-11T10:17:59Z</time>
      </trkpt>
      <trkpt lat="44.2146" lon="1.97954">
        <ele>194.7</ele>
        <time>2019-05-11T10:18:04Z</time>
      </trkpt>
      <trkpt lat="44.21462" lon="1.97948">
        <ele>192.7</ele>
        <time>2019-05-11T10:18:11Z</time>
      </trkpt>
      <trkpt lat="44.21465" lon="1.97942">
        <ele>191.1</ele>
        <time>2019-05-11T10:18:16Z</time>
      </trkpt>
      <trkpt lat="44.21468" lon="1.97936">
        <ele>190.8</ele>
        <time>2019-05-11T10:18:19Z</time>
      </trkpt>
      <trkpt lat="44.21476" lon="1.97922">
        <ele>192.7</ele>
        <time>2019-05-11T10:18:30Z</time>
      </trkpt>
      <trkpt lat="44.21477" lon="1.97914">
        <ele>193.5</ele>
        <time>2019-05-11T10:18:33Z</time>
      </trkpt>
      <trkpt lat="44.21478" lon="1.97907">
        <ele>193.8</ele>
        <time>2019-05-11T10:18:37Z</time>
      </trkpt>
      <trkpt lat="44.2148" lon="1.97888">
        <ele>192.9</ele>
        <time>2019-05-11T10:18:47Z</time>
      </trkpt>
      <trkpt lat="44.21483" lon="1.97882">
        <ele>192.1</ele>
        <time>2019-05-11T10:18:53Z</time>
      </trkpt>
      <trkpt lat="44.21484" lon="1.97875">
        <ele>191.7</ele>
        <time>2019-05-11T10:18:57Z</time>
      </trkpt>
      <trkpt lat="44.21486" lon="1.97869">
        <ele>190.9</ele>
        <time>2019-05-11T10:19:02Z</time>
      </trkpt>
      <trkpt lat="44.21487" lon="1.97862">
        <ele>189.7</ele>
        <time>2019-05-11T10:19:07Z</time>
      </trkpt>
      <trkpt lat="44.21486" lon="1.97855">
        <ele>189.5</ele>
        <time>2019-05-11T10:19:09Z</time>
      </trkpt>
      <trkpt lat="44.21486" lon="1.97848">
        <ele>189.7</ele>
        <time>2019-05-11T10:19:13Z</time>
      </trkpt>
      <trkpt lat="44.21487" lon="1.97842">
        <ele>190.1</ele>
        <time>2019-05-11T10:19:16Z</time>
      </trkpt>
      <trkpt lat="44.21487" lon="1.97836">
        <ele>191.1</ele>
        <time>2019-05-11T10:19:18Z</time>
      </trkpt>
      <trkpt lat="44.21489" lon="1.97829">
        <ele>193.1</ele>
        <time>2019-05-11T10:19:25Z</time>
      </trkpt>
      <trkpt lat="44.21494" lon="1.97826">
        <ele>193.4</ele>
        <time>2019-05-11T10:19:30Z</time>
      </trkpt>
      <trkpt lat="44.21496" lon="1.9782">
        <ele>192.9</ele>
        <time>2019-05-11T10:19:36Z</time>
      </trkpt>
      <trkpt lat="44.21496" lon="1.97814">
        <ele>193.1</ele>
        <time>2019-05-11T10:19:39Z</time>
      </trkpt>
      <trkpt lat="44.21496" lon="1.97808">
        <ele>194.2</ele>
        <time>2019-05-11T10:19:41Z</time>
      </trkpt>
      <trkpt lat="44.21498" lon="1.97801">
        <ele>195.5</ele>
        <time>2019-05-11T10:19:44Z</time>
      </trkpt>
      <trkpt lat="44.215" lon="1.97796">
        <ele>196</ele>
        <time>2019-05-11T10:19:46Z</time>
      </trkpt>
      <trkpt lat="44.21503" lon="1.9779">
        <ele>196.4</ele>
        <time>2019-05-11T10:19:51Z</time>
      </trkpt>
      <trkpt lat="44.21505" lon="1.97784">
        <ele>195.8</ele>
        <time>2019-05-11T10:19:55Z</time>
      </trkpt>
      <trkpt lat="44.21508" lon="1.97778">
        <ele>194.8</ele>
        <time>2019-05-11T10:19:59Z</time>
      </trkpt>
      <trkpt lat="44.2151" lon="1.97773">
        <ele>194.3</ele>
        <time>2019-05-11T10:20:04Z</time>
      </trkpt>
      <trkpt lat="44.21511" lon="1.97765">
        <ele>194.1</ele>
        <time>2019-05-11T10:20:08Z</time>
      </trkpt>
      <trkpt lat="44.21512" lon="1.97757">
        <ele>193.8</ele>
        <time>2019-05-11T10:20:12Z</time>
      </trkpt>
      <trkpt lat="44.21512" lon="1.97751">
        <ele>193.4</ele>
        <time>2019-05-11T10:20:14Z</time>
      </trkpt>
      <trkpt lat="44.21518" lon="1.97734">
        <ele>192.5</ele>
        <time>2019-05-11T10:20:29Z</time>
      </trkpt>
      <trkpt lat="44.2152" lon="1.97728">
        <ele>193.9</ele>
        <time>2019-05-11T10:20:32Z</time>
      </trkpt>
      <trkpt lat="44.21523" lon="1.97722">
        <ele>195.6</ele>
        <time>2019-05-11T10:20:36Z</time>
      </trkpt>
      <trkpt lat="44.21526" lon="1.97717">
        <ele>196.7</ele>
        <time>2019-05-11T10:20:41Z</time>
      </trkpt>
      <trkpt lat="44.21529" lon="1.97711">
        <ele>196.4</ele>
        <time>2019-05-11T10:20:46Z</time>
      </trkpt>
      <trkpt lat="44.21529" lon="1.97704">
        <ele>194.9</ele>
        <time>2019-05-11T10:20:51Z</time>
      </trkpt>
      <trkpt lat="44.21531" lon="1.97698">
        <ele>194.1</ele>
        <time>2019-05-11T10:20:55Z</time>
      </trkpt>
      <trkpt lat="44.21535" lon="1.97692">
        <ele>193.6</ele>
        <time>2019-05-11T10:21:00Z</time>
      </trkpt>
      <trkpt lat="44.21537" lon="1.97686">
        <ele>192.4</ele>
        <time>2019-05-11T10:21:05Z</time>
      </trkpt>
      <trkpt lat="44.21537" lon="1.97679">
        <ele>190.7</ele>
        <time>2019-05-11T10:21:12Z</time>
      </trkpt>
      <trkpt lat="44.21539" lon="1.97672">
        <ele>189.8</ele>
        <time>2019-05-11T10:21:17Z</time>
      </trkpt>
      <trkpt lat="44.2154" lon="1.97666">
        <ele>188.1</ele>
        <time>2019-05-11T10:21:23Z</time>
      </trkpt>
      <trkpt lat="44.21541" lon="1.97658">
        <ele>188.5</ele>
        <time>2019-05-11T10:21:28Z</time>
      </trkpt>
      <trkpt lat="44.21544" lon="1.9765">
        <ele>190.3</ele>
        <time>2019-05-11T10:21:38Z</time>
      </trkpt>
      <trkpt lat="44.21548" lon="1.97647">
        <ele>194.7</ele>
        <time>2019-05-11T10:21:47Z</time>
      </trkpt>
      <trkpt lat="44.21552" lon="1.97638">
        <ele>198.3</ele>
        <time>2019-05-11T10:27:36Z</time>
      </trkpt>
      <trkpt lat="44.21556" lon="1.97634">
        <ele>197.9</ele>
        <time>2019-05-11T10:27:42Z</time>
      </trkpt>
      <trkpt lat="44.2156" lon="1.9763">
        <ele>196.2</ele>
        <time>2019-05-11T10:27:48Z</time>
      </trkpt>
      <trkpt lat="44.21563" lon="1.97625">
        <ele>195.7</ele>
        <time>2019-05-11T10:27:53Z</time>
      </trkpt>
      <trkpt lat="44.21566" lon="1.97619">
        <ele>194.9</ele>
        <time>2019-05-11T10:27:58Z</time>
      </trkpt>
      <trkpt lat="44.21569" lon="1.97615">
        <ele>194.8</ele>
        <time>2019-05-11T10:28:06Z</time>
      </trkpt>
      <trkpt lat="44.21572" lon="1.97609">
        <ele>195.3</ele>
        <time>2019-05-11T10:28:19Z</time>
      </trkpt>
      <trkpt lat="44.21574" lon="1.97603">
        <ele>194.6</ele>
        <time>2019-05-11T10:28:23Z</time>
      </trkpt>
      <trkpt lat="44.21576" lon="1.97596">
        <ele>194.8</ele>
        <time>2019-05-11T10:28:27Z</time>
      </trkpt>
      <trkpt lat="44.2158" lon="1.97593">
        <ele>195.8</ele>
        <time>2019-05-11T10:28:37Z</time>
      </trkpt>
      <trkpt lat="44.21583" lon="1.97586">
        <ele>198.9</ele>
        <time>2019-05-11T10:31:55Z</time>
      </trkpt>
      <trkpt lat="44.21584" lon="1.9758">
        <ele>199.8</ele>
        <time>2019-05-11T10:32:01Z</time>
      </trkpt>
      <trkpt lat="44.21586" lon="1.97574">
        <ele>201</ele>
        <time>2019-05-11T10:32:15Z</time>
      </trkpt>
      <trkpt lat="44.21589" lon="1.97567">
        <ele>200.5</ele>
        <time>2019-05-11T10:32:21Z</time>
      </trkpt>
      <trkpt lat="44.21591" lon="1.97561">
        <ele>200.9</ele>
        <time>2019-05-11T10:32:26Z</time>
      </trkpt>
      <trkpt lat="44.21595" lon="1.97557">
        <ele>202.1</ele>
        <time>2019-05-11T10:32:30Z</time>
      </trkpt>
      <trkpt lat="44.216" lon="1.97555">
        <ele>202.2</ele>
        <time>2019-05-11T10:32:35Z</time>
      </trkpt>
      <trkpt lat="44.21605" lon="1.97556">
        <ele>200.9</ele>
        <time>2019-05-11T10:32:40Z</time>
      </trkpt>
      <trkpt lat="44.2161" lon="1.97557">
        <ele>199.2</ele>
        <time>2019-05-11T10:32:47Z</time>
      </trkpt>
      <trkpt lat="44.21615" lon="1.97557">
        <ele>198.6</ele>
        <time>2019-05-11T10:32:51Z</time>
      </trkpt>
      <trkpt lat="44.2162" lon="1.97555">
        <ele>198.4</ele>
        <time>2019-05-11T10:32:55Z</time>
      </trkpt>
      <trkpt lat="44.21625" lon="1.97553">
        <ele>201.2</ele>
        <time>2019-05-11T10:33:25Z</time>
      </trkpt>
      <trkpt lat="44.2163" lon="1.97553">
        <ele>202.1</ele>
        <time>2019-05-11T10:33:29Z</time>
      </trkpt>
      <trkpt lat="44.21635" lon="1.97553">
        <ele>202.4</ele>
        <time>2019-05-11T10:33:33Z</time>
      </trkpt>
      <trkpt lat="44.2164" lon="1.97553">
        <ele>204.2</ele>
        <time>2019-05-11T10:33:37Z</time>
      </trkpt>
      <trkpt lat="44.21645" lon="1.97553">
        <ele>205</ele>
        <time>2019-05-11T10:33:41Z</time>
      </trkpt>
      <trkpt lat="44.21649" lon="1.97555">
        <ele>204.9</ele>
        <time>2019-05-11T10:33:45Z</time>
      </trkpt>
      <trkpt lat="44.21653" lon="1.97559">
        <ele>205.1</ele>
        <time>2019-05-11T10:33:50Z</time>
      </trkpt>
      <trkpt lat="44.21655" lon="1.97564">
        <ele>206.5</ele>
        <time>2019-05-11T10:33:55Z</time>
      </trkpt>
      <trkpt lat="44.21658" lon="1.9757">
        <ele>207.9</ele>
        <time>2019-05-11T10:34:00Z</time>
      </trkpt>
      <trkpt lat="44.2166" lon="1.97576">
        <ele>212.7</ele>
        <time>2019-05-11T10:34:20Z</time>
      </trkpt>
      <trkpt lat="44.21661" lon="1.97582">
        <ele>213</ele>
        <time>2019-05-11T10:34:24Z</time>
      </trkpt>
      <trkpt lat="44.21664" lon="1.97588">
        <ele>216.1</ele>
        <time>2019-05-11T10:34:32Z</time>
      </trkpt>
      <trkpt lat="44.21667" lon="1.97593">
        <ele>215.8</ele>
        <time>2019-05-11T10:34:36Z</time>
      </trkpt>
      <trkpt lat="44.21671" lon="1.97598">
        <ele>215.7</ele>
        <time>2019-05-11T10:34:42Z</time>
      </trkpt>
      <trkpt lat="44.21673" lon="1.97603">
        <ele>219.7</ele>
        <time>2019-05-11T10:34:55Z</time>
      </trkpt>
      <trkpt lat="44.21676" lon="1.97609">
        <ele>223</ele>
        <time>2019-05-11T10:35:05Z</time>
      </trkpt>
      <trkpt lat="44.21678" lon="1.97614">
        <ele>224.4</ele>
        <time>2019-05-11T10:35:25Z</time>
      </trkpt>
      <trkpt lat="44.21681" lon="1.97619">
        <ele>223.7</ele>
        <time>2019-05-11T10:35:35Z</time>
      </trkpt>
      <trkpt lat="44.21683" lon="1.97625">
        <ele>223.9</ele>
        <time>2019-05-11T10:35:42Z</time>
      </trkpt>
      <trkpt lat="44.21687" lon="1.9763">
        <ele>224</ele>
        <time>2019-05-11T10:35:46Z</time>
      </trkpt>
      <trkpt lat="44.21691" lon="1.97636">
        <ele>225.1</ele>
        <time>2019-05-11T10:35:50Z</time>
      </trkpt>
      <trkpt lat="44.21695" lon="1.97639">
        <ele>226</ele>
        <time>2019-05-11T10:35:53Z</time>
      </trkpt>
      <trkpt lat="44.217" lon="1.97641">
        <ele>226.8</ele>
        <time>2019-05-11T10:35:58Z</time>
      </trkpt>
      <trkpt lat="44.21706" lon="1.9764">
        <ele>226.2</ele>
        <time>2019-05-11T10:36:03Z</time>
      </trkpt>
      <trkpt lat="44.21711" lon="1.97642">
        <ele>225.2</ele>
        <time>2019-05-11T10:36:05Z</time>
      </trkpt>
      <trkpt lat="44.21713" lon="1.97647">
        <ele>224.4</ele>
        <time>2019-05-11T10:36:12Z</time>
      </trkpt>
      <trkpt lat="44.21718" lon="1.97651">
        <ele>224.8</ele>
        <time>2019-05-11T10:36:20Z</time>
      </trkpt>
      <trkpt lat="44.21722" lon="1.97653">
        <ele>227.3</ele>
        <time>2019-05-11T10:36:25Z</time>
      </trkpt>
      <trkpt lat="44.21728" lon="1.97653">
        <ele>230.3</ele>
        <time>2019-05-11T10:36:29Z</time>
      </trkpt>
      <trkpt lat="44.21731" lon="1.97658">
        <ele>232.4</ele>
        <time>2019-05-11T10:36:33Z</time>
      </trkpt>
      <trkpt lat="44.21734" lon="1.97663">
        <ele>233.7</ele>
        <time>2019-05-11T10:36:38Z</time>
      </trkpt>
      <trkpt lat="44.21735" lon="1.97669">
        <ele>233.7</ele>
        <time>2019-05-11T10:36:42Z</time>
      </trkpt>
      <trkpt lat="44.2174" lon="1.97673">
        <ele>230.3</ele>
        <time>2019-05-11T10:37:12Z</time>
      </trkpt>
      <trkpt lat="44.21746" lon="1.97675">
        <ele>230.5</ele>
        <time>2019-05-11T10:37:15Z</time>
      </trkpt>
      <trkpt lat="44.21751" lon="1.97681">
        <ele>230.7</ele>
        <time>2019-05-11T10:37:18Z</time>
      </trkpt>
      <trkpt lat="44.21754" lon="1.97688">
        <ele>231.9</ele>
        <time>2019-05-11T10:37:21Z</time>
      </trkpt>
      <trkpt lat="44.21756" lon="1.97694">
        <ele>232.4</ele>
        <time>2019-05-11T10:37:25Z</time>
      </trkpt>
      <trkpt lat="44.21757" lon="1.97701">
        <ele>231.7</ele>
        <time>2019-05-11T10:37:30Z</time>
      </trkpt>
      <trkpt lat="44.21759" lon="1.97707">
        <ele>232.2</ele>
        <time>2019-05-11T10:37:38Z</time>
      </trkpt>
      <trkpt lat="44.21762" lon="1.97713">
        <ele>231.7</ele>
        <time>2019-05-11T10:38:03Z</time>
      </trkpt>
      <trkpt lat="44.21767" lon="1.97717">
        <ele>231.5</ele>
        <time>2019-05-11T10:38:12Z</time>
      </trkpt>
      <trkpt lat="44.2177" lon="1.97722">
        <ele>232.5</ele>
        <time>2019-05-11T10:38:15Z</time>
      </trkpt>
      <trkpt lat="44.21772" lon="1.97728">
        <ele>232.5</ele>
        <time>2019-05-11T10:38:20Z</time>
      </trkpt>
      <trkpt lat="44.21774" lon="1.97734">
        <ele>234.2</ele>
        <time>2019-05-11T10:38:27Z</time>
      </trkpt>
      <trkpt lat="44.21774" lon="1.97743">
        <ele>237.9</ele>
        <time>2019-05-11T10:39:07Z</time>
      </trkpt>
      <trkpt lat="44.21782" lon="1.97759">
        <ele>244.4</ele>
        <time>2019-05-11T10:39:17Z</time>
      </trkpt>
      <trkpt lat="44.21782" lon="1.97765">
        <ele>245</ele>
        <time>2019-05-11T10:39:23Z</time>
      </trkpt>
      <trkpt lat="44.21785" lon="1.97771">
        <ele>243.6</ele>
        <time>2019-05-11T10:39:33Z</time>
      </trkpt>
      <trkpt lat="44.21787" lon="1.97778">
        <ele>244.6</ele>
        <time>2019-05-11T10:39:36Z</time>
      </trkpt>
      <trkpt lat="44.21793" lon="1.97783">
        <ele>245.8</ele>
        <time>2019-05-11T10:39:39Z</time>
      </trkpt>
      <trkpt lat="44.21796" lon="1.97787">
        <ele>247.1</ele>
        <time>2019-05-11T10:39:43Z</time>
      </trkpt>
      <trkpt lat="44.21801" lon="1.9779">
        <ele>248.7</ele>
        <time>2019-05-11T10:39:48Z</time>
      </trkpt>
      <trkpt lat="44.21803" lon="1.97796">
        <ele>244.5</ele>
        <time>2019-05-11T10:39:50Z</time>
      </trkpt>
      <trkpt lat="44.21805" lon="1.97802">
        <ele>241.7</ele>
        <time>2019-05-11T10:39:55Z</time>
      </trkpt>
      <trkpt lat="44.21809" lon="1.97807">
        <ele>241.1</ele>
        <time>2019-05-11T10:40:03Z</time>
      </trkpt>
      <trkpt lat="44.21814" lon="1.97809">
        <ele>241.8</ele>
        <time>2019-05-11T10:40:06Z</time>
      </trkpt>
      <trkpt lat="44.21818" lon="1.97813">
        <ele>242.7</ele>
        <time>2019-05-11T10:40:09Z</time>
      </trkpt>
      <trkpt lat="44.21823" lon="1.97817">
        <ele>243.2</ele>
        <time>2019-05-11T10:40:13Z</time>
      </trkpt>
      <trkpt lat="44.21828" lon="1.97819">
        <ele>243</ele>
        <time>2019-05-11T10:40:18Z</time>
      </trkpt>
      <trkpt lat="44.2183" lon="1.97826">
        <ele>243.6</ele>
        <time>2019-05-11T10:40:22Z</time>
      </trkpt>
      <trkpt lat="44.2183" lon="1.97833">
        <ele>243.8</ele>
        <time>2019-05-11T10:40:26Z</time>
      </trkpt>
      <trkpt lat="44.21831" lon="1.97841">
        <ele>243.7</ele>
        <time>2019-05-11T10:40:30Z</time>
      </trkpt>
      <trkpt lat="44.2183" lon="1.97849">
        <ele>244.7</ele>
        <time>2019-05-11T10:40:34Z</time>
      </trkpt>
      <trkpt lat="44.21835" lon="1.97868">
        <ele>247.5</ele>
        <time>2019-05-11T10:40:46Z</time>
      </trkpt>
      <trkpt lat="44.21839" lon="1.97874">
        <ele>248.9</ele>
        <time>2019-05-11T10:40:51Z</time>
      </trkpt>
      <trkpt lat="44.21839" lon="1.97881">
        <ele>249.1</ele>
        <time>2019-05-11T10:41:05Z</time>
      </trkpt>
      <trkpt lat="44.21836" lon="1.97887">
        <ele>249.4</ele>
        <time>2019-05-11T10:41:09Z</time>
      </trkpt>
      <trkpt lat="44.21841" lon="1.979">
        <ele>250.1</ele>
        <time>2019-05-11T10:41:43Z</time>
      </trkpt>
      <trkpt lat="44.21841" lon="1.97906">
        <ele>248.7</ele>
        <time>2019-05-11T10:41:50Z</time>
      </trkpt>
      <trkpt lat="44.21843" lon="1.97914">
        <ele>248.3</ele>
        <time>2019-05-11T10:41:59Z</time>
      </trkpt>
      <trkpt lat="44.21847" lon="1.97919">
        <ele>250</ele>
        <time>2019-05-11T10:42:02Z</time>
      </trkpt>
      <trkpt lat="44.21847" lon="1.97926">
        <ele>252.7</ele>
        <time>2019-05-11T10:42:07Z</time>
      </trkpt>
      <trkpt lat="44.21852" lon="1.97928">
        <ele>252.7</ele>
        <time>2019-05-11T10:42:19Z</time>
      </trkpt>
      <trkpt lat="44.21858" lon="1.97929">
        <ele>251</ele>
        <time>2019-05-11T10:44:28Z</time>
      </trkpt>
      <trkpt lat="44.21859" lon="1.97922">
        <ele>253.1</ele>
        <time>2019-05-11T10:45:07Z</time>
      </trkpt>
      <trkpt lat="44.21865" lon="1.979">
        <ele>251.2</ele>
        <time>2019-05-11T10:45:44Z</time>
      </trkpt>
      <trkpt lat="44.21869" lon="1.97895">
        <ele>248.8</ele>
        <time>2019-05-11T10:45:50Z</time>
      </trkpt>
      <trkpt lat="44.21871" lon="1.97888">
        <ele>247.1</ele>
        <time>2019-05-11T10:45:55Z</time>
      </trkpt>
      <trkpt lat="44.21873" lon="1.97882">
        <ele>244.7</ele>
        <time>2019-05-11T10:46:16Z</time>
      </trkpt>
      <trkpt lat="44.21875" lon="1.97875">
        <ele>245.2</ele>
        <time>2019-05-11T10:46:21Z</time>
      </trkpt>
      <trkpt lat="44.21878" lon="1.97869">
        <ele>242.7</ele>
        <time>2019-05-11T10:46:25Z</time>
      </trkpt>
      <trkpt lat="44.21881" lon="1.97864">
        <ele>241.8</ele>
        <time>2019-05-11T10:46:29Z</time>
      </trkpt>
      <trkpt lat="44.2188" lon="1.97858">
        <ele>241.4</ele>
        <time>2019-05-11T10:46:37Z</time>
      </trkpt>
      <trkpt lat="44.21878" lon="1.97852">
        <ele>244.1</ele>
        <time>2019-05-11T10:46:47Z</time>
      </trkpt>
      <trkpt lat="44.21877" lon="1.97845">
        <ele>248.4</ele>
        <time>2019-05-11T10:46:59Z</time>
      </trkpt>
      <trkpt lat="44.21875" lon="1.97839">
        <ele>250.6</ele>
        <time>2019-05-11T10:47:09Z</time>
      </trkpt>
      <trkpt lat="44.21874" lon="1.97831">
        <ele>251</ele>
        <time>2019-05-11T10:47:13Z</time>
      </trkpt>
      <trkpt lat="44.21874" lon="1.97824">
        <ele>251.7</ele>
        <time>2019-05-11T10:47:16Z</time>
      </trkpt>
      <trkpt lat="44.21873" lon="1.97817">
        <ele>252.1</ele>
        <time>2019-05-11T10:47:20Z</time>
      </trkpt>
      <trkpt lat="44.21873" lon="1.9781">
        <ele>255.1</ele>
        <time>2019-05-11T10:47:25Z</time>
      </trkpt>
      <trkpt lat="44.21874" lon="1.97802">
        <ele>259.9</ele>
        <time>2019-05-11T10:47:37Z</time>
      </trkpt>
      <trkpt lat="44.21869" lon="1.97798">
        <ele>260.9</ele>
        <time>2019-05-11T10:47:44Z</time>
      </trkpt>
      <trkpt lat="44.21866" lon="1.97793">
        <ele>261.8</ele>
        <time>2019-05-11T10:47:49Z</time>
      </trkpt>
      <trkpt lat="44.21866" lon="1.97786">
        <ele>262</ele>
        <time>2019-05-11T10:47:55Z</time>
      </trkpt>
      <trkpt lat="44.21866" lon="1.97778">
        <ele>262.8</ele>
        <time>2019-05-11T10:48:03Z</time>
      </trkpt>
      <trkpt lat="44.21866" lon="1.97772">
        <ele>263.7</ele>
        <time>2019-05-11T10:48:08Z</time>
      </trkpt>
      <trkpt lat="44.21863" lon="1.97766">
        <ele>266.1</ele>
        <time>2019-05-11T10:48:14Z</time>
      </trkpt>
      <trkpt lat="44.21862" lon="1.9776">
        <ele>267</ele>
        <time>2019-05-11T10:48:22Z</time>
      </trkpt>
      <trkpt lat="44.21863" lon="1.97754">
        <ele>265.5</ele>
        <time>2019-05-11T10:48:30Z</time>
      </trkpt>
      <trkpt lat="44.21861" lon="1.97747">
        <ele>266.1</ele>
        <time>2019-05-11T10:48:40Z</time>
      </trkpt>
      <trkpt lat="44.21861" lon="1.97739">
        <ele>265.7</ele>
        <time>2019-05-11T10:48:46Z</time>
      </trkpt>
      <trkpt lat="44.21859" lon="1.97733">
        <ele>267.1</ele>
        <time>2019-05-11T10:48:51Z</time>
      </trkpt>
      <trkpt lat="44.21858" lon="1.97726">
        <ele>268.8</ele>
        <time>2019-05-11T10:48:57Z</time>
      </trkpt>
      <trkpt lat="44.21856" lon="1.9772">
        <ele>272</ele>
        <time>2019-05-11T10:49:06Z</time>
      </trkpt>
      <trkpt lat="44.21856" lon="1.97713">
        <ele>273.9</ele>
        <time>2019-05-11T10:49:12Z</time>
      </trkpt>
      <trkpt lat="44.21854" lon="1.97707">
        <ele>274.5</ele>
        <time>2019-05-11T10:49:19Z</time>
      </trkpt>
      <trkpt lat="44.21855" lon="1.977">
        <ele>274.5</ele>
        <time>2019-05-11T10:49:27Z</time>
      </trkpt>
      <trkpt lat="44.21856" lon="1.97693">
        <ele>275.1</ele>
        <time>2019-05-11T10:49:35Z</time>
      </trkpt>
      <trkpt lat="44.21853" lon="1.97688">
        <ele>275.3</ele>
        <time>2019-05-11T10:49:43Z</time>
      </trkpt>
      <trkpt lat="44.21852" lon="1.97681">
        <ele>275</ele>
        <time>2019-05-11T10:49:49Z</time>
      </trkpt>
      <trkpt lat="44.21851" lon="1.97675">
        <ele>276.4</ele>
        <time>2019-05-11T10:49:54Z</time>
      </trkpt>
      <trkpt lat="44.21851" lon="1.97668">
        <ele>284.6</ele>
        <time>2019-05-11T10:50:35Z</time>
      </trkpt>
      <trkpt lat="44.21856" lon="1.97668">
        <ele>281.8</ele>
        <time>2019-05-11T10:54:16Z</time>
      </trkpt>
      <trkpt lat="44.21857" lon="1.97661">
        <ele>282.9</ele>
        <time>2019-05-11T10:54:21Z</time>
      </trkpt>
      <trkpt lat="44.21862" lon="1.97645">
        <ele>281.9</ele>
        <time>2019-05-11T10:54:41Z</time>
      </trkpt>
      <trkpt lat="44.21865" lon="1.97639">
        <ele>282.4</ele>
        <time>2019-05-11T10:54:46Z</time>
      </trkpt>
      <trkpt lat="44.21864" lon="1.97632">
        <ele>283.9</ele>
        <time>2019-05-11T10:55:01Z</time>
      </trkpt>
      <trkpt lat="44.21863" lon="1.97625">
        <ele>284.1</ele>
        <time>2019-05-11T10:55:07Z</time>
      </trkpt>
      <trkpt lat="44.2186" lon="1.97618">
        <ele>285</ele>
        <time>2019-05-11T10:55:10Z</time>
      </trkpt>
      <trkpt lat="44.21855" lon="1.97615">
        <ele>286.1</ele>
        <time>2019-05-11T10:55:13Z</time>
      </trkpt>
      <trkpt lat="44.21848" lon="1.97596">
        <ele>293.7</ele>
        <time>2019-05-11T10:55:24Z</time>
      </trkpt>
      <trkpt lat="44.21844" lon="1.97592">
        <ele>294.9</ele>
        <time>2019-05-11T10:55:34Z</time>
      </trkpt>
      <trkpt lat="44.21845" lon="1.97586">
        <ele>294.2</ele>
        <time>2019-05-11T10:55:39Z</time>
      </trkpt>
      <trkpt lat="44.21842" lon="1.9758">
        <ele>293.3</ele>
        <time>2019-05-11T10:56:43Z</time>
      </trkpt>
      <trkpt lat="44.21838" lon="1.97573">
        <ele>293.5</ele>
        <time>2019-05-11T10:56:45Z</time>
      </trkpt>
      <trkpt lat="44.21836" lon="1.97563">
        <ele>293.5</ele>
        <time>2019-05-11T10:56:48Z</time>
      </trkpt>
      <trkpt lat="44.21835" lon="1.97554">
        <ele>294</ele>
        <time>2019-05-11T10:56:51Z</time>
      </trkpt>
      <trkpt lat="44.21832" lon="1.97549">
        <ele>294.2</ele>
        <time>2019-05-11T10:56:54Z</time>
      </trkpt>
      <trkpt lat="44.21829" lon="1.97543">
        <ele>295.2</ele>
        <time>2019-05-11T10:57:00Z</time>
      </trkpt>
      <trkpt lat="44.21823" lon="1.97541">
        <ele>295.9</ele>
        <time>2019-05-11T10:57:02Z</time>
      </trkpt>
      <trkpt lat="44.21819" lon="1.97537">
        <ele>297.6</ele>
        <time>2019-05-11T10:57:06Z</time>
      </trkpt>
      <trkpt lat="44.21816" lon="1.97532">
        <ele>298.8</ele>
        <time>2019-05-11T10:57:11Z</time>
      </trkpt>
      <trkpt lat="44.21813" lon="1.97527">
        <ele>297.8</ele>
        <time>2019-05-11T10:57:16Z</time>
      </trkpt>
      <trkpt lat="44.21809" lon="1.97521">
        <ele>297.3</ele>
        <time>2019-05-11T10:57:21Z</time>
      </trkpt>
      <trkpt lat="44.21807" lon="1.97514">
        <ele>298</ele>
        <time>2019-05-11T10:57:25Z</time>
      </trkpt>
      <trkpt lat="44.21804" lon="1.97509">
        <ele>298.2</ele>
        <time>2019-05-11T10:57:29Z</time>
      </trkpt>
      <trkpt lat="44.21802" lon="1.97504">
        <ele>298.5</ele>
        <time>2019-05-11T10:57:33Z</time>
      </trkpt>
      <trkpt lat="44.21799" lon="1.97495">
        <ele>297.3</ele>
        <time>2019-05-11T10:57:37Z</time>
      </trkpt>
      <trkpt lat="44.21792" lon="1.9749">
        <ele>293.6</ele>
        <time>2019-05-11T10:57:55Z</time>
      </trkpt>
      <trkpt lat="44.21779" lon="1.97458">
        <ele>295.7</ele>
        <time>2019-05-11T10:58:18Z</time>
      </trkpt>
      <trkpt lat="44.21767" lon="1.97453">
        <ele>293.2</ele>
        <time>2019-05-11T10:58:33Z</time>
      </trkpt>
      <trkpt lat="44.21765" lon="1.97445">
        <ele>302.2</ele>
        <time>2019-05-11T11:01:33Z</time>
      </trkpt>
      <trkpt lat="44.21763" lon="1.97439">
        <ele>302.5</ele>
        <time>2019-05-11T11:01:41Z</time>
      </trkpt>
      <trkpt lat="44.21757" lon="1.9743">
        <ele>295.6</ele>
        <time>2019-05-11T11:03:10Z</time>
      </trkpt>
      <trkpt lat="44.21754" lon="1.97425">
        <ele>295.2</ele>
        <time>2019-05-11T11:03:15Z</time>
      </trkpt>
      <trkpt lat="44.21752" lon="1.97419">
        <ele>291.3</ele>
        <time>2019-05-11T11:03:23Z</time>
      </trkpt>
      <trkpt lat="44.21749" lon="1.97413">
        <ele>291</ele>
        <time>2019-05-11T11:03:27Z</time>
      </trkpt>
      <trkpt lat="44.21747" lon="1.97407">
        <ele>290.7</ele>
        <time>2019-05-11T11:03:31Z</time>
      </trkpt>
      <trkpt lat="44.21745" lon="1.97401">
        <ele>289.5</ele>
        <time>2019-05-11T11:03:36Z</time>
      </trkpt>
      <trkpt lat="44.21743" lon="1.97395">
        <ele>289.4</ele>
        <time>2019-05-11T11:03:41Z</time>
      </trkpt>
      <trkpt lat="44.21742" lon="1.97388">
        <ele>291.2</ele>
        <time>2019-05-11T11:03:46Z</time>
      </trkpt>
      <trkpt lat="44.21741" lon="1.9738">
        <ele>292.1</ele>
        <time>2019-05-11T11:03:54Z</time>
      </trkpt>
      <trkpt lat="44.21738" lon="1.97364">
        <ele>290.3</ele>
        <time>2019-05-11T11:04:11Z</time>
      </trkpt>
      <trkpt lat="44.21739" lon="1.97357">
        <ele>289.4</ele>
        <time>2019-05-11T11:04:15Z</time>
      </trkpt>
      <trkpt lat="44.21737" lon="1.97351">
        <ele>287.4</ele>
        <time>2019-05-11T11:04:22Z</time>
      </trkpt>
      <trkpt lat="44.21735" lon="1.97345">
        <ele>287.3</ele>
        <time>2019-05-11T11:04:26Z</time>
      </trkpt>
      <trkpt lat="44.21735" lon="1.97338">
        <ele>284.1</ele>
        <time>2019-05-11T11:04:32Z</time>
      </trkpt>
      <trkpt lat="44.21734" lon="1.97331">
        <ele>283.1</ele>
        <time>2019-05-11T11:04:37Z</time>
      </trkpt>
      <trkpt lat="44.21733" lon="1.97325">
        <ele>283.1</ele>
        <time>2019-05-11T11:04:41Z</time>
      </trkpt>
      <trkpt lat="44.21732" lon="1.97318">
        <ele>282.5</ele>
        <time>2019-05-11T11:04:46Z</time>
      </trkpt>
      <trkpt lat="44.21731" lon="1.97312">
        <ele>282.9</ele>
        <time>2019-05-11T11:04:51Z</time>
      </trkpt>
      <trkpt lat="44.21729" lon="1.97296">
        <ele>282</ele>
        <time>2019-05-11T11:05:03Z</time>
      </trkpt>
      <trkpt lat="44.21725" lon="1.97297">
        <ele>283.1</ele>
        <time>2019-05-11T11:06:24Z</time>
      </trkpt>
      <trkpt lat="44.21724" lon="1.97304">
        <ele>282.3</ele>
        <time>2019-05-11T11:06:32Z</time>
      </trkpt>
      <trkpt lat="44.21723" lon="1.97311">
        <ele>282.8</ele>
        <time>2019-05-11T11:06:37Z</time>
      </trkpt>
      <trkpt lat="44.21723" lon="1.97318">
        <ele>281.9</ele>
        <time>2019-05-11T11:06:43Z</time>
      </trkpt>
      <trkpt lat="44.21722" lon="1.97325">
        <ele>279.3</ele>
        <time>2019-05-11T11:06:52Z</time>
      </trkpt>
      <trkpt lat="44.21723" lon="1.97332">
        <ele>275.7</ele>
        <time>2019-05-11T11:06:58Z</time>
      </trkpt>
      <trkpt lat="44.21718" lon="1.97332">
        <ele>273.2</ele>
        <time>2019-05-11T11:07:06Z</time>
      </trkpt>
      <trkpt lat="44.21715" lon="1.97325">
        <ele>272.5</ele>
        <time>2019-05-11T11:07:12Z</time>
      </trkpt>
      <trkpt lat="44.21715" lon="1.97318">
        <ele>273.1</ele>
        <time>2019-05-11T11:07:17Z</time>
      </trkpt>
      <trkpt lat="44.21714" lon="1.97311">
        <ele>273.9</ele>
        <time>2019-05-11T11:07:21Z</time>
      </trkpt>
      <trkpt lat="44.21715" lon="1.97304">
        <ele>273.4</ele>
        <time>2019-05-11T11:07:27Z</time>
      </trkpt>
      <trkpt lat="44.21715" lon="1.97297">
        <ele>273.4</ele>
        <time>2019-05-11T11:07:32Z</time>
      </trkpt>
      <trkpt lat="44.21715" lon="1.97291">
        <ele>273.4</ele>
        <time>2019-05-11T11:07:38Z</time>
      </trkpt>
      <trkpt lat="44.21714" lon="1.97284">
        <ele>273</ele>
        <time>2019-05-11T11:07:43Z</time>
      </trkpt>
      <trkpt lat="44.21713" lon="1.97277">
        <ele>270.9</ele>
        <time>2019-05-11T11:07:50Z</time>
      </trkpt>
      <trkpt lat="44.21712" lon="1.97271">
        <ele>271.5</ele>
        <time>2019-05-11T11:07:54Z</time>
      </trkpt>
      <trkpt lat="44.21711" lon="1.97263">
        <ele>272.1</ele>
        <time>2019-05-11T11:07:59Z</time>
      </trkpt>
      <trkpt lat="44.2171" lon="1.97257">
        <ele>271.5</ele>
        <time>2019-05-11T11:08:05Z</time>
      </trkpt>
      <trkpt lat="44.21708" lon="1.9725">
        <ele>271.2</ele>
        <time>2019-05-11T11:08:10Z</time>
      </trkpt>
      <trkpt lat="44.21708" lon="1.97243">
        <ele>270.8</ele>
        <time>2019-05-11T11:08:15Z</time>
      </trkpt>
      <trkpt lat="44.21708" lon="1.97236">
        <ele>270.5</ele>
        <time>2019-05-11T11:08:20Z</time>
      </trkpt>
      <trkpt lat="44.21707" lon="1.97229">
        <ele>270.6</ele>
        <time>2019-05-11T11:08:25Z</time>
      </trkpt>
      <trkpt lat="44.21708" lon="1.97222">
        <ele>270.7</ele>
        <time>2019-05-11T11:08:29Z</time>
      </trkpt>
      <trkpt lat="44.21708" lon="1.97214">
        <ele>270.6</ele>
        <time>2019-05-11T11:08:34Z</time>
      </trkpt>
      <trkpt lat="44.21708" lon="1.97207">
        <ele>270.5</ele>
        <time>2019-05-11T11:08:39Z</time>
      </trkpt>
      <trkpt lat="44.21706" lon="1.972">
        <ele>269.8</ele>
        <time>2019-05-11T11:08:44Z</time>
      </trkpt>
      <trkpt lat="44.21705" lon="1.97192">
        <ele>270.1</ele>
        <time>2019-05-11T11:08:49Z</time>
      </trkpt>
      <trkpt lat="44.21705" lon="1.97185">
        <ele>271.6</ele>
        <time>2019-05-11T11:08:56Z</time>
      </trkpt>
      <trkpt lat="44.21704" lon="1.97179">
        <ele>272.3</ele>
        <time>2019-05-11T11:09:01Z</time>
      </trkpt>
      <trkpt lat="44.21704" lon="1.97172">
        <ele>272.7</ele>
        <time>2019-05-11T11:09:06Z</time>
      </trkpt>
      <trkpt lat="44.21704" lon="1.97166">
        <ele>271.3</ele>
        <time>2019-05-11T11:09:12Z</time>
      </trkpt>
      <trkpt lat="44.21703" lon="1.97158">
        <ele>270.2</ele>
        <time>2019-05-11T11:09:17Z</time>
      </trkpt>
      <trkpt lat="44.21702" lon="1.97152">
        <ele>269.4</ele>
        <time>2019-05-11T11:09:21Z</time>
      </trkpt>
      <trkpt lat="44.21701" lon="1.97144">
        <ele>269.8</ele>
        <time>2019-05-11T11:09:25Z</time>
      </trkpt>
      <trkpt lat="44.21699" lon="1.97136">
        <ele>270.1</ele>
        <time>2019-05-11T11:09:29Z</time>
      </trkpt>
      <trkpt lat="44.21698" lon="1.9713">
        <ele>269.5</ele>
        <time>2019-05-11T11:09:33Z</time>
      </trkpt>
      <trkpt lat="44.21697" lon="1.97123">
        <ele>268.8</ele>
        <time>2019-05-11T11:09:38Z</time>
      </trkpt>
      <trkpt lat="44.21696" lon="1.97116">
        <ele>268.5</ele>
        <time>2019-05-11T11:09:43Z</time>
      </trkpt>
      <trkpt lat="44.21697" lon="1.97109">
        <ele>268.5</ele>
        <time>2019-05-11T11:09:48Z</time>
      </trkpt>
      <trkpt lat="44.21696" lon="1.97103">
        <ele>268.4</ele>
        <time>2019-05-11T11:09:53Z</time>
      </trkpt>
      <trkpt lat="44.21695" lon="1.97097">
        <ele>269.4</ele>
        <time>2019-05-11T11:09:59Z</time>
      </trkpt>
      <trkpt lat="44.21692" lon="1.9709">
        <ele>269.3</ele>
        <time>2019-05-11T11:10:04Z</time>
      </trkpt>
      <trkpt lat="44.2169" lon="1.97084">
        <ele>268.4</ele>
        <time>2019-05-11T11:10:08Z</time>
      </trkpt>
      <trkpt lat="44.21688" lon="1.97077">
        <ele>266.5</ele>
        <time>2019-05-11T11:10:13Z</time>
      </trkpt>
      <trkpt lat="44.21687" lon="1.9707">
        <ele>265.9</ele>
        <time>2019-05-11T11:10:18Z</time>
      </trkpt>
      <trkpt lat="44.21686" lon="1.97063">
        <ele>266</ele>
        <time>2019-05-11T11:10:23Z</time>
      </trkpt>
      <trkpt lat="44.21684" lon="1.97058">
        <ele>265.8</ele>
        <time>2019-05-11T11:10:28Z</time>
      </trkpt>
      <trkpt lat="44.21681" lon="1.97051">
        <ele>266.1</ele>
        <time>2019-05-11T11:10:33Z</time>
      </trkpt>
      <trkpt lat="44.21678" lon="1.97044">
        <ele>266.2</ele>
        <time>2019-05-11T11:10:38Z</time>
      </trkpt>
      <trkpt lat="44.21674" lon="1.97039">
        <ele>266.5</ele>
        <time>2019-05-11T11:10:42Z</time>
      </trkpt>
      <trkpt lat="44.2167" lon="1.97033">
        <ele>266.1</ele>
        <time>2019-05-11T11:10:47Z</time>
      </trkpt>
      <trkpt lat="44.21668" lon="1.97027">
        <ele>265.2</ele>
        <time>2019-05-11T11:10:55Z</time>
      </trkpt>
      <trkpt lat="44.21666" lon="1.9702">
        <ele>264.8</ele>
        <time>2019-05-11T11:11:01Z</time>
      </trkpt>
      <trkpt lat="44.21666" lon="1.97013">
        <ele>265.4</ele>
        <time>2019-05-11T11:11:05Z</time>
      </trkpt>
      <trkpt lat="44.21666" lon="1.97007">
        <ele>264.6</ele>
        <time>2019-05-11T11:11:10Z</time>
      </trkpt>
      <trkpt lat="44.21668" lon="1.97">
        <ele>265.1</ele>
        <time>2019-05-11T11:11:15Z</time>
      </trkpt>
      <trkpt lat="44.21668" lon="1.96993">
        <ele>264.9</ele>
        <time>2019-05-11T11:11:19Z</time>
      </trkpt>
      <trkpt lat="44.21667" lon="1.96987">
        <ele>265.4</ele>
        <time>2019-05-11T11:11:24Z</time>
      </trkpt>
      <trkpt lat="44.21665" lon="1.96981">
        <ele>265.1</ele>
        <time>2019-05-11T11:11:29Z</time>
      </trkpt>
      <trkpt lat="44.21665" lon="1.96973">
        <ele>264.4</ele>
        <time>2019-05-11T11:11:34Z</time>
      </trkpt>
      <trkpt lat="44.21665" lon="1.96967">
        <ele>263.7</ele>
        <time>2019-05-11T11:11:38Z</time>
      </trkpt>
      <trkpt lat="44.21665" lon="1.9696">
        <ele>262.5</ele>
        <time>2019-05-11T11:11:43Z</time>
      </trkpt>
      <trkpt lat="44.21664" lon="1.96954">
        <ele>261.1</ele>
        <time>2019-05-11T11:11:48Z</time>
      </trkpt>
      <trkpt lat="44.21665" lon="1.96948">
        <ele>259.8</ele>
        <time>2019-05-11T11:11:53Z</time>
      </trkpt>
      <trkpt lat="44.21666" lon="1.96941">
        <ele>258.7</ele>
        <time>2019-05-11T11:11:58Z</time>
      </trkpt>
      <trkpt lat="44.21666" lon="1.96934">
        <ele>257.7</ele>
        <time>2019-05-11T11:12:04Z</time>
      </trkpt>
      <trkpt lat="44.21666" lon="1.96928">
        <ele>257.4</ele>
        <time>2019-05-11T11:12:09Z</time>
      </trkpt>
      <trkpt lat="44.21667" lon="1.96921">
        <ele>257.3</ele>
        <time>2019-05-11T11:12:15Z</time>
      </trkpt>
      <trkpt lat="44.21669" lon="1.96915">
        <ele>257.3</ele>
        <time>2019-05-11T11:12:20Z</time>
      </trkpt>
      <trkpt lat="44.2167" lon="1.96907">
        <ele>256.7</ele>
        <time>2019-05-11T11:12:26Z</time>
      </trkpt>
      <trkpt lat="44.21673" lon="1.969">
        <ele>257.3</ele>
        <time>2019-05-11T11:12:31Z</time>
      </trkpt>
      <trkpt lat="44.21675" lon="1.96894">
        <ele>257</ele>
        <time>2019-05-11T11:12:36Z</time>
      </trkpt>
      <trkpt lat="44.21676" lon="1.96886">
        <ele>255.9</ele>
        <time>2019-05-11T11:12:42Z</time>
      </trkpt>
      <trkpt lat="44.21679" lon="1.9688">
        <ele>256</ele>
        <time>2019-05-11T11:12:46Z</time>
      </trkpt>
      <trkpt lat="44.21681" lon="1.96874">
        <ele>255.7</ele>
        <time>2019-05-11T11:12:50Z</time>
      </trkpt>
      <trkpt lat="44.21684" lon="1.96868">
        <ele>255.5</ele>
        <time>2019-05-11T11:12:55Z</time>
      </trkpt>
      <trkpt lat="44.21685" lon="1.96861">
        <ele>255</ele>
        <time>2019-05-11T11:13:00Z</time>
      </trkpt>
      <trkpt lat="44.21686" lon="1.96855">
        <ele>255.1</ele>
        <time>2019-05-11T11:13:04Z</time>
      </trkpt>
      <trkpt lat="44.21688" lon="1.96849">
        <ele>254.8</ele>
        <time>2019-05-11T11:13:08Z</time>
      </trkpt>
      <trkpt lat="44.2169" lon="1.96843">
        <ele>254.2</ele>
        <time>2019-05-11T11:13:13Z</time>
      </trkpt>
      <trkpt lat="44.21691" lon="1.96836">
        <ele>253.8</ele>
        <time>2019-05-11T11:13:18Z</time>
      </trkpt>
      <trkpt lat="44.21692" lon="1.96829">
        <ele>254.5</ele>
        <time>2019-05-11T11:13:23Z</time>
      </trkpt>
      <trkpt lat="44.21693" lon="1.96823">
        <ele>255.2</ele>
        <time>2019-05-11T11:13:27Z</time>
      </trkpt>
      <trkpt lat="44.21694" lon="1.96816">
        <ele>256.1</ele>
        <time>2019-05-11T11:13:32Z</time>
      </trkpt>
      <trkpt lat="44.21695" lon="1.96809">
        <ele>257</ele>
        <time>2019-05-11T11:13:37Z</time>
      </trkpt>
      <trkpt lat="44.21696" lon="1.96801">
        <ele>257.9</ele>
        <time>2019-05-11T11:13:42Z</time>
      </trkpt>
      <trkpt lat="44.21696" lon="1.96794">
        <ele>258.2</ele>
        <time>2019-05-11T11:13:47Z</time>
      </trkpt>
      <trkpt lat="44.21697" lon="1.96787">
        <ele>258.7</ele>
        <time>2019-05-11T11:13:51Z</time>
      </trkpt>
      <trkpt lat="44.21697" lon="1.9678">
        <ele>258.5</ele>
        <time>2019-05-11T11:13:56Z</time>
      </trkpt>
      <trkpt lat="44.21696" lon="1.96773">
        <ele>257.2</ele>
        <time>2019-05-11T11:14:01Z</time>
      </trkpt>
      <trkpt lat="44.21694" lon="1.96767">
        <ele>256.7</ele>
        <time>2019-05-11T11:14:06Z</time>
      </trkpt>
      <trkpt lat="44.21695" lon="1.9676">
        <ele>257.1</ele>
        <time>2019-05-11T11:14:11Z</time>
      </trkpt>
      <trkpt lat="44.21694" lon="1.96753">
        <ele>256.7</ele>
        <time>2019-05-11T11:14:16Z</time>
      </trkpt>
      <trkpt lat="44.21691" lon="1.96747">
        <ele>254.1</ele>
        <time>2019-05-11T11:14:22Z</time>
      </trkpt>
      <trkpt lat="44.21689" lon="1.9674">
        <ele>252.8</ele>
        <time>2019-05-11T11:14:27Z</time>
      </trkpt>
      <trkpt lat="44.21687" lon="1.96733">
        <ele>253.1</ele>
        <time>2019-05-11T11:14:31Z</time>
      </trkpt>
      <trkpt lat="44.21686" lon="1.96726">
        <ele>252.4</ele>
        <time>2019-05-11T11:14:35Z</time>
      </trkpt>
      <trkpt lat="44.21684" lon="1.9672">
        <ele>251.4</ele>
        <time>2019-05-11T11:14:40Z</time>
      </trkpt>
      <trkpt lat="44.21681" lon="1.96714">
        <ele>250.2</ele>
        <time>2019-05-11T11:14:45Z</time>
      </trkpt>
      <trkpt lat="44.2168" lon="1.96707">
        <ele>250.6</ele>
        <time>2019-05-11T11:14:50Z</time>
      </trkpt>
      <trkpt lat="44.21677" lon="1.96701">
        <ele>251.3</ele>
        <time>2019-05-11T11:14:56Z</time>
      </trkpt>
      <trkpt lat="44.21675" lon="1.96696">
        <ele>251.9</ele>
        <time>2019-05-11T11:15:02Z</time>
      </trkpt>
      <trkpt lat="44.21672" lon="1.9669">
        <ele>251.9</ele>
        <time>2019-05-11T11:15:15Z</time>
      </trkpt>
      <trkpt lat="44.21669" lon="1.96684">
        <ele>251.4</ele>
        <time>2019-05-11T11:15:20Z</time>
      </trkpt>
      <trkpt lat="44.21665" lon="1.9668">
        <ele>250.6</ele>
        <time>2019-05-11T11:15:26Z</time>
      </trkpt>
      <trkpt lat="44.21662" lon="1.96674">
        <ele>249.7</ele>
        <time>2019-05-11T11:15:35Z</time>
      </trkpt>
      <trkpt lat="44.21659" lon="1.96669">
        <ele>250</ele>
        <time>2019-05-11T11:15:43Z</time>
      </trkpt>
      <trkpt lat="44.21654" lon="1.96666">
        <ele>249</ele>
        <time>2019-05-11T11:15:48Z</time>
      </trkpt>
      <trkpt lat="44.21651" lon="1.96662">
        <ele>248.4</ele>
        <time>2019-05-11T11:15:54Z</time>
      </trkpt>
      <trkpt lat="44.21647" lon="1.96657">
        <ele>249.5</ele>
        <time>2019-05-11T11:16:13Z</time>
      </trkpt>
      <trkpt lat="44.21644" lon="1.96652">
        <ele>248.5</ele>
        <time>2019-05-11T11:16:19Z</time>
      </trkpt>
      <trkpt lat="44.2164" lon="1.9665">
        <ele>247.7</ele>
        <time>2019-05-11T11:16:23Z</time>
      </trkpt>
      <trkpt lat="44.21637" lon="1.96645">
        <ele>244.2</ele>
        <time>2019-05-11T11:16:34Z</time>
      </trkpt>
      <trkpt lat="44.21633" lon="1.9664">
        <ele>243.4</ele>
        <time>2019-05-11T11:16:48Z</time>
      </trkpt>
      <trkpt lat="44.21629" lon="1.96636">
        <ele>243.4</ele>
        <time>2019-05-11T11:16:55Z</time>
      </trkpt>
      <trkpt lat="44.21626" lon="1.9663">
        <ele>242.6</ele>
        <time>2019-05-11T11:17:00Z</time>
      </trkpt>
      <trkpt lat="44.21622" lon="1.96627">
        <ele>241.8</ele>
        <time>2019-05-11T11:17:20Z</time>
      </trkpt>
      <trkpt lat="44.21621" lon="1.96621">
        <ele>242.3</ele>
        <time>2019-05-11T11:17:23Z</time>
      </trkpt>
      <trkpt lat="44.21618" lon="1.96615">
        <ele>242.4</ele>
        <time>2019-05-11T11:17:28Z</time>
      </trkpt>
      <trkpt lat="44.21615" lon="1.96609">
        <ele>243.2</ele>
        <time>2019-05-11T11:17:35Z</time>
      </trkpt>
      <trkpt lat="44.2161" lon="1.96606">
        <ele>241.7</ele>
        <time>2019-05-11T11:17:44Z</time>
      </trkpt>
      <trkpt lat="44.21607" lon="1.96602">
        <ele>240.3</ele>
        <time>2019-05-11T11:17:48Z</time>
      </trkpt>
      <trkpt lat="44.21604" lon="1.96596">
        <ele>239.6</ele>
        <time>2019-05-11T11:17:52Z</time>
      </trkpt>
      <trkpt lat="44.21601" lon="1.96591">
        <ele>238.3</ele>
        <time>2019-05-11T11:18:08Z</time>
      </trkpt>
      <trkpt lat="44.21597" lon="1.96586">
        <ele>236.7</ele>
        <time>2019-05-11T11:18:18Z</time>
      </trkpt>
      <trkpt lat="44.21594" lon="1.96581">
        <ele>234.1</ele>
        <time>2019-05-11T11:18:23Z</time>
      </trkpt>
      <trkpt lat="44.2159" lon="1.96576">
        <ele>234.3</ele>
        <time>2019-05-11T11:18:28Z</time>
      </trkpt>
      <trkpt lat="44.21587" lon="1.96572">
        <ele>234.1</ele>
        <time>2019-05-11T11:18:34Z</time>
      </trkpt>
      <trkpt lat="44.21584" lon="1.96566">
        <ele>234</ele>
        <time>2019-05-11T11:18:38Z</time>
      </trkpt>
      <trkpt lat="44.2158" lon="1.96561">
        <ele>230.5</ele>
        <time>2019-05-11T11:18:43Z</time>
      </trkpt>
      <trkpt lat="44.21577" lon="1.96556">
        <ele>227.6</ele>
        <time>2019-05-11T11:18:54Z</time>
      </trkpt>
      <trkpt lat="44.21574" lon="1.9655">
        <ele>226.9</ele>
        <time>2019-05-11T11:19:03Z</time>
      </trkpt>
      <trkpt lat="44.21575" lon="1.96544">
        <ele>227.5</ele>
        <time>2019-05-11T11:19:08Z</time>
      </trkpt>
      <trkpt lat="44.21574" lon="1.96537">
        <ele>226.9</ele>
        <time>2019-05-11T11:19:14Z</time>
      </trkpt>
      <trkpt lat="44.21571" lon="1.96532">
        <ele>226</ele>
        <time>2019-05-11T11:19:20Z</time>
      </trkpt>
      <trkpt lat="44.21567" lon="1.96527">
        <ele>224.3</ele>
        <time>2019-05-11T11:19:25Z</time>
      </trkpt>
      <trkpt lat="44.21563" lon="1.96523">
        <ele>225.2</ele>
        <time>2019-05-11T11:19:31Z</time>
      </trkpt>
      <trkpt lat="44.21561" lon="1.96517">
        <ele>224.2</ele>
        <time>2019-05-11T11:19:38Z</time>
      </trkpt>
      <trkpt lat="44.21562" lon="1.9651">
        <ele>223.5</ele>
        <time>2019-05-11T11:19:45Z</time>
      </trkpt>
      <trkpt lat="44.21559" lon="1.96505">
        <ele>222.2</ele>
        <time>2019-05-11T11:19:53Z</time>
      </trkpt>
      <trkpt lat="44.21555" lon="1.965">
        <ele>220.6</ele>
        <time>2019-05-11T11:19:59Z</time>
      </trkpt>
      <trkpt lat="44.21552" lon="1.96495">
        <ele>217.7</ele>
        <time>2019-05-11T11:20:13Z</time>
      </trkpt>
      <trkpt lat="44.21551" lon="1.96488">
        <ele>216.2</ele>
        <time>2019-05-11T11:20:19Z</time>
      </trkpt>
      <trkpt lat="44.21547" lon="1.96484">
        <ele>215.9</ele>
        <time>2019-05-11T11:20:25Z</time>
      </trkpt>
      <trkpt lat="44.21543" lon="1.9648">
        <ele>215.7</ele>
        <time>2019-05-11T11:20:30Z</time>
      </trkpt>
      <trkpt lat="44.21541" lon="1.96474">
        <ele>214.6</ele>
        <time>2019-05-11T11:20:35Z</time>
      </trkpt>
      <trkpt lat="44.2154" lon="1.96468">
        <ele>214.6</ele>
        <time>2019-05-11T11:20:40Z</time>
      </trkpt>
      <trkpt lat="44.21538" lon="1.96461">
        <ele>215.5</ele>
        <time>2019-05-11T11:20:45Z</time>
      </trkpt>
      <trkpt lat="44.21538" lon="1.96455">
        <ele>214.9</ele>
        <time>2019-05-11T11:20:50Z</time>
      </trkpt>
      <trkpt lat="44.21537" lon="1.96448">
        <ele>215.1</ele>
        <time>2019-05-11T11:20:56Z</time>
      </trkpt>
      <trkpt lat="44.21536" lon="1.96441">
        <ele>214.8</ele>
        <time>2019-05-11T11:21:02Z</time>
      </trkpt>
      <trkpt lat="44.21536" lon="1.96434">
        <ele>214</ele>
        <time>2019-05-11T11:21:10Z</time>
      </trkpt>
      <trkpt lat="44.21537" lon="1.96427">
        <ele>211.9</ele>
        <time>2019-05-11T11:21:22Z</time>
      </trkpt>
      <trkpt lat="44.21539" lon="1.9642">
        <ele>211.7</ele>
        <time>2019-05-11T11:21:32Z</time>
      </trkpt>
      <trkpt lat="44.21541" lon="1.96414">
        <ele>212.7</ele>
        <time>2019-05-11T11:21:39Z</time>
      </trkpt>
      <trkpt lat="44.21542" lon="1.96408">
        <ele>212.5</ele>
        <time>2019-05-11T11:21:45Z</time>
      </trkpt>
      <trkpt lat="44.21547" lon="1.96404">
        <ele>209.2</ele>
        <time>2019-05-11T11:21:55Z</time>
      </trkpt>
      <trkpt lat="44.21551" lon="1.96399">
        <ele>207.5</ele>
        <time>2019-05-11T11:22:01Z</time>
      </trkpt>
      <trkpt lat="44.21553" lon="1.96394">
        <ele>205.8</ele>
        <time>2019-05-11T11:22:16Z</time>
      </trkpt>
      <trkpt lat="44.21556" lon="1.96388">
        <ele>206.2</ele>
        <time>2019-05-11T11:22:20Z</time>
      </trkpt>
      <trkpt lat="44.21558" lon="1.96382">
        <ele>206</ele>
        <time>2019-05-11T11:22:25Z</time>
      </trkpt>
      <trkpt lat="44.21559" lon="1.96375">
        <ele>202.7</ele>
        <time>2019-05-11T11:22:32Z</time>
      </trkpt>
      <trkpt lat="44.2156" lon="1.96367">
        <ele>201.8</ele>
        <time>2019-05-11T11:22:38Z</time>
      </trkpt>
      <trkpt lat="44.21563" lon="1.96361">
        <ele>201.4</ele>
        <time>2019-05-11T11:22:44Z</time>
      </trkpt>
      <trkpt lat="44.21564" lon="1.96355">
        <ele>200.5</ele>
        <time>2019-05-11T11:22:47Z</time>
      </trkpt>
      <trkpt lat="44.21567" lon="1.96348">
        <ele>199.5</ele>
        <time>2019-05-11T11:22:51Z</time>
      </trkpt>
      <trkpt lat="44.21569" lon="1.96342">
        <ele>198.1</ele>
        <time>2019-05-11T11:22:55Z</time>
      </trkpt>
      <trkpt lat="44.21573" lon="1.96337">
        <ele>196.5</ele>
        <time>2019-05-11T11:23:00Z</time>
      </trkpt>
      <trkpt lat="44.21576" lon="1.96332">
        <ele>195.7</ele>
        <time>2019-05-11T11:23:04Z</time>
      </trkpt>
      <trkpt lat="44.2158" lon="1.96327">
        <ele>195.3</ele>
        <time>2019-05-11T11:23:08Z</time>
      </trkpt>
      <trkpt lat="44.21584" lon="1.96325">
        <ele>194.9</ele>
        <time>2019-05-11T11:23:12Z</time>
      </trkpt>
      <trkpt lat="44.21585" lon="1.96318">
        <ele>195.4</ele>
        <time>2019-05-11T11:23:16Z</time>
      </trkpt>
      <trkpt lat="44.21585" lon="1.96311">
        <ele>196.5</ele>
        <time>2019-05-11T11:23:19Z</time>
      </trkpt>
      <trkpt lat="44.21585" lon="1.96303">
        <ele>196.7</ele>
        <time>2019-05-11T11:23:23Z</time>
      </trkpt>
      <trkpt lat="44.21584" lon="1.96297">
        <ele>196.9</ele>
        <time>2019-05-11T11:23:27Z</time>
      </trkpt>
      <trkpt lat="44.21584" lon="1.96289">
        <ele>196</ele>
        <time>2019-05-11T11:23:32Z</time>
      </trkpt>
      <trkpt lat="44.21585" lon="1.96283">
        <ele>195.5</ele>
        <time>2019-05-11T11:23:37Z</time>
      </trkpt>
      <trkpt lat="44.21588" lon="1.96276">
        <ele>195.4</ele>
        <time>2019-05-11T11:23:42Z</time>
      </trkpt>
      <trkpt lat="44.2159" lon="1.96269">
        <ele>195.9</ele>
        <time>2019-05-11T11:23:47Z</time>
      </trkpt>
      <trkpt lat="44.21591" lon="1.96262">
        <ele>195.3</ele>
        <time>2019-05-11T11:23:52Z</time>
      </trkpt>
      <trkpt lat="44.21593" lon="1.96256">
        <ele>194</ele>
        <time>2019-05-11T11:23:58Z</time>
      </trkpt>
      <trkpt lat="44.21596" lon="1.96249">
        <ele>192.6</ele>
        <time>2019-05-11T11:24:03Z</time>
      </trkpt>
      <trkpt lat="44.21598" lon="1.96244">
        <ele>191.4</ele>
        <time>2019-05-11T11:24:07Z</time>
      </trkpt>
      <trkpt lat="44.216" lon="1.96238">
        <ele>190.9</ele>
        <time>2019-05-11T11:24:11Z</time>
      </trkpt>
      <trkpt lat="44.21604" lon="1.96233">
        <ele>190.1</ele>
        <time>2019-05-11T11:24:15Z</time>
      </trkpt>
      <trkpt lat="44.21605" lon="1.96226">
        <ele>188.9</ele>
        <time>2019-05-11T11:24:20Z</time>
      </trkpt>
      <trkpt lat="44.21608" lon="1.96221">
        <ele>187.4</ele>
        <time>2019-05-11T11:24:25Z</time>
      </trkpt>
      <trkpt lat="44.21609" lon="1.96214">
        <ele>186.3</ele>
        <time>2019-05-11T11:24:30Z</time>
      </trkpt>
      <trkpt lat="44.21609" lon="1.96208">
        <ele>185.3</ele>
        <time>2019-05-11T11:24:34Z</time>
      </trkpt>
      <trkpt lat="44.21611" lon="1.962">
        <ele>184.2</ele>
        <time>2019-05-11T11:24:39Z</time>
      </trkpt>
      <trkpt lat="44.21613" lon="1.96194">
        <ele>184</ele>
        <time>2019-05-11T11:24:43Z</time>
      </trkpt>
      <trkpt lat="44.21616" lon="1.96188">
        <ele>183.9</ele>
        <time>2019-05-11T11:24:48Z</time>
      </trkpt>
      <trkpt lat="44.21619" lon="1.96182">
        <ele>185.1</ele>
        <time>2019-05-11T11:24:51Z</time>
      </trkpt>
      <trkpt lat="44.21619" lon="1.96175">
        <ele>186.3</ele>
        <time>2019-05-11T11:24:55Z</time>
      </trkpt>
      <trkpt lat="44.21619" lon="1.96167">
        <ele>187.5</ele>
        <time>2019-05-11T11:25:00Z</time>
      </trkpt>
      <trkpt lat="44.21619" lon="1.96159">
        <ele>190</ele>
        <time>2019-05-11T11:25:04Z</time>
      </trkpt>
      <trkpt lat="44.21617" lon="1.96153">
        <ele>191.5</ele>
        <time>2019-05-11T11:25:08Z</time>
      </trkpt>
      <trkpt lat="44.21616" lon="1.96146">
        <ele>192.9</ele>
        <time>2019-05-11T11:25:12Z</time>
      </trkpt>
      <trkpt lat="44.21615" lon="1.9614">
        <ele>194.1</ele>
        <time>2019-05-11T11:25:16Z</time>
      </trkpt>
      <trkpt lat="44.21613" lon="1.96134">
        <ele>194.2</ele>
        <time>2019-05-11T11:25:21Z</time>
      </trkpt>
      <trkpt lat="44.2161" lon="1.96127">
        <ele>194.9</ele>
        <time>2019-05-11T11:25:26Z</time>
      </trkpt>
      <trkpt lat="44.21608" lon="1.96121">
        <ele>195.2</ele>
        <time>2019-05-11T11:25:31Z</time>
      </trkpt>
      <trkpt lat="44.21605" lon="1.96115">
        <ele>194.8</ele>
        <time>2019-05-11T11:25:37Z</time>
      </trkpt>
      <trkpt lat="44.21604" lon="1.96108">
        <ele>195.1</ele>
        <time>2019-05-11T11:25:42Z</time>
      </trkpt>
      <trkpt lat="44.21604" lon="1.96102">
        <ele>195.3</ele>
        <time>2019-05-11T11:25:47Z</time>
      </trkpt>
      <trkpt lat="44.21603" lon="1.96095">
        <ele>197.4</ele>
        <time>2019-05-11T11:26:21Z</time>
      </trkpt>
      <trkpt lat="44.21602" lon="1.96088">
        <ele>197.6</ele>
        <time>2019-05-11T11:26:30Z</time>
      </trkpt>
      <trkpt lat="44.21599" lon="1.96083">
        <ele>197.3</ele>
        <time>2019-05-11T11:26:39Z</time>
      </trkpt>
      <trkpt lat="44.216" lon="1.96084">
        <ele>200.7</ele>
        <time>2019-05-11T11:30:16Z</time>
      </trkpt>
      <trkpt lat="44.21605" lon="1.96085">
        <ele>199.4</ele>
        <time>2019-05-11T11:30:23Z</time>
      </trkpt>
      <trkpt lat="44.2161" lon="1.96087">
        <ele>199.3</ele>
        <time>2019-05-11T11:30:27Z</time>
      </trkpt>
      <trkpt lat="44.21615" lon="1.96088">
        <ele>199.2</ele>
        <time>2019-05-11T11:30:31Z</time>
      </trkpt>
      <trkpt lat="44.21619" lon="1.9609">
        <ele>201.8</ele>
        <time>2019-05-11T11:30:39Z</time>
      </trkpt>
      <trkpt lat="44.21623" lon="1.96086">
        <ele>201.5</ele>
        <time>2019-05-11T11:30:42Z</time>
      </trkpt>
      <trkpt lat="44.21627" lon="1.96082">
        <ele>201.4</ele>
        <time>2019-05-11T11:30:46Z</time>
      </trkpt>
      <trkpt lat="44.21631" lon="1.96078">
        <ele>201.2</ele>
        <time>2019-05-11T11:30:49Z</time>
      </trkpt>
      <trkpt lat="44.21635" lon="1.96075">
        <ele>201.7</ele>
        <time>2019-05-11T11:30:54Z</time>
      </trkpt>
      <trkpt lat="44.2164" lon="1.96072">
        <ele>201.5</ele>
        <time>2019-05-11T11:30:58Z</time>
      </trkpt>
      <trkpt lat="44.21646" lon="1.96072">
        <ele>201.6</ele>
        <time>2019-05-11T11:31:02Z</time>
      </trkpt>
      <trkpt lat="44.21652" lon="1.96071">
        <ele>201.6</ele>
        <time>2019-05-11T11:31:06Z</time>
      </trkpt>
      <trkpt lat="44.21657" lon="1.96068">
        <ele>201.6</ele>
        <time>2019-05-11T11:31:13Z</time>
      </trkpt>
      <trkpt lat="44.21661" lon="1.96067">
        <ele>200.6</ele>
        <time>2019-05-11T11:31:18Z</time>
      </trkpt>
      <trkpt lat="44.21666" lon="1.96065">
        <ele>199.2</ele>
        <time>2019-05-11T11:31:25Z</time>
      </trkpt>
      <trkpt lat="44.2167" lon="1.96062">
        <ele>198.3</ele>
        <time>2019-05-11T11:31:31Z</time>
      </trkpt>
      <trkpt lat="44.21676" lon="1.96063">
        <ele>199.2</ele>
        <time>2019-05-11T11:31:45Z</time>
      </trkpt>
      <trkpt lat="44.21681" lon="1.96064">
        <ele>199</ele>
        <time>2019-05-11T11:31:47Z</time>
      </trkpt>
      <trkpt lat="44.21687" lon="1.96065">
        <ele>199.6</ele>
        <time>2019-05-11T11:31:50Z</time>
      </trkpt>
      <trkpt lat="44.21692" lon="1.96065">
        <ele>200</ele>
        <time>2019-05-11T11:31:54Z</time>
      </trkpt>
      <trkpt lat="44.21696" lon="1.96068">
        <ele>200</ele>
        <time>2019-05-11T11:31:59Z</time>
      </trkpt>
      <trkpt lat="44.21701" lon="1.96069">
        <ele>200.6</ele>
        <time>2019-05-11T11:32:02Z</time>
      </trkpt>
      <trkpt lat="44.21706" lon="1.96069">
        <ele>200.6</ele>
        <time>2019-05-11T11:32:07Z</time>
      </trkpt>
      <trkpt lat="44.21711" lon="1.96069">
        <ele>199.8</ele>
        <time>2019-05-11T11:32:11Z</time>
      </trkpt>
      <trkpt lat="44.21716" lon="1.96069">
        <ele>199.1</ele>
        <time>2019-05-11T11:32:15Z</time>
      </trkpt>
      <trkpt lat="44.21722" lon="1.96071">
        <ele>199</ele>
        <time>2019-05-11T11:32:18Z</time>
      </trkpt>
      <trkpt lat="44.21727" lon="1.96076">
        <ele>198.4</ele>
        <time>2019-05-11T11:32:24Z</time>
      </trkpt>
      <trkpt lat="44.21732" lon="1.9608">
        <ele>197.3</ele>
        <time>2019-05-11T11:32:28Z</time>
      </trkpt>
      <trkpt lat="44.21736" lon="1.96083">
        <ele>196.2</ele>
        <time>2019-05-11T11:32:32Z</time>
      </trkpt>
      <trkpt lat="44.2175" lon="1.96089">
        <ele>193.9</ele>
        <time>2019-05-11T11:32:42Z</time>
      </trkpt>
      <trkpt lat="44.21754" lon="1.96092">
        <ele>195</ele>
        <time>2019-05-11T11:32:44Z</time>
      </trkpt>
      <trkpt lat="44.21759" lon="1.96095">
        <ele>196.2</ele>
        <time>2019-05-11T11:32:47Z</time>
      </trkpt>
      <trkpt lat="44.21763" lon="1.96098">
        <ele>197</ele>
        <time>2019-05-11T11:32:50Z</time>
      </trkpt>
      <trkpt lat="44.21768" lon="1.96102">
        <ele>197.3</ele>
        <time>2019-05-11T11:32:54Z</time>
      </trkpt>
      <trkpt lat="44.21773" lon="1.96106">
        <ele>196.8</ele>
        <time>2019-05-11T11:33:00Z</time>
      </trkpt>
      <trkpt lat="44.21777" lon="1.96109">
        <ele>197.4</ele>
        <time>2019-05-11T11:33:03Z</time>
      </trkpt>
      <trkpt lat="44.21782" lon="1.96113">
        <ele>195.1</ele>
        <time>2019-05-11T11:33:11Z</time>
      </trkpt>
      <trkpt lat="44.21787" lon="1.96117">
        <ele>195</ele>
        <time>2019-05-11T11:33:16Z</time>
      </trkpt>
      <trkpt lat="44.21792" lon="1.9612">
        <ele>194.8</ele>
        <time>2019-05-11T11:33:20Z</time>
      </trkpt>
      <trkpt lat="44.21797" lon="1.96123">
        <ele>195.2</ele>
        <time>2019-05-11T11:33:23Z</time>
      </trkpt>
      <trkpt lat="44.21802" lon="1.96125">
        <ele>195.7</ele>
        <time>2019-05-11T11:33:28Z</time>
      </trkpt>
      <trkpt lat="44.21806" lon="1.96126">
        <ele>196</ele>
        <time>2019-05-11T11:33:32Z</time>
      </trkpt>
      <trkpt lat="44.21811" lon="1.96127">
        <ele>196.4</ele>
        <time>2019-05-11T11:33:35Z</time>
      </trkpt>
      <trkpt lat="44.21816" lon="1.9613">
        <ele>196.8</ele>
        <time>2019-05-11T11:33:40Z</time>
      </trkpt>
      <trkpt lat="44.21821" lon="1.96132">
        <ele>197.2</ele>
        <time>2019-05-11T11:33:45Z</time>
      </trkpt>
      <trkpt lat="44.21827" lon="1.96132">
        <ele>196.5</ele>
        <time>2019-05-11T11:33:50Z</time>
      </trkpt>
      <trkpt lat="44.21831" lon="1.96134">
        <ele>195.8</ele>
        <time>2019-05-11T11:33:54Z</time>
      </trkpt>
      <trkpt lat="44.21836" lon="1.96135">
        <ele>195.9</ele>
        <time>2019-05-11T11:33:58Z</time>
      </trkpt>
      <trkpt lat="44.21841" lon="1.96137">
        <ele>196.1</ele>
        <time>2019-05-11T11:34:03Z</time>
      </trkpt>
      <trkpt lat="44.21846" lon="1.9614">
        <ele>196.7</ele>
        <time>2019-05-11T11:34:07Z</time>
      </trkpt>
      <trkpt lat="44.21861" lon="1.96146">
        <ele>199.8</ele>
        <time>2019-05-11T11:34:18Z</time>
      </trkpt>
      <trkpt lat="44.21865" lon="1.96148">
        <ele>199.8</ele>
        <time>2019-05-11T11:34:22Z</time>
      </trkpt>
      <trkpt lat="44.21869" lon="1.96152">
        <ele>199.9</ele>
        <time>2019-05-11T11:34:26Z</time>
      </trkpt>
      <trkpt lat="44.21873" lon="1.96157">
        <ele>199.7</ele>
        <time>2019-05-11T11:34:30Z</time>
      </trkpt>
      <trkpt lat="44.21877" lon="1.96162">
        <ele>199.6</ele>
        <time>2019-05-11T11:34:34Z</time>
      </trkpt>
      <trkpt lat="44.21882" lon="1.96167">
        <ele>199.4</ele>
        <time>2019-05-11T11:34:38Z</time>
      </trkpt>
      <trkpt lat="44.21885" lon="1.96173">
        <ele>199.8</ele>
        <time>2019-05-11T11:34:42Z</time>
      </trkpt>
      <trkpt lat="44.21889" lon="1.96178">
        <ele>198.5</ele>
        <time>2019-05-11T11:34:47Z</time>
      </trkpt>
      <trkpt lat="44.21892" lon="1.96184">
        <ele>197.9</ele>
        <time>2019-05-11T11:34:51Z</time>
      </trkpt>
      <trkpt lat="44.21895" lon="1.96191">
        <ele>198.2</ele>
        <time>2019-05-11T11:34:56Z</time>
      </trkpt>
      <trkpt lat="44.21897" lon="1.96197">
        <ele>198.1</ele>
        <time>2019-05-11T11:35:01Z</time>
      </trkpt>
      <trkpt lat="44.21901" lon="1.96203">
        <ele>196.7</ele>
        <time>2019-05-11T11:35:07Z</time>
      </trkpt>
      <trkpt lat="44.21904" lon="1.96207">
        <ele>196.4</ele>
        <time>2019-05-11T11:35:10Z</time>
      </trkpt>
      <trkpt lat="44.21907" lon="1.96212">
        <ele>196.5</ele>
        <time>2019-05-11T11:35:13Z</time>
      </trkpt>
      <trkpt lat="44.21909" lon="1.9622">
        <ele>197.5</ele>
        <time>2019-05-11T11:35:17Z</time>
      </trkpt>
      <trkpt lat="44.2191" lon="1.96227">
        <ele>197.7</ele>
        <time>2019-05-11T11:35:22Z</time>
      </trkpt>
      <trkpt lat="44.21912" lon="1.96233">
        <ele>198.7</ele>
        <time>2019-05-11T11:35:26Z</time>
      </trkpt>
      <trkpt lat="44.21913" lon="1.96239">
        <ele>198.3</ele>
        <time>2019-05-11T11:35:30Z</time>
      </trkpt>
      <trkpt lat="44.21914" lon="1.96247">
        <ele>196.5</ele>
        <time>2019-05-11T11:35:36Z</time>
      </trkpt>
      <trkpt lat="44.21917" lon="1.96253">
        <ele>196.3</ele>
        <time>2019-05-11T11:35:40Z</time>
      </trkpt>
      <trkpt lat="44.2192" lon="1.96258">
        <ele>195.6</ele>
        <time>2019-05-11T11:35:44Z</time>
      </trkpt>
      <trkpt lat="44.21923" lon="1.96263">
        <ele>195.6</ele>
        <time>2019-05-11T11:35:48Z</time>
      </trkpt>
      <trkpt lat="44.21925" lon="1.9627">
        <ele>195.8</ele>
        <time>2019-05-11T11:35:52Z</time>
      </trkpt>
      <trkpt lat="44.21927" lon="1.96276">
        <ele>194.8</ele>
        <time>2019-05-11T11:35:56Z</time>
      </trkpt>
      <trkpt lat="44.2193" lon="1.96283">
        <ele>193.8</ele>
        <time>2019-05-11T11:36:01Z</time>
      </trkpt>
      <trkpt lat="44.21931" lon="1.96289">
        <ele>193.8</ele>
        <time>2019-05-11T11:36:05Z</time>
      </trkpt>
      <trkpt lat="44.21932" lon="1.96295">
        <ele>193.9</ele>
        <time>2019-05-11T11:36:08Z</time>
      </trkpt>
      <trkpt lat="44.21934" lon="1.96302">
        <ele>193.7</ele>
        <time>2019-05-11T11:36:12Z</time>
      </trkpt>
      <trkpt lat="44.21937" lon="1.96309">
        <ele>194.1</ele>
        <time>2019-05-11T11:36:17Z</time>
      </trkpt>
      <trkpt lat="44.21939" lon="1.96316">
        <ele>195.2</ele>
        <time>2019-05-11T11:36:21Z</time>
      </trkpt>
      <trkpt lat="44.21941" lon="1.96323">
        <ele>197</ele>
        <time>2019-05-11T11:36:25Z</time>
      </trkpt>
      <trkpt lat="44.21943" lon="1.9633">
        <ele>198</ele>
        <time>2019-05-11T11:36:30Z</time>
      </trkpt>
      <trkpt lat="44.21945" lon="1.96336">
        <ele>198.1</ele>
        <time>2019-05-11T11:36:34Z</time>
      </trkpt>
      <trkpt lat="44.21947" lon="1.96343">
        <ele>197.9</ele>
        <time>2019-05-11T11:36:38Z</time>
      </trkpt>
      <trkpt lat="44.21949" lon="1.96349">
        <ele>198.1</ele>
        <time>2019-05-11T11:36:42Z</time>
      </trkpt>
      <trkpt lat="44.21952" lon="1.96355">
        <ele>198.7</ele>
        <time>2019-05-11T11:36:46Z</time>
      </trkpt>
      <trkpt lat="44.21956" lon="1.96359">
        <ele>199.2</ele>
        <time>2019-05-11T11:36:49Z</time>
      </trkpt>
      <trkpt lat="44.21959" lon="1.96365">
        <ele>200.1</ele>
        <time>2019-05-11T11:36:56Z</time>
      </trkpt>
      <trkpt lat="44.21963" lon="1.96367">
        <ele>199.8</ele>
        <time>2019-05-11T11:37:00Z</time>
      </trkpt>
      <trkpt lat="44.21969" lon="1.96374">
        <ele>193.5</ele>
        <time>2019-05-11T11:37:14Z</time>
      </trkpt>
      <trkpt lat="44.21971" lon="1.96381">
        <ele>192.8</ele>
        <time>2019-05-11T11:37:18Z</time>
      </trkpt>
      <trkpt lat="44.21974" lon="1.96386">
        <ele>192.9</ele>
        <time>2019-05-11T11:37:23Z</time>
      </trkpt>
      <trkpt lat="44.21977" lon="1.96391">
        <ele>192.8</ele>
        <time>2019-05-11T11:37:27Z</time>
      </trkpt>
      <trkpt lat="44.21979" lon="1.96397">
        <ele>192.2</ele>
        <time>2019-05-11T11:37:31Z</time>
      </trkpt>
      <trkpt lat="44.21983" lon="1.964">
        <ele>191.6</ele>
        <time>2019-05-11T11:37:36Z</time>
      </trkpt>
      <trkpt lat="44.21986" lon="1.96406">
        <ele>191.5</ele>
        <time>2019-05-11T11:37:40Z</time>
      </trkpt>
      <trkpt lat="44.21988" lon="1.96412">
        <ele>190.8</ele>
        <time>2019-05-11T11:37:45Z</time>
      </trkpt>
      <trkpt lat="44.2199" lon="1.96419">
        <ele>190.5</ele>
        <time>2019-05-11T11:37:49Z</time>
      </trkpt>
      <trkpt lat="44.21993" lon="1.96425">
        <ele>190.9</ele>
        <time>2019-05-11T11:37:53Z</time>
      </trkpt>
      <trkpt lat="44.21996" lon="1.96432">
        <ele>191.4</ele>
        <time>2019-05-11T11:37:57Z</time>
      </trkpt>
      <trkpt lat="44.21998" lon="1.96439">
        <ele>193.4</ele>
        <time>2019-05-11T11:38:02Z</time>
      </trkpt>
      <trkpt lat="44.22" lon="1.96445">
        <ele>193.8</ele>
        <time>2019-05-11T11:38:05Z</time>
      </trkpt>
      <trkpt lat="44.22001" lon="1.96453">
        <ele>194.1</ele>
        <time>2019-05-11T11:38:10Z</time>
      </trkpt>
      <trkpt lat="44.22001" lon="1.96459">
        <ele>195.5</ele>
        <time>2019-05-11T11:38:15Z</time>
      </trkpt>
      <trkpt lat="44.22001" lon="1.96467">
        <ele>196.3</ele>
        <time>2019-05-11T11:38:21Z</time>
      </trkpt>
      <trkpt lat="44.22002" lon="1.96474">
        <ele>197.3</ele>
        <time>2019-05-11T11:38:25Z</time>
      </trkpt>
      <trkpt lat="44.22003" lon="1.96482">
        <ele>197.4</ele>
        <time>2019-05-11T11:38:30Z</time>
      </trkpt>
      <trkpt lat="44.22002" lon="1.96489">
        <ele>198</ele>
        <time>2019-05-11T11:38:33Z</time>
      </trkpt>
      <trkpt lat="44.22003" lon="1.96496">
        <ele>198.3</ele>
        <time>2019-05-11T11:38:37Z</time>
      </trkpt>
      <trkpt lat="44.22004" lon="1.96502">
        <ele>198.1</ele>
        <time>2019-05-11T11:38:41Z</time>
      </trkpt>
      <trkpt lat="44.22006" lon="1.96509">
        <ele>197.6</ele>
        <time>2019-05-11T11:38:46Z</time>
      </trkpt>
      <trkpt lat="44.22006" lon="1.96516">
        <ele>197.3</ele>
        <time>2019-05-11T11:38:51Z</time>
      </trkpt>
      <trkpt lat="44.22007" lon="1.96522">
        <ele>197.1</ele>
        <time>2019-05-11T11:38:54Z</time>
      </trkpt>
      <trkpt lat="44.22007" lon="1.96529">
        <ele>198</ele>
        <time>2019-05-11T11:38:57Z</time>
      </trkpt>
      <trkpt lat="44.22007" lon="1.96537">
        <ele>198.6</ele>
        <time>2019-05-11T11:39:01Z</time>
      </trkpt>
      <trkpt lat="44.22008" lon="1.96544">
        <ele>198.9</ele>
        <time>2019-05-11T11:39:05Z</time>
      </trkpt>
      <trkpt lat="44.22006" lon="1.96551">
        <ele>198.6</ele>
        <time>2019-05-11T11:39:10Z</time>
      </trkpt>
      <trkpt lat="44.22007" lon="1.96558">
        <ele>198.3</ele>
        <time>2019-05-11T11:39:14Z</time>
      </trkpt>
      <trkpt lat="44.22009" lon="1.96564">
        <ele>197.9</ele>
        <time>2019-05-11T11:39:18Z</time>
      </trkpt>
      <trkpt lat="44.2201" lon="1.96571">
        <ele>197.3</ele>
        <time>2019-05-11T11:39:22Z</time>
      </trkpt>
      <trkpt lat="44.22012" lon="1.96577">
        <ele>197.1</ele>
        <time>2019-05-11T11:39:25Z</time>
      </trkpt>
      <trkpt lat="44.22014" lon="1.96585">
        <ele>197.7</ele>
        <time>2019-05-11T11:39:29Z</time>
      </trkpt>
      <trkpt lat="44.22014" lon="1.96592">
        <ele>197.4</ele>
        <time>2019-05-11T11:39:34Z</time>
      </trkpt>
      <trkpt lat="44.22033" lon="1.96634">
        <ele>193.9</ele>
        <time>2019-05-11T11:40:02Z</time>
      </trkpt>
      <trkpt lat="44.22036" lon="1.9664">
        <ele>193.9</ele>
        <time>2019-05-11T11:40:06Z</time>
      </trkpt>
      <trkpt lat="44.22039" lon="1.96644">
        <ele>194.5</ele>
        <time>2019-05-11T11:40:09Z</time>
      </trkpt>
      <trkpt lat="44.22043" lon="1.96648">
        <ele>194.9</ele>
        <time>2019-05-11T11:40:12Z</time>
      </trkpt>
      <trkpt lat="44.22047" lon="1.96654">
        <ele>196.5</ele>
        <time>2019-05-11T11:40:16Z</time>
      </trkpt>
      <trkpt lat="44.22048" lon="1.9666">
        <ele>198</ele>
        <time>2019-05-11T11:40:19Z</time>
      </trkpt>
      <trkpt lat="44.22051" lon="1.96666">
        <ele>198.7</ele>
        <time>2019-05-11T11:40:23Z</time>
      </trkpt>
      <trkpt lat="44.2206" lon="1.96668">
        <ele>191.2</ele>
        <time>2019-05-11T11:40:34Z</time>
      </trkpt>
      <trkpt lat="44.22071" lon="1.96681">
        <ele>190.6</ele>
        <time>2019-05-11T11:40:49Z</time>
      </trkpt>
      <trkpt lat="44.22077" lon="1.96689">
        <ele>193.6</ele>
        <time>2019-05-11T11:40:52Z</time>
      </trkpt>
      <trkpt lat="44.22081" lon="1.96693">
        <ele>195.5</ele>
        <time>2019-05-11T11:40:54Z</time>
      </trkpt>
      <trkpt lat="44.22085" lon="1.96695">
        <ele>195.9</ele>
        <time>2019-05-11T11:40:57Z</time>
      </trkpt>
      <trkpt lat="44.2209" lon="1.96698">
        <ele>196.7</ele>
        <time>2019-05-11T11:41:01Z</time>
      </trkpt>
      <trkpt lat="44.22092" lon="1.96704">
        <ele>198.3</ele>
        <time>2019-05-11T11:41:05Z</time>
      </trkpt>
      <trkpt lat="44.22095" lon="1.96709">
        <ele>199.5</ele>
        <time>2019-05-11T11:41:10Z</time>
      </trkpt>
      <trkpt lat="44.221" lon="1.96711">
        <ele>199.5</ele>
        <time>2019-05-11T11:41:18Z</time>
      </trkpt>
      <trkpt lat="44.22104" lon="1.96707">
        <ele>198.4</ele>
        <time>2019-05-11T11:41:23Z</time>
      </trkpt>
      <trkpt lat="44.2211" lon="1.96707">
        <ele>199.1</ele>
        <time>2019-05-11T11:41:29Z</time>
      </trkpt>
      <trkpt lat="44.22115" lon="1.96708">
        <ele>198.8</ele>
        <time>2019-05-11T11:41:36Z</time>
      </trkpt>
      <trkpt lat="44.22119" lon="1.96713">
        <ele>198.3</ele>
        <time>2019-05-11T11:41:41Z</time>
      </trkpt>
      <trkpt lat="44.22123" lon="1.96716">
        <ele>198.6</ele>
        <time>2019-05-11T11:41:45Z</time>
      </trkpt>
      <trkpt lat="44.22128" lon="1.96717">
        <ele>198.2</ele>
        <time>2019-05-11T11:41:50Z</time>
      </trkpt>
      <trkpt lat="44.22131" lon="1.96721">
        <ele>198.4</ele>
        <time>2019-05-11T11:41:58Z</time>
      </trkpt>
    </trkseg>
  </trk>
  <trk>
    <name><![CDATA[Points de vue sur Najac et la vallée de l'Aveyron_2]]></name>
    <trkseg>
      <trkpt lat="44.22137" lon="1.96739">
        <ele>199.1</ele>
        <time>2019-05-11T12:24:04Z</time>
      </trkpt>
      <trkpt lat="44.22141" lon="1.96744">
        <ele>199.9</ele>
        <time>2019-05-11T12:24:10Z</time>
      </trkpt>
      <trkpt lat="44.22136" lon="1.96748">
        <ele>200</ele>
        <time>2019-05-11T12:24:15Z</time>
      </trkpt>
      <trkpt lat="44.22136" lon="1.96755">
        <ele>197.3</ele>
        <time>2019-05-11T12:24:26Z</time>
      </trkpt>
      <trkpt lat="44.22135" lon="1.96763">
        <ele>195.8</ele>
        <time>2019-05-11T12:24:34Z</time>
      </trkpt>
      <trkpt lat="44.22135" lon="1.9677">
        <ele>195.4</ele>
        <time>2019-05-11T12:24:38Z</time>
      </trkpt>
      <trkpt lat="44.22136" lon="1.96778">
        <ele>196.1</ele>
        <time>2019-05-11T12:24:42Z</time>
      </trkpt>
      <trkpt lat="44.22135" lon="1.96786">
        <ele>197.2</ele>
        <time>2019-05-11T12:24:45Z</time>
      </trkpt>
      <trkpt lat="44.22132" lon="1.96793">
        <ele>198.7</ele>
        <time>2019-05-11T12:24:50Z</time>
      </trkpt>
      <trkpt lat="44.22127" lon="1.96794">
        <ele>198</ele>
        <time>2019-05-11T12:24:56Z</time>
      </trkpt>
      <trkpt lat="44.22122" lon="1.96793">
        <ele>198.3</ele>
        <time>2019-05-11T12:25:00Z</time>
      </trkpt>
      <trkpt lat="44.22117" lon="1.96794">
        <ele>197.2</ele>
        <time>2019-05-11T12:25:05Z</time>
      </trkpt>
      <trkpt lat="44.22113" lon="1.96798">
        <ele>196.3</ele>
        <time>2019-05-11T12:25:09Z</time>
      </trkpt>
      <trkpt lat="44.22108" lon="1.96801">
        <ele>195</ele>
        <time>2019-05-11T12:25:12Z</time>
      </trkpt>
      <trkpt lat="44.22105" lon="1.96804">
        <ele>193</ele>
        <time>2019-05-11T12:25:19Z</time>
      </trkpt>
      <trkpt lat="44.221" lon="1.96807">
        <ele>192.4</ele>
        <time>2019-05-11T12:25:25Z</time>
      </trkpt>
      <trkpt lat="44.22095" lon="1.9681">
        <ele>192.4</ele>
        <time>2019-05-11T12:25:31Z</time>
      </trkpt>
      <trkpt lat="44.22092" lon="1.96815">
        <ele>195.3</ele>
        <time>2019-05-11T12:25:36Z</time>
      </trkpt>
      <trkpt lat="44.22092" lon="1.96822">
        <ele>196.1</ele>
        <time>2019-05-11T12:25:40Z</time>
      </trkpt>
      <trkpt lat="44.22092" lon="1.9683">
        <ele>195.9</ele>
        <time>2019-05-11T12:25:44Z</time>
      </trkpt>
      <trkpt lat="44.22092" lon="1.96837">
        <ele>196.4</ele>
        <time>2019-05-11T12:25:48Z</time>
      </trkpt>
      <trkpt lat="44.22092" lon="1.96843">
        <ele>197</ele>
        <time>2019-05-11T12:25:51Z</time>
      </trkpt>
      <trkpt lat="44.22092" lon="1.9685">
        <ele>198.1</ele>
        <time>2019-05-11T12:25:55Z</time>
      </trkpt>
      <trkpt lat="44.22094" lon="1.96857">
        <ele>199.3</ele>
        <time>2019-05-11T12:25:59Z</time>
      </trkpt>
      <trkpt lat="44.22093" lon="1.96863">
        <ele>200.7</ele>
        <time>2019-05-11T12:26:05Z</time>
      </trkpt>
      <trkpt lat="44.22097" lon="1.96867">
        <ele>200.5</ele>
        <time>2019-05-11T12:26:09Z</time>
      </trkpt>
      <trkpt lat="44.22093" lon="1.96872">
        <ele>201.1</ele>
        <time>2019-05-11T12:26:13Z</time>
      </trkpt>
      <trkpt lat="44.22091" lon="1.9688">
        <ele>200.8</ele>
        <time>2019-05-11T12:26:17Z</time>
      </trkpt>
      <trkpt lat="44.22087" lon="1.96885">
        <ele>200</ele>
        <time>2019-05-11T12:26:21Z</time>
      </trkpt>
      <trkpt lat="44.22083" lon="1.9689">
        <ele>199.9</ele>
        <time>2019-05-11T12:26:26Z</time>
      </trkpt>
      <trkpt lat="44.22078" lon="1.96892">
        <ele>200</ele>
        <time>2019-05-11T12:26:29Z</time>
      </trkpt>
      <trkpt lat="44.22073" lon="1.96891">
        <ele>199.3</ele>
        <time>2019-05-11T12:26:36Z</time>
      </trkpt>
      <trkpt lat="44.22068" lon="1.96892">
        <ele>198.6</ele>
        <time>2019-05-11T12:27:00Z</time>
      </trkpt>
      <trkpt lat="44.22064" lon="1.96892">
        <ele>197.3</ele>
        <time>2019-05-11T12:27:08Z</time>
      </trkpt>
      <trkpt lat="44.22059" lon="1.96892">
        <ele>197.2</ele>
        <time>2019-05-11T12:27:11Z</time>
      </trkpt>
      <trkpt lat="44.22054" lon="1.96891">
        <ele>197.2</ele>
        <time>2019-05-11T12:27:14Z</time>
      </trkpt>
      <trkpt lat="44.22047" lon="1.96893">
        <ele>197.9</ele>
        <time>2019-05-11T12:27:17Z</time>
      </trkpt>
      <trkpt lat="44.22042" lon="1.96894">
        <ele>198.2</ele>
        <time>2019-05-11T12:27:20Z</time>
      </trkpt>
      <trkpt lat="44.22037" lon="1.96895">
        <ele>199.3</ele>
        <time>2019-05-11T12:27:23Z</time>
      </trkpt>
      <trkpt lat="44.22033" lon="1.96898">
        <ele>200.5</ele>
        <time>2019-05-11T12:27:27Z</time>
      </trkpt>
      <trkpt lat="44.22021" lon="1.96904">
        <ele>202.3</ele>
        <time>2019-05-11T12:27:44Z</time>
      </trkpt>
      <trkpt lat="44.22017" lon="1.969">
        <ele>201.9</ele>
        <time>2019-05-11T12:27:46Z</time>
      </trkpt>
      <trkpt lat="44.22014" lon="1.96905">
        <ele>201.5</ele>
        <time>2019-05-11T12:28:04Z</time>
      </trkpt>
      <trkpt lat="44.22018" lon="1.96921">
        <ele>201.6</ele>
        <time>2019-05-11T12:28:16Z</time>
      </trkpt>
      <trkpt lat="44.22017" lon="1.9694">
        <ele>204</ele>
        <time>2019-05-11T12:28:29Z</time>
      </trkpt>
      <trkpt lat="44.22018" lon="1.96947">
        <ele>204.8</ele>
        <time>2019-05-11T12:28:33Z</time>
      </trkpt>
      <trkpt lat="44.22017" lon="1.96955">
        <ele>205.3</ele>
        <time>2019-05-11T12:28:38Z</time>
      </trkpt>
      <trkpt lat="44.22015" lon="1.96961">
        <ele>205</ele>
        <time>2019-05-11T12:28:43Z</time>
      </trkpt>
      <trkpt lat="44.22019" lon="1.96968">
        <ele>206</ele>
        <time>2019-05-11T12:28:47Z</time>
      </trkpt>
      <trkpt lat="44.22021" lon="1.96975">
        <ele>206.5</ele>
        <time>2019-05-11T12:28:51Z</time>
      </trkpt>
      <trkpt lat="44.22022" lon="1.96981">
        <ele>206.3</ele>
        <time>2019-05-11T12:28:56Z</time>
      </trkpt>
      <trkpt lat="44.22011" lon="1.97039">
        <ele>210.7</ele>
        <time>2019-05-11T12:29:39Z</time>
      </trkpt>
      <trkpt lat="44.2202" lon="1.9706">
        <ele>213.1</ele>
        <time>2019-05-11T12:29:53Z</time>
      </trkpt>
      <trkpt lat="44.22021" lon="1.97068">
        <ele>213.3</ele>
        <time>2019-05-11T12:29:57Z</time>
      </trkpt>
      <trkpt lat="44.22007" lon="1.97057">
        <ele>206.5</ele>
        <time>2019-05-11T12:31:01Z</time>
      </trkpt>
      <trkpt lat="44.22007" lon="1.9705">
        <ele>206.4</ele>
        <time>2019-05-11T12:31:03Z</time>
      </trkpt>
      <trkpt lat="44.22009" lon="1.97044">
        <ele>207</ele>
        <time>2019-05-11T12:31:05Z</time>
      </trkpt>
      <trkpt lat="44.22005" lon="1.97037">
        <ele>207.5</ele>
        <time>2019-05-11T12:31:08Z</time>
      </trkpt>
      <trkpt lat="44.22006" lon="1.97029">
        <ele>209.4</ele>
        <time>2019-05-11T12:31:11Z</time>
      </trkpt>
      <trkpt lat="44.22011" lon="1.97023">
        <ele>210.3</ele>
        <time>2019-05-11T12:31:13Z</time>
      </trkpt>
      <trkpt lat="44.22009" lon="1.97017">
        <ele>212.6</ele>
        <time>2019-05-11T12:31:18Z</time>
      </trkpt>
      <trkpt lat="44.22013" lon="1.97012">
        <ele>216</ele>
        <time>2019-05-11T12:31:24Z</time>
      </trkpt>
      <trkpt lat="44.22005" lon="1.97006">
        <ele>220</ele>
        <time>2019-05-11T12:31:53Z</time>
      </trkpt>
      <trkpt lat="44.22001" lon="1.97002">
        <ele>219.1</ele>
        <time>2019-05-11T12:31:55Z</time>
      </trkpt>
      <trkpt lat="44.22" lon="1.96996">
        <ele>218.8</ele>
        <time>2019-05-11T12:31:57Z</time>
      </trkpt>
      <trkpt lat="44.21999" lon="1.96988">
        <ele>219.6</ele>
        <time>2019-05-11T12:32:02Z</time>
      </trkpt>
      <trkpt lat="44.22" lon="1.96982">
        <ele>220.4</ele>
        <time>2019-05-11T12:32:05Z</time>
      </trkpt>
      <trkpt lat="44.21995" lon="1.96978">
        <ele>220.1</ele>
        <time>2019-05-11T12:32:07Z</time>
      </trkpt>
      <trkpt lat="44.2199" lon="1.96976">
        <ele>220.4</ele>
        <time>2019-05-11T12:32:09Z</time>
      </trkpt>
      <trkpt lat="44.21985" lon="1.96972">
        <ele>220.5</ele>
        <time>2019-05-11T12:32:12Z</time>
      </trkpt>
      <trkpt lat="44.21983" lon="1.96966">
        <ele>221.5</ele>
        <time>2019-05-11T12:32:19Z</time>
      </trkpt>
      <trkpt lat="44.21978" lon="1.96961">
        <ele>223.7</ele>
        <time>2019-05-11T12:32:26Z</time>
      </trkpt>
      <trkpt lat="44.21973" lon="1.96957">
        <ele>224.5</ele>
        <time>2019-05-11T12:32:31Z</time>
      </trkpt>
      <trkpt lat="44.21969" lon="1.96954">
        <ele>223.9</ele>
        <time>2019-05-11T12:32:35Z</time>
      </trkpt>
      <trkpt lat="44.21968" lon="1.96946">
        <ele>223.6</ele>
        <time>2019-05-11T12:32:42Z</time>
      </trkpt>
      <trkpt lat="44.21971" lon="1.96941">
        <ele>222.5</ele>
        <time>2019-05-11T12:32:49Z</time>
      </trkpt>
      <trkpt lat="44.21966" lon="1.96937">
        <ele>223.7</ele>
        <time>2019-05-11T12:33:01Z</time>
      </trkpt>
      <trkpt lat="44.21964" lon="1.9693">
        <ele>223.7</ele>
        <time>2019-05-11T12:33:05Z</time>
      </trkpt>
      <trkpt lat="44.21959" lon="1.96927">
        <ele>223.8</ele>
        <time>2019-05-11T12:33:11Z</time>
      </trkpt>
      <trkpt lat="44.21955" lon="1.96926">
        <ele>223.6</ele>
        <time>2019-05-11T12:33:16Z</time>
      </trkpt>
      <trkpt lat="44.2195" lon="1.96926">
        <ele>223.6</ele>
        <time>2019-05-11T12:33:21Z</time>
      </trkpt>
      <trkpt lat="44.21945" lon="1.96928">
        <ele>223.2</ele>
        <time>2019-05-11T12:33:25Z</time>
      </trkpt>
      <trkpt lat="44.2194" lon="1.96929">
        <ele>222.8</ele>
        <time>2019-05-11T12:33:30Z</time>
      </trkpt>
      <trkpt lat="44.21935" lon="1.96927">
        <ele>225.6</ele>
        <time>2019-05-11T12:33:42Z</time>
      </trkpt>
      <trkpt lat="44.21932" lon="1.96921">
        <ele>229.5</ele>
        <time>2019-05-11T12:33:49Z</time>
      </trkpt>
      <trkpt lat="44.21927" lon="1.96918">
        <ele>230.8</ele>
        <time>2019-05-11T12:33:54Z</time>
      </trkpt>
      <trkpt lat="44.21923" lon="1.96913">
        <ele>231.1</ele>
        <time>2019-05-11T12:34:04Z</time>
      </trkpt>
      <trkpt lat="44.21918" lon="1.96911">
        <ele>230.1</ele>
        <time>2019-05-11T12:34:10Z</time>
      </trkpt>
      <trkpt lat="44.21914" lon="1.96908">
        <ele>231.3</ele>
        <time>2019-05-11T12:34:15Z</time>
      </trkpt>
      <trkpt lat="44.21909" lon="1.96907">
        <ele>232.2</ele>
        <time>2019-05-11T12:34:22Z</time>
      </trkpt>
      <trkpt lat="44.21904" lon="1.96906">
        <ele>232.7</ele>
        <time>2019-05-11T12:34:27Z</time>
      </trkpt>
      <trkpt lat="44.219" lon="1.96904">
        <ele>234.5</ele>
        <time>2019-05-11T12:34:35Z</time>
      </trkpt>
      <trkpt lat="44.21894" lon="1.96904">
        <ele>235.5</ele>
        <time>2019-05-11T12:34:42Z</time>
      </trkpt>
      <trkpt lat="44.21889" lon="1.96905">
        <ele>237</ele>
        <time>2019-05-11T12:34:47Z</time>
      </trkpt>
      <trkpt lat="44.21886" lon="1.969">
        <ele>239.7</ele>
        <time>2019-05-11T12:35:02Z</time>
      </trkpt>
      <trkpt lat="44.2188" lon="1.96898">
        <ele>239.8</ele>
        <time>2019-05-11T12:35:26Z</time>
      </trkpt>
      <trkpt lat="44.21875" lon="1.96897">
        <ele>241.3</ele>
        <time>2019-05-11T12:35:29Z</time>
      </trkpt>
      <trkpt lat="44.2187" lon="1.96893">
        <ele>243.4</ele>
        <time>2019-05-11T12:35:33Z</time>
      </trkpt>
      <trkpt lat="44.21865" lon="1.96891">
        <ele>245.1</ele>
        <time>2019-05-11T12:35:36Z</time>
      </trkpt>
      <trkpt lat="44.21862" lon="1.96885">
        <ele>248.3</ele>
        <time>2019-05-11T12:35:42Z</time>
      </trkpt>
      <trkpt lat="44.21859" lon="1.96879">
        <ele>251.5</ele>
        <time>2019-05-11T12:35:48Z</time>
      </trkpt>
      <trkpt lat="44.21854" lon="1.96877">
        <ele>252.7</ele>
        <time>2019-05-11T12:35:52Z</time>
      </trkpt>
      <trkpt lat="44.21857" lon="1.96872">
        <ele>253.4</ele>
        <time>2019-05-11T12:35:57Z</time>
      </trkpt>
      <trkpt lat="44.21857" lon="1.96865">
        <ele>253.6</ele>
        <time>2019-05-11T12:36:02Z</time>
      </trkpt>
      <trkpt lat="44.21852" lon="1.96864">
        <ele>253.3</ele>
        <time>2019-05-11T12:36:09Z</time>
      </trkpt>
      <trkpt lat="44.21848" lon="1.96867">
        <ele>253.7</ele>
        <time>2019-05-11T12:36:15Z</time>
      </trkpt>
      <trkpt lat="44.21843" lon="1.96869">
        <ele>255.5</ele>
        <time>2019-05-11T12:36:22Z</time>
      </trkpt>
      <trkpt lat="44.21838" lon="1.96871">
        <ele>257.2</ele>
        <time>2019-05-11T12:36:29Z</time>
      </trkpt>
      <trkpt lat="44.21833" lon="1.96872">
        <ele>258.1</ele>
        <time>2019-05-11T12:36:33Z</time>
      </trkpt>
      <trkpt lat="44.21826" lon="1.96872">
        <ele>259.9</ele>
        <time>2019-05-11T12:36:41Z</time>
      </trkpt>
      <trkpt lat="44.21822" lon="1.96871">
        <ele>261.5</ele>
        <time>2019-05-11T12:36:49Z</time>
      </trkpt>
      <trkpt lat="44.21817" lon="1.96873">
        <ele>264.8</ele>
        <time>2019-05-11T12:37:28Z</time>
      </trkpt>
      <trkpt lat="44.21812" lon="1.96874">
        <ele>263.7</ele>
        <time>2019-05-11T12:37:33Z</time>
      </trkpt>
      <trkpt lat="44.21807" lon="1.96873">
        <ele>264.5</ele>
        <time>2019-05-11T12:37:37Z</time>
      </trkpt>
      <trkpt lat="44.21802" lon="1.96874">
        <ele>265.3</ele>
        <time>2019-05-11T12:37:42Z</time>
      </trkpt>
      <trkpt lat="44.21797" lon="1.96873">
        <ele>266.5</ele>
        <time>2019-05-11T12:37:47Z</time>
      </trkpt>
      <trkpt lat="44.21792" lon="1.96876">
        <ele>267.6</ele>
        <time>2019-05-11T12:37:52Z</time>
      </trkpt>
      <trkpt lat="44.21788" lon="1.96878">
        <ele>268.3</ele>
        <time>2019-05-11T12:37:58Z</time>
      </trkpt>
      <trkpt lat="44.21784" lon="1.96883">
        <ele>268.7</ele>
        <time>2019-05-11T12:38:06Z</time>
      </trkpt>
      <trkpt lat="44.21765" lon="1.96909">
        <ele>271.4</ele>
        <time>2019-05-11T12:38:23Z</time>
      </trkpt>
      <trkpt lat="44.2177" lon="1.96914">
        <ele>275.7</ele>
        <time>2019-05-11T12:38:33Z</time>
      </trkpt>
      <trkpt lat="44.21774" lon="1.9692">
        <ele>278.7</ele>
        <time>2019-05-11T12:40:13Z</time>
      </trkpt>
      <trkpt lat="44.2177" lon="1.96926">
        <ele>276.9</ele>
        <time>2019-05-11T12:44:30Z</time>
      </trkpt>
      <trkpt lat="44.21767" lon="1.96933">
        <ele>276.6</ele>
        <time>2019-05-11T12:44:34Z</time>
      </trkpt>
      <trkpt lat="44.21765" lon="1.96938">
        <ele>276.5</ele>
        <time>2019-05-11T12:44:38Z</time>
      </trkpt>
      <trkpt lat="44.21765" lon="1.96945">
        <ele>276.3</ele>
        <time>2019-05-11T12:44:42Z</time>
      </trkpt>
      <trkpt lat="44.21762" lon="1.96951">
        <ele>277.2</ele>
        <time>2019-05-11T12:44:47Z</time>
      </trkpt>
      <trkpt lat="44.21757" lon="1.96955">
        <ele>277.6</ele>
        <time>2019-05-11T12:44:50Z</time>
      </trkpt>
      <trkpt lat="44.21754" lon="1.96959">
        <ele>275.4</ele>
        <time>2019-05-11T12:45:00Z</time>
      </trkpt>
      <trkpt lat="44.21754" lon="1.96964">
        <ele>280</ele>
        <time>2019-05-11T12:45:13Z</time>
      </trkpt>
      <trkpt lat="44.21749" lon="1.96968">
        <ele>278.4</ele>
        <time>2019-05-11T12:45:18Z</time>
      </trkpt>
      <trkpt lat="44.21746" lon="1.96974">
        <ele>277.8</ele>
        <time>2019-05-11T12:45:22Z</time>
      </trkpt>
      <trkpt lat="44.21744" lon="1.96979">
        <ele>278.3</ele>
        <time>2019-05-11T12:45:27Z</time>
      </trkpt>
      <trkpt lat="44.21742" lon="1.96985">
        <ele>280.5</ele>
        <time>2019-05-11T12:45:35Z</time>
      </trkpt>
      <trkpt lat="44.21743" lon="1.97001">
        <ele>285.9</ele>
        <time>2019-05-11T12:46:31Z</time>
      </trkpt>
      <trkpt lat="44.21745" lon="1.97006">
        <ele>296</ele>
        <time>2019-05-11T12:47:10Z</time>
      </trkpt>
      <trkpt lat="44.21749" lon="1.97016">
        <ele>294.4</ele>
        <time>2019-05-11T12:47:19Z</time>
      </trkpt>
      <trkpt lat="44.21751" lon="1.97022">
        <ele>295.4</ele>
        <time>2019-05-11T12:47:26Z</time>
      </trkpt>
      <trkpt lat="44.21753" lon="1.97029">
        <ele>294.9</ele>
        <time>2019-05-11T12:47:32Z</time>
      </trkpt>
      <trkpt lat="44.2176" lon="1.97037">
        <ele>294.2</ele>
        <time>2019-05-11T12:47:40Z</time>
      </trkpt>
      <trkpt lat="44.21761" lon="1.97044">
        <ele>295.6</ele>
        <time>2019-05-11T12:47:44Z</time>
      </trkpt>
      <trkpt lat="44.21763" lon="1.97049">
        <ele>297.5</ele>
        <time>2019-05-11T12:47:52Z</time>
      </trkpt>
      <trkpt lat="44.21766" lon="1.97055">
        <ele>298.5</ele>
        <time>2019-05-11T12:47:58Z</time>
      </trkpt>
      <trkpt lat="44.2177" lon="1.9706">
        <ele>298.7</ele>
        <time>2019-05-11T12:48:05Z</time>
      </trkpt>
      <trkpt lat="44.21766" lon="1.97077">
        <ele>303.5</ele>
        <time>2019-05-11T12:48:24Z</time>
      </trkpt>
      <trkpt lat="44.21769" lon="1.97074">
        <ele>306.9</ele>
        <time>2019-05-11T12:49:30Z</time>
      </trkpt>
      <trkpt lat="44.21769" lon="1.97068">
        <ele>304.2</ele>
        <time>2019-05-11T12:49:42Z</time>
      </trkpt>
    </trkseg>
  </trk>
  <trk>
    <name><![CDATA[Points de vue sur Najac et la vallée de l'Aveyron_3]]></name>
    <trkseg>
      <trkpt lat="44.21775" lon="1.97089">
        <ele>297.1</ele>
        <time>2019-05-11T13:33:23Z</time>
      </trkpt>
      <trkpt lat="44.21763" lon="1.97134">
        <ele>304.4</ele>
        <time>2019-05-11T13:34:20Z</time>
      </trkpt>
      <trkpt lat="44.21763" lon="1.97141">
        <ele>309.2</ele>
        <time>2019-05-11T13:34:37Z</time>
      </trkpt>
      <trkpt lat="44.21762" lon="1.97148">
        <ele>311.5</ele>
        <time>2019-05-11T13:34:41Z</time>
      </trkpt>
      <trkpt lat="44.21764" lon="1.97161">
        <ele>316</ele>
        <time>2019-05-11T13:36:03Z</time>
      </trkpt>
      <trkpt lat="44.21766" lon="1.97168">
        <ele>314.9</ele>
        <time>2019-05-11T13:36:05Z</time>
      </trkpt>
      <trkpt lat="44.21768" lon="1.97175">
        <ele>313.6</ele>
        <time>2019-05-11T13:36:07Z</time>
      </trkpt>
      <trkpt lat="44.21765" lon="1.9718">
        <ele>312.7</ele>
        <time>2019-05-11T13:36:10Z</time>
      </trkpt>
      <trkpt lat="44.2177" lon="1.97212">
        <ele>315.1</ele>
        <time>2019-05-11T13:36:58Z</time>
      </trkpt>
      <trkpt lat="44.21772" lon="1.97223">
        <ele>319.9</ele>
        <time>2019-05-11T13:39:54Z</time>
      </trkpt>
      <trkpt lat="44.21773" lon="1.9723">
        <ele>320.1</ele>
        <time>2019-05-11T13:39:58Z</time>
      </trkpt>
      <trkpt lat="44.21773" lon="1.97248">
        <ele>326.3</ele>
        <time>2019-05-11T13:40:07Z</time>
      </trkpt>
      <trkpt lat="44.21775" lon="1.97255">
        <ele>327.1</ele>
        <time>2019-05-11T13:40:16Z</time>
      </trkpt>
      <trkpt lat="44.21776" lon="1.97272">
        <ele>323.2</ele>
        <time>2019-05-11T13:40:42Z</time>
      </trkpt>
      <trkpt lat="44.21777" lon="1.97279">
        <ele>324.7</ele>
        <time>2019-05-11T13:40:50Z</time>
      </trkpt>
      <trkpt lat="44.21778" lon="1.97285">
        <ele>324.3</ele>
        <time>2019-05-11T13:40:58Z</time>
      </trkpt>
      <trkpt lat="44.21778" lon="1.97293">
        <ele>325</ele>
        <time>2019-05-11T13:41:04Z</time>
      </trkpt>
      <trkpt lat="44.21777" lon="1.97299">
        <ele>326.6</ele>
        <time>2019-05-11T13:41:12Z</time>
      </trkpt>
      <trkpt lat="44.21778" lon="1.97306">
        <ele>326.2</ele>
        <time>2019-05-11T13:41:20Z</time>
      </trkpt>
      <trkpt lat="44.21779" lon="1.97313">
        <ele>325.1</ele>
        <time>2019-05-11T13:41:55Z</time>
      </trkpt>
      <trkpt lat="44.21781" lon="1.9732">
        <ele>324.8</ele>
        <time>2019-05-11T13:41:57Z</time>
      </trkpt>
      <trkpt lat="44.21783" lon="1.97328">
        <ele>324.8</ele>
        <time>2019-05-11T13:41:59Z</time>
      </trkpt>
      <trkpt lat="44.21786" lon="1.97334">
        <ele>324.7</ele>
        <time>2019-05-11T13:42:01Z</time>
      </trkpt>
      <trkpt lat="44.21794" lon="1.97347">
        <ele>327.8</ele>
        <time>2019-05-11T13:42:17Z</time>
      </trkpt>
      <trkpt lat="44.21794" lon="1.97354">
        <ele>326.8</ele>
        <time>2019-05-11T13:42:22Z</time>
      </trkpt>
      <trkpt lat="44.21796" lon="1.9736">
        <ele>321.1</ele>
        <time>2019-05-11T13:43:08Z</time>
      </trkpt>
      <trkpt lat="44.21798" lon="1.97366">
        <ele>321</ele>
        <time>2019-05-11T13:43:22Z</time>
      </trkpt>
      <trkpt lat="44.21797" lon="1.97372">
        <ele>321.3</ele>
        <time>2019-05-11T13:43:47Z</time>
      </trkpt>
      <trkpt lat="44.21801" lon="1.97376">
        <ele>320.8</ele>
        <time>2019-05-11T13:44:07Z</time>
      </trkpt>
      <trkpt lat="44.21803" lon="1.97383">
        <ele>322.2</ele>
        <time>2019-05-11T13:44:23Z</time>
      </trkpt>
      <trkpt lat="44.21802" lon="1.9739">
        <ele>325</ele>
        <time>2019-05-11T13:44:27Z</time>
      </trkpt>
      <trkpt lat="44.21803" lon="1.97398">
        <ele>325.8</ele>
        <time>2019-05-11T13:44:32Z</time>
      </trkpt>
      <trkpt lat="44.21806" lon="1.97404">
        <ele>326.4</ele>
        <time>2019-05-11T13:44:40Z</time>
      </trkpt>
      <trkpt lat="44.21807" lon="1.9741">
        <ele>326.4</ele>
        <time>2019-05-11T13:44:46Z</time>
      </trkpt>
      <trkpt lat="44.21808" lon="1.97417">
        <ele>326.5</ele>
        <time>2019-05-11T13:45:31Z</time>
      </trkpt>
      <trkpt lat="44.21812" lon="1.97421">
        <ele>325.8</ele>
        <time>2019-05-11T13:45:40Z</time>
      </trkpt>
      <trkpt lat="44.2184" lon="1.97454">
        <ele>324.8</ele>
        <time>2019-05-11T13:46:17Z</time>
      </trkpt>
      <trkpt lat="44.21843" lon="1.97459">
        <ele>325.6</ele>
        <time>2019-05-11T13:46:20Z</time>
      </trkpt>
      <trkpt lat="44.21847" lon="1.97468">
        <ele>325.2</ele>
        <time>2019-05-11T13:46:35Z</time>
      </trkpt>
      <trkpt lat="44.21849" lon="1.97476">
        <ele>325.6</ele>
        <time>2019-05-11T13:46:38Z</time>
      </trkpt>
      <trkpt lat="44.2186" lon="1.97479">
        <ele>328.6</ele>
        <time>2019-05-11T13:46:50Z</time>
      </trkpt>
      <trkpt lat="44.21869" lon="1.97493">
        <ele>327.6</ele>
        <time>2019-05-11T13:50:25Z</time>
      </trkpt>
      <trkpt lat="44.21876" lon="1.97504">
        <ele>323.7</ele>
        <time>2019-05-11T13:50:39Z</time>
      </trkpt>
      <trkpt lat="44.2188" lon="1.97507">
        <ele>323.9</ele>
        <time>2019-05-11T13:50:45Z</time>
      </trkpt>
      <trkpt lat="44.21876" lon="1.97504">
        <ele>322.2</ele>
        <time>2019-05-11T13:53:50Z</time>
      </trkpt>
      <trkpt lat="44.21872" lon="1.97504">
        <ele>324.3</ele>
        <time>2019-05-11T13:53:59Z</time>
      </trkpt>
      <trkpt lat="44.21871" lon="1.9751">
        <ele>323</ele>
        <time>2019-05-11T13:54:11Z</time>
      </trkpt>
      <trkpt lat="44.21877" lon="1.97525">
        <ele>317.9</ele>
        <time>2019-05-11T13:54:31Z</time>
      </trkpt>
      <trkpt lat="44.21879" lon="1.97531">
        <ele>318.3</ele>
        <time>2019-05-11T13:54:34Z</time>
      </trkpt>
      <trkpt lat="44.21879" lon="1.97539">
        <ele>318.6</ele>
        <time>2019-05-11T13:54:38Z</time>
      </trkpt>
      <trkpt lat="44.21879" lon="1.97546">
        <ele>318.8</ele>
        <time>2019-05-11T13:54:41Z</time>
      </trkpt>
      <trkpt lat="44.21879" lon="1.97552">
        <ele>320.4</ele>
        <time>2019-05-11T13:54:56Z</time>
      </trkpt>
      <trkpt lat="44.21882" lon="1.97615">
        <ele>315.6</ele>
        <time>2019-05-11T13:55:58Z</time>
      </trkpt>
      <trkpt lat="44.21898" lon="1.97624">
        <ele>314.3</ele>
        <time>2019-05-11T13:59:20Z</time>
      </trkpt>
      <trkpt lat="44.21906" lon="1.97623">
        <ele>312.6</ele>
        <time>2019-05-11T13:59:22Z</time>
      </trkpt>
      <trkpt lat="44.21911" lon="1.97625">
        <ele>307.3</ele>
        <time>2019-05-11T13:59:25Z</time>
      </trkpt>
      <trkpt lat="44.21912" lon="1.97636">
        <ele>302.1</ele>
        <time>2019-05-11T13:59:49Z</time>
      </trkpt>
      <trkpt lat="44.21913" lon="1.97642">
        <ele>302.8</ele>
        <time>2019-05-11T13:59:53Z</time>
      </trkpt>
      <trkpt lat="44.21921" lon="1.97666">
        <ele>302</ele>
        <time>2019-05-11T14:00:59Z</time>
      </trkpt>
      <trkpt lat="44.21921" lon="1.97672">
        <ele>303</ele>
        <time>2019-05-11T14:03:23Z</time>
      </trkpt>
      <trkpt lat="44.21928" lon="1.97677">
        <ele>301.7</ele>
        <time>2019-05-11T14:04:00Z</time>
      </trkpt>
      <trkpt lat="44.2193" lon="1.97683">
        <ele>298</ele>
        <time>2019-05-11T14:04:03Z</time>
      </trkpt>
      <trkpt lat="44.21926" lon="1.97687">
        <ele>299.5</ele>
        <time>2019-05-11T14:05:15Z</time>
      </trkpt>
      <trkpt lat="44.21922" lon="1.9769">
        <ele>300.6</ele>
        <time>2019-05-11T14:05:22Z</time>
      </trkpt>
      <trkpt lat="44.21939" lon="1.97741">
        <ele>314.1</ele>
        <time>2019-05-11T14:07:28Z</time>
      </trkpt>
      <trkpt lat="44.21941" lon="1.97748">
        <ele>316.8</ele>
        <time>2019-05-11T14:07:52Z</time>
      </trkpt>
      <trkpt lat="44.21945" lon="1.97754">
        <ele>316.2</ele>
        <time>2019-05-11T14:07:58Z</time>
      </trkpt>
      <trkpt lat="44.2195" lon="1.97765">
        <ele>309.1</ele>
        <time>2019-05-11T14:09:02Z</time>
      </trkpt>
      <trkpt lat="44.21949" lon="1.97772">
        <ele>309.8</ele>
        <time>2019-05-11T14:09:06Z</time>
      </trkpt>
      <trkpt lat="44.21953" lon="1.97784">
        <ele>316.1</ele>
        <time>2019-05-11T14:09:22Z</time>
      </trkpt>
      <trkpt lat="44.21965" lon="1.97798">
        <ele>315.6</ele>
        <time>2019-05-11T14:14:43Z</time>
      </trkpt>
      <trkpt lat="44.2197" lon="1.978">
        <ele>313.3</ele>
        <time>2019-05-11T14:14:49Z</time>
      </trkpt>
      <trkpt lat="44.21998" lon="1.97864">
        <ele>318</ele>
        <time>2019-05-11T14:16:09Z</time>
      </trkpt>
      <trkpt lat="44.21998" lon="1.97871">
        <ele>316.6</ele>
        <time>2019-05-11T14:16:15Z</time>
      </trkpt>
      <trkpt lat="44.22006" lon="1.9788">
        <ele>317.7</ele>
        <time>2019-05-11T14:17:17Z</time>
      </trkpt>
      <trkpt lat="44.22014" lon="1.97898">
        <ele>317.5</ele>
        <time>2019-05-11T14:17:19Z</time>
      </trkpt>
      <trkpt lat="44.22039" lon="1.97944">
        <ele>326.5</ele>
        <time>2019-05-11T14:17:43Z</time>
      </trkpt>
      <trkpt lat="44.22033" lon="1.97973">
        <ele>331.7</ele>
        <time>2019-05-11T14:18:04Z</time>
      </trkpt>
      <trkpt lat="44.22036" lon="1.97979">
        <ele>333</ele>
        <time>2019-05-11T14:18:12Z</time>
      </trkpt>
      <trkpt lat="44.22052" lon="1.97982">
        <ele>333</ele>
        <time>2019-05-11T14:18:19Z</time>
      </trkpt>
      <trkpt lat="44.22056" lon="1.97988">
        <ele>334</ele>
        <time>2019-05-11T14:18:23Z</time>
      </trkpt>
      <trkpt lat="44.22052" lon="1.97997">
        <ele>335.6</ele>
        <time>2019-05-11T14:18:26Z</time>
      </trkpt>
      <trkpt lat="44.22046" lon="1.98005">
        <ele>335.7</ele>
        <time>2019-05-11T14:18:28Z</time>
      </trkpt>
      <trkpt lat="44.22047" lon="1.98013">
        <ele>337.2</ele>
        <time>2019-05-11T14:18:31Z</time>
      </trkpt>
      <trkpt lat="44.22046" lon="1.98016">
        <ele>341.5</ele>
        <time>2019-05-11T14:18:44Z</time>
      </trkpt>
      <trkpt lat="44.22052" lon="1.98016">
        <ele>341.3</ele>
        <time>2019-05-11T14:18:48Z</time>
      </trkpt>
      <trkpt lat="44.22056" lon="1.98021">
        <ele>341.3</ele>
        <time>2019-05-11T14:18:52Z</time>
      </trkpt>
      <trkpt lat="44.2206" lon="1.98026">
        <ele>342.4</ele>
        <time>2019-05-11T14:18:56Z</time>
      </trkpt>
      <trkpt lat="44.22057" lon="1.9804">
        <ele>342.7</ele>
        <time>2019-05-11T14:19:21Z</time>
      </trkpt>
      <trkpt lat="44.22058" lon="1.98047">
        <ele>342.5</ele>
        <time>2019-05-11T14:19:25Z</time>
      </trkpt>
      <trkpt lat="44.22053" lon="1.98075">
        <ele>337</ele>
        <time>2019-05-11T14:20:01Z</time>
      </trkpt>
      <trkpt lat="44.22058" lon="1.98087">
        <ele>337.5</ele>
        <time>2019-05-11T14:20:13Z</time>
      </trkpt>
      <trkpt lat="44.22054" lon="1.98095">
        <ele>337.8</ele>
        <time>2019-05-11T14:20:15Z</time>
      </trkpt>
      <trkpt lat="44.22051" lon="1.98103">
        <ele>338.2</ele>
        <time>2019-05-11T14:20:18Z</time>
      </trkpt>
      <trkpt lat="44.22059" lon="1.98107">
        <ele>340.9</ele>
        <time>2019-05-11T14:20:25Z</time>
      </trkpt>
      <trkpt lat="44.22055" lon="1.98103">
        <ele>343.1</ele>
        <time>2019-05-11T14:20:33Z</time>
      </trkpt>
      <trkpt lat="44.22051" lon="1.981">
        <ele>345.3</ele>
        <time>2019-05-11T14:20:43Z</time>
      </trkpt>
      <trkpt lat="44.22049" lon="1.98108">
        <ele>345.1</ele>
        <time>2019-05-11T14:26:47Z</time>
      </trkpt>
      <trkpt lat="44.22052" lon="1.98113">
        <ele>346</ele>
        <time>2019-05-11T14:26:50Z</time>
      </trkpt>
      <trkpt lat="44.22053" lon="1.98121">
        <ele>346.9</ele>
        <time>2019-05-11T14:26:53Z</time>
      </trkpt>
      <trkpt lat="44.22051" lon="1.98128">
        <ele>347</ele>
        <time>2019-05-11T14:26:56Z</time>
      </trkpt>
      <trkpt lat="44.22049" lon="1.98135">
        <ele>347.1</ele>
        <time>2019-05-11T14:26:59Z</time>
      </trkpt>
      <trkpt lat="44.22047" lon="1.98142">
        <ele>346.6</ele>
        <time>2019-05-11T14:27:02Z</time>
      </trkpt>
      <trkpt lat="44.22046" lon="1.9815">
        <ele>346.5</ele>
        <time>2019-05-11T14:27:09Z</time>
      </trkpt>
      <trkpt lat="44.22044" lon="1.98157">
        <ele>346</ele>
        <time>2019-05-11T14:27:12Z</time>
      </trkpt>
      <trkpt lat="44.2205" lon="1.98154">
        <ele>344.5</ele>
        <time>2019-05-11T14:27:18Z</time>
      </trkpt>
      <trkpt lat="44.22053" lon="1.9815">
        <ele>344.2</ele>
        <time>2019-05-11T14:27:22Z</time>
      </trkpt>
      <trkpt lat="44.22058" lon="1.98146">
        <ele>345</ele>
        <time>2019-05-11T14:27:28Z</time>
      </trkpt>
      <trkpt lat="44.22056" lon="1.98151">
        <ele>345.9</ele>
        <time>2019-05-11T14:28:26Z</time>
      </trkpt>
      <trkpt lat="44.22052" lon="1.98158">
        <ele>345.5</ele>
        <time>2019-05-11T14:28:28Z</time>
      </trkpt>
      <trkpt lat="44.22047" lon="1.98163">
        <ele>345.4</ele>
        <time>2019-05-11T14:28:30Z</time>
      </trkpt>
      <trkpt lat="44.22046" lon="1.9817">
        <ele>344.4</ele>
        <time>2019-05-11T14:28:34Z</time>
      </trkpt>
      <trkpt lat="44.22049" lon="1.98176">
        <ele>342.9</ele>
        <time>2019-05-11T14:28:40Z</time>
      </trkpt>
      <trkpt lat="44.22046" lon="1.98181">
        <ele>342.5</ele>
        <time>2019-05-11T14:28:42Z</time>
      </trkpt>
      <trkpt lat="44.22051" lon="1.9818">
        <ele>342.8</ele>
        <time>2019-05-11T14:28:46Z</time>
      </trkpt>
      <trkpt lat="44.22054" lon="1.98187">
        <ele>346.7</ele>
        <time>2019-05-11T14:28:53Z</time>
      </trkpt>
      <trkpt lat="44.22056" lon="1.98193">
        <ele>347.3</ele>
        <time>2019-05-11T14:29:17Z</time>
      </trkpt>
      <trkpt lat="44.22069" lon="1.98208">
        <ele>344</ele>
        <time>2019-05-11T14:31:22Z</time>
      </trkpt>
      <trkpt lat="44.2207" lon="1.98221">
        <ele>347.2</ele>
        <time>2019-05-11T14:40:25Z</time>
      </trkpt>
      <trkpt lat="44.2205" lon="1.98279">
        <ele>349</ele>
        <time>2019-05-11T14:40:39Z</time>
      </trkpt>
      <trkpt lat="44.22075" lon="1.98322">
        <ele>352.4</ele>
        <time>2019-05-11T14:41:22Z</time>
      </trkpt>
      <trkpt lat="44.22078" lon="1.9834">
        <ele>350.3</ele>
        <time>2019-05-11T14:42:21Z</time>
      </trkpt>
      <trkpt lat="44.22076" lon="1.98349">
        <ele>351.1</ele>
        <time>2019-05-11T14:42:24Z</time>
      </trkpt>
      <trkpt lat="44.22077" lon="1.98358">
        <ele>350.2</ele>
        <time>2019-05-11T14:42:27Z</time>
      </trkpt>
      <trkpt lat="44.22081" lon="1.98365">
        <ele>350.3</ele>
        <time>2019-05-11T14:42:29Z</time>
      </trkpt>
      <trkpt lat="44.22082" lon="1.98373">
        <ele>350.4</ele>
        <time>2019-05-11T14:42:32Z</time>
      </trkpt>
      <trkpt lat="44.2208" lon="1.98378">
        <ele>349.5</ele>
        <time>2019-05-11T14:42:36Z</time>
      </trkpt>
      <trkpt lat="44.22076" lon="1.98386">
        <ele>346.9</ele>
        <time>2019-05-11T14:42:47Z</time>
      </trkpt>
      <trkpt lat="44.22072" lon="1.98389">
        <ele>348.1</ele>
        <time>2019-05-11T14:42:51Z</time>
      </trkpt>
      <trkpt lat="44.22067" lon="1.98392">
        <ele>349.2</ele>
        <time>2019-05-11T14:42:56Z</time>
      </trkpt>
      <trkpt lat="44.22065" lon="1.98399">
        <ele>350.1</ele>
        <time>2019-05-11T14:43:00Z</time>
      </trkpt>
      <trkpt lat="44.22068" lon="1.98406">
        <ele>351.6</ele>
        <time>2019-05-11T14:43:05Z</time>
      </trkpt>
      <trkpt lat="44.22066" lon="1.98411">
        <ele>352.7</ele>
        <time>2019-05-11T14:43:10Z</time>
      </trkpt>
      <trkpt lat="44.22063" lon="1.98417">
        <ele>352.3</ele>
        <time>2019-05-11T14:43:14Z</time>
      </trkpt>
      <trkpt lat="44.22052" lon="1.98449">
        <ele>352.8</ele>
        <time>2019-05-11T14:43:39Z</time>
      </trkpt>
      <trkpt lat="44.22053" lon="1.98456">
        <ele>352.5</ele>
        <time>2019-05-11T14:43:44Z</time>
      </trkpt>
      <trkpt lat="44.22056" lon="1.98462">
        <ele>352.8</ele>
        <time>2019-05-11T14:43:48Z</time>
      </trkpt>
      <trkpt lat="44.22056" lon="1.98469">
        <ele>352.7</ele>
        <time>2019-05-11T14:43:52Z</time>
      </trkpt>
      <trkpt lat="44.22057" lon="1.98475">
        <ele>352</ele>
        <time>2019-05-11T14:43:57Z</time>
      </trkpt>
      <trkpt lat="44.22056" lon="1.98482">
        <ele>351</ele>
        <time>2019-05-11T14:44:01Z</time>
      </trkpt>
      <trkpt lat="44.22055" lon="1.9849">
        <ele>349.5</ele>
        <time>2019-05-11T14:44:05Z</time>
      </trkpt>
      <trkpt lat="44.22052" lon="1.98495">
        <ele>348.2</ele>
        <time>2019-05-11T14:44:11Z</time>
      </trkpt>
      <trkpt lat="44.22049" lon="1.985">
        <ele>346.6</ele>
        <time>2019-05-11T14:44:16Z</time>
      </trkpt>
      <trkpt lat="44.22047" lon="1.98507">
        <ele>344.1</ele>
        <time>2019-05-11T14:44:22Z</time>
      </trkpt>
      <trkpt lat="44.22045" lon="1.98512">
        <ele>341.9</ele>
        <time>2019-05-11T14:44:32Z</time>
      </trkpt>
      <trkpt lat="44.2204" lon="1.98515">
        <ele>341.7</ele>
        <time>2019-05-11T14:44:35Z</time>
      </trkpt>
      <trkpt lat="44.22035" lon="1.98522">
        <ele>342</ele>
        <time>2019-05-11T14:44:39Z</time>
      </trkpt>
      <trkpt lat="44.22032" lon="1.98527">
        <ele>341</ele>
        <time>2019-05-11T14:44:44Z</time>
      </trkpt>
      <trkpt lat="44.22015" lon="1.9853">
        <ele>338.9</ele>
        <time>2019-05-11T14:45:12Z</time>
      </trkpt>
      <trkpt lat="44.22001" lon="1.98535">
        <ele>338</ele>
        <time>2019-05-11T14:45:23Z</time>
      </trkpt>
      <trkpt lat="44.21996" lon="1.98536">
        <ele>337.2</ele>
        <time>2019-05-11T14:45:27Z</time>
      </trkpt>
      <trkpt lat="44.21992" lon="1.98538">
        <ele>337.4</ele>
        <time>2019-05-11T14:45:34Z</time>
      </trkpt>
      <trkpt lat="44.21988" lon="1.98538">
        <ele>336.9</ele>
        <time>2019-05-11T14:45:41Z</time>
      </trkpt>
      <trkpt lat="44.21982" lon="1.98538">
        <ele>335.8</ele>
        <time>2019-05-11T14:45:45Z</time>
      </trkpt>
      <trkpt lat="44.21978" lon="1.98542">
        <ele>334.9</ele>
        <time>2019-05-11T14:45:49Z</time>
      </trkpt>
      <trkpt lat="44.21973" lon="1.98545">
        <ele>335.3</ele>
        <time>2019-05-11T14:45:54Z</time>
      </trkpt>
      <trkpt lat="44.21967" lon="1.98546">
        <ele>335.7</ele>
        <time>2019-05-11T14:45:57Z</time>
      </trkpt>
      <trkpt lat="44.21962" lon="1.98548">
        <ele>335.6</ele>
        <time>2019-05-11T14:46:00Z</time>
      </trkpt>
      <trkpt lat="44.21959" lon="1.98553">
        <ele>337.6</ele>
        <time>2019-05-11T14:46:05Z</time>
      </trkpt>
      <trkpt lat="44.21958" lon="1.9856">
        <ele>340.6</ele>
        <time>2019-05-11T14:46:13Z</time>
      </trkpt>
      <trkpt lat="44.21956" lon="1.98566">
        <ele>340.5</ele>
        <time>2019-05-11T14:46:17Z</time>
      </trkpt>
      <trkpt lat="44.21955" lon="1.98573">
        <ele>338.9</ele>
        <time>2019-05-11T14:46:21Z</time>
      </trkpt>
      <trkpt lat="44.21951" lon="1.98578">
        <ele>337.9</ele>
        <time>2019-05-11T14:46:25Z</time>
      </trkpt>
      <trkpt lat="44.21948" lon="1.98584">
        <ele>335.9</ele>
        <time>2019-05-11T14:46:30Z</time>
      </trkpt>
      <trkpt lat="44.21943" lon="1.98588">
        <ele>335.7</ele>
        <time>2019-05-11T14:46:35Z</time>
      </trkpt>
      <trkpt lat="44.21938" lon="1.98593">
        <ele>335.9</ele>
        <time>2019-05-11T14:46:38Z</time>
      </trkpt>
      <trkpt lat="44.21935" lon="1.98598">
        <ele>335.9</ele>
        <time>2019-05-11T14:46:41Z</time>
      </trkpt>
      <trkpt lat="44.21932" lon="1.98604">
        <ele>334.5</ele>
        <time>2019-05-11T14:46:45Z</time>
      </trkpt>
      <trkpt lat="44.21929" lon="1.98609">
        <ele>333.5</ele>
        <time>2019-05-11T14:46:53Z</time>
      </trkpt>
      <trkpt lat="44.21925" lon="1.98615">
        <ele>331.4</ele>
        <time>2019-05-11T14:47:00Z</time>
      </trkpt>
      <trkpt lat="44.21921" lon="1.98619">
        <ele>331</ele>
        <time>2019-05-11T14:47:03Z</time>
      </trkpt>
      <trkpt lat="44.21918" lon="1.98623">
        <ele>331.7</ele>
        <time>2019-05-11T14:47:07Z</time>
      </trkpt>
      <trkpt lat="44.21913" lon="1.98625">
        <ele>332.9</ele>
        <time>2019-05-11T14:47:11Z</time>
      </trkpt>
      <trkpt lat="44.21909" lon="1.98631">
        <ele>333.7</ele>
        <time>2019-05-11T14:47:16Z</time>
      </trkpt>
      <trkpt lat="44.21906" lon="1.98636">
        <ele>332.2</ele>
        <time>2019-05-11T14:47:21Z</time>
      </trkpt>
      <trkpt lat="44.21903" lon="1.98642">
        <ele>330.6</ele>
        <time>2019-05-11T14:47:26Z</time>
      </trkpt>
      <trkpt lat="44.21901" lon="1.98649">
        <ele>329.6</ele>
        <time>2019-05-11T14:47:32Z</time>
      </trkpt>
      <trkpt lat="44.21896" lon="1.98651">
        <ele>330.3</ele>
        <time>2019-05-11T14:47:35Z</time>
      </trkpt>
      <trkpt lat="44.21891" lon="1.98652">
        <ele>332.1</ele>
        <time>2019-05-11T14:47:40Z</time>
      </trkpt>
      <trkpt lat="44.2189" lon="1.98659">
        <ele>332.6</ele>
        <time>2019-05-11T14:47:47Z</time>
      </trkpt>
      <trkpt lat="44.21887" lon="1.98664">
        <ele>331.7</ele>
        <time>2019-05-11T14:47:50Z</time>
      </trkpt>
      <trkpt lat="44.21881" lon="1.98668">
        <ele>331.2</ele>
        <time>2019-05-11T14:47:53Z</time>
      </trkpt>
      <trkpt lat="44.21877" lon="1.98672">
        <ele>331.5</ele>
        <time>2019-05-11T14:47:58Z</time>
      </trkpt>
      <trkpt lat="44.21875" lon="1.98678">
        <ele>332</ele>
        <time>2019-05-11T14:48:03Z</time>
      </trkpt>
      <trkpt lat="44.2187" lon="1.98679">
        <ele>332.9</ele>
        <time>2019-05-11T14:48:06Z</time>
      </trkpt>
      <trkpt lat="44.21866" lon="1.98683">
        <ele>333.3</ele>
        <time>2019-05-11T14:48:10Z</time>
      </trkpt>
      <trkpt lat="44.21861" lon="1.98686">
        <ele>334.9</ele>
        <time>2019-05-11T14:48:16Z</time>
      </trkpt>
      <trkpt lat="44.21857" lon="1.9869">
        <ele>335</ele>
        <time>2019-05-11T14:48:19Z</time>
      </trkpt>
      <trkpt lat="44.21858" lon="1.98697">
        <ele>333.3</ele>
        <time>2019-05-11T14:48:28Z</time>
      </trkpt>
      <trkpt lat="44.21856" lon="1.98704">
        <ele>331.8</ele>
        <time>2019-05-11T14:48:32Z</time>
      </trkpt>
      <trkpt lat="44.21852" lon="1.98709">
        <ele>331.3</ele>
        <time>2019-05-11T14:48:36Z</time>
      </trkpt>
      <trkpt lat="44.21848" lon="1.98713">
        <ele>332.3</ele>
        <time>2019-05-11T14:48:39Z</time>
      </trkpt>
      <trkpt lat="44.21843" lon="1.98715">
        <ele>332.9</ele>
        <time>2019-05-11T14:48:44Z</time>
      </trkpt>
      <trkpt lat="44.21839" lon="1.98717">
        <ele>333.8</ele>
        <time>2019-05-11T14:48:47Z</time>
      </trkpt>
      <trkpt lat="44.21833" lon="1.98719">
        <ele>334.9</ele>
        <time>2019-05-11T14:48:51Z</time>
      </trkpt>
      <trkpt lat="44.2183" lon="1.98726">
        <ele>334.7</ele>
        <time>2019-05-11T14:48:55Z</time>
      </trkpt>
      <trkpt lat="44.21828" lon="1.98732">
        <ele>333.2</ele>
        <time>2019-05-11T14:49:01Z</time>
      </trkpt>
      <trkpt lat="44.21823" lon="1.98737">
        <ele>333</ele>
        <time>2019-05-11T14:49:08Z</time>
      </trkpt>
      <trkpt lat="44.21819" lon="1.9874">
        <ele>332.4</ele>
        <time>2019-05-11T14:50:24Z</time>
      </trkpt>
      <trkpt lat="44.21814" lon="1.98745">
        <ele>332.9</ele>
        <time>2019-05-11T14:50:27Z</time>
      </trkpt>
      <trkpt lat="44.21809" lon="1.98748">
        <ele>333.8</ele>
        <time>2019-05-11T14:50:29Z</time>
      </trkpt>
      <trkpt lat="44.21803" lon="1.98751">
        <ele>334.4</ele>
        <time>2019-05-11T14:50:31Z</time>
      </trkpt>
      <trkpt lat="44.21798" lon="1.98756">
        <ele>334.8</ele>
        <time>2019-05-11T14:50:34Z</time>
      </trkpt>
      <trkpt lat="44.21793" lon="1.9876">
        <ele>336.2</ele>
        <time>2019-05-11T14:50:38Z</time>
      </trkpt>
      <trkpt lat="44.21788" lon="1.98764">
        <ele>337.5</ele>
        <time>2019-05-11T14:50:41Z</time>
      </trkpt>
      <trkpt lat="44.21784" lon="1.98768">
        <ele>336.7</ele>
        <time>2019-05-11T14:50:45Z</time>
      </trkpt>
      <trkpt lat="44.2178" lon="1.98774">
        <ele>337.3</ele>
        <time>2019-05-11T14:50:52Z</time>
      </trkpt>
      <trkpt lat="44.21777" lon="1.98778">
        <ele>337.9</ele>
        <time>2019-05-11T14:50:57Z</time>
      </trkpt>
      <trkpt lat="44.21773" lon="1.98782">
        <ele>338.5</ele>
        <time>2019-05-11T14:51:01Z</time>
      </trkpt>
      <trkpt lat="44.2177" lon="1.98789">
        <ele>339.5</ele>
        <time>2019-05-11T14:51:05Z</time>
      </trkpt>
      <trkpt lat="44.21768" lon="1.98795">
        <ele>339.8</ele>
        <time>2019-05-11T14:51:07Z</time>
      </trkpt>
      <trkpt lat="44.21766" lon="1.98803">
        <ele>339.6</ele>
        <time>2019-05-11T14:51:10Z</time>
      </trkpt>
      <trkpt lat="44.21763" lon="1.98808">
        <ele>338.7</ele>
        <time>2019-05-11T14:51:16Z</time>
      </trkpt>
      <trkpt lat="44.21761" lon="1.98814">
        <ele>338.7</ele>
        <time>2019-05-11T14:51:23Z</time>
      </trkpt>
      <trkpt lat="44.21759" lon="1.98819">
        <ele>339.5</ele>
        <time>2019-05-11T14:51:30Z</time>
      </trkpt>
      <trkpt lat="44.21757" lon="1.98825">
        <ele>340.8</ele>
        <time>2019-05-11T14:51:36Z</time>
      </trkpt>
      <trkpt lat="44.21754" lon="1.98831">
        <ele>341.6</ele>
        <time>2019-05-11T14:51:45Z</time>
      </trkpt>
      <trkpt lat="44.21748" lon="1.98834">
        <ele>342.4</ele>
        <time>2019-05-11T14:52:08Z</time>
      </trkpt>
      <trkpt lat="44.21742" lon="1.9884">
        <ele>342</ele>
        <time>2019-05-11T14:52:11Z</time>
      </trkpt>
      <trkpt lat="44.21739" lon="1.98844">
        <ele>342.1</ele>
        <time>2019-05-11T14:52:14Z</time>
      </trkpt>
      <trkpt lat="44.21736" lon="1.98849">
        <ele>341.5</ele>
        <time>2019-05-11T14:52:19Z</time>
      </trkpt>
      <trkpt lat="44.21732" lon="1.98854">
        <ele>340</ele>
        <time>2019-05-11T14:52:23Z</time>
      </trkpt>
      <trkpt lat="44.21727" lon="1.98857">
        <ele>338.5</ele>
        <time>2019-05-11T14:52:26Z</time>
      </trkpt>
      <trkpt lat="44.21722" lon="1.9886">
        <ele>337.6</ele>
        <time>2019-05-11T14:52:29Z</time>
      </trkpt>
      <trkpt lat="44.21717" lon="1.9886">
        <ele>338.1</ele>
        <time>2019-05-11T14:52:31Z</time>
      </trkpt>
      <trkpt lat="44.21712" lon="1.98862">
        <ele>337.8</ele>
        <time>2019-05-11T14:52:36Z</time>
      </trkpt>
      <trkpt lat="44.21707" lon="1.98866">
        <ele>338.2</ele>
        <time>2019-05-11T14:52:40Z</time>
      </trkpt>
      <trkpt lat="44.21704" lon="1.9886">
        <ele>340</ele>
        <time>2019-05-11T14:52:43Z</time>
      </trkpt>
      <trkpt lat="44.21699" lon="1.98862">
        <ele>340.7</ele>
        <time>2019-05-11T14:52:47Z</time>
      </trkpt>
      <trkpt lat="44.21694" lon="1.98863">
        <ele>343.1</ele>
        <time>2019-05-11T14:52:54Z</time>
      </trkpt>
      <trkpt lat="44.2169" lon="1.98859">
        <ele>343.3</ele>
        <time>2019-05-11T14:53:06Z</time>
      </trkpt>
      <trkpt lat="44.21687" lon="1.98855">
        <ele>345.1</ele>
        <time>2019-05-11T14:53:14Z</time>
      </trkpt>
      <trkpt lat="44.21681" lon="1.98856">
        <ele>347.1</ele>
        <time>2019-05-11T14:53:41Z</time>
      </trkpt>
      <trkpt lat="44.21676" lon="1.98854">
        <ele>347.7</ele>
        <time>2019-05-11T14:53:43Z</time>
      </trkpt>
      <trkpt lat="44.21672" lon="1.98851">
        <ele>348.7</ele>
        <time>2019-05-11T14:53:47Z</time>
      </trkpt>
      <trkpt lat="44.21668" lon="1.98847">
        <ele>348.9</ele>
        <time>2019-05-11T14:53:50Z</time>
      </trkpt>
      <trkpt lat="44.21663" lon="1.98845">
        <ele>348.1</ele>
        <time>2019-05-11T14:53:53Z</time>
      </trkpt>
      <trkpt lat="44.21658" lon="1.98843">
        <ele>346.9</ele>
        <time>2019-05-11T14:53:56Z</time>
      </trkpt>
      <trkpt lat="44.21653" lon="1.98846">
        <ele>343.8</ele>
        <time>2019-05-11T14:54:02Z</time>
      </trkpt>
      <trkpt lat="44.21643" lon="1.98846">
        <ele>338.6</ele>
        <time>2019-05-11T14:54:11Z</time>
      </trkpt>
      <trkpt lat="44.21639" lon="1.98841">
        <ele>340.1</ele>
        <time>2019-05-11T14:54:17Z</time>
      </trkpt>
      <trkpt lat="44.21634" lon="1.98837">
        <ele>341.7</ele>
        <time>2019-05-11T14:54:22Z</time>
      </trkpt>
      <trkpt lat="44.21629" lon="1.98839">
        <ele>343.3</ele>
        <time>2019-05-11T14:54:28Z</time>
      </trkpt>
      <trkpt lat="44.21624" lon="1.98835">
        <ele>347.2</ele>
        <time>2019-05-11T14:54:38Z</time>
      </trkpt>
      <trkpt lat="44.2162" lon="1.98833">
        <ele>349.7</ele>
        <time>2019-05-11T14:54:43Z</time>
      </trkpt>
      <trkpt lat="44.21615" lon="1.98831">
        <ele>351.8</ele>
        <time>2019-05-11T14:54:48Z</time>
      </trkpt>
      <trkpt lat="44.21611" lon="1.98829">
        <ele>351.1</ele>
        <time>2019-05-11T14:54:52Z</time>
      </trkpt>
      <trkpt lat="44.21603" lon="1.98833">
        <ele>352.7</ele>
        <time>2019-05-11T14:55:26Z</time>
      </trkpt>
      <trkpt lat="44.21594" lon="1.98833">
        <ele>358.6</ele>
        <time>2019-05-11T14:55:39Z</time>
      </trkpt>
      <trkpt lat="44.21589" lon="1.98834">
        <ele>366.6</ele>
        <time>2019-05-11T14:56:02Z</time>
      </trkpt>
      <trkpt lat="44.21572" lon="1.9884">
        <ele>368.3</ele>
        <time>2019-05-11T14:56:21Z</time>
      </trkpt>
      <trkpt lat="44.21567" lon="1.9884">
        <ele>368</ele>
        <time>2019-05-11T14:56:23Z</time>
      </trkpt>
      <trkpt lat="44.21562" lon="1.98842">
        <ele>371.2</ele>
        <time>2019-05-11T14:56:32Z</time>
      </trkpt>
      <trkpt lat="44.21562" lon="1.98835">
        <ele>374.9</ele>
        <time>2019-05-11T14:56:50Z</time>
      </trkpt>
      <trkpt lat="44.21561" lon="1.98829">
        <ele>375.5</ele>
        <time>2019-05-11T14:57:00Z</time>
      </trkpt>
      <trkpt lat="44.21562" lon="1.9883">
        <ele>381.2</ele>
        <time>2019-05-11T15:00:35Z</time>
      </trkpt>
      <trkpt lat="44.21556" lon="1.98825">
        <ele>382</ele>
        <time>2019-05-11T15:02:44Z</time>
      </trkpt>
      <trkpt lat="44.21551" lon="1.98825">
        <ele>381.2</ele>
        <time>2019-05-11T15:02:47Z</time>
      </trkpt>
      <trkpt lat="44.21546" lon="1.98826">
        <ele>380</ele>
        <time>2019-05-11T15:02:51Z</time>
      </trkpt>
      <trkpt lat="44.21541" lon="1.98822">
        <ele>380.3</ele>
        <time>2019-05-11T15:02:55Z</time>
      </trkpt>
      <trkpt lat="44.21535" lon="1.98819">
        <ele>381.6</ele>
        <time>2019-05-11T15:02:58Z</time>
      </trkpt>
      <trkpt lat="44.21532" lon="1.98815">
        <ele>382.5</ele>
        <time>2019-05-11T15:03:00Z</time>
      </trkpt>
      <trkpt lat="44.21527" lon="1.98814">
        <ele>383</ele>
        <time>2019-05-11T15:03:03Z</time>
      </trkpt>
      <trkpt lat="44.21525" lon="1.98808">
        <ele>379.7</ele>
        <time>2019-05-11T15:03:11Z</time>
      </trkpt>
      <trkpt lat="44.21521" lon="1.98804">
        <ele>378.8</ele>
        <time>2019-05-11T15:03:20Z</time>
      </trkpt>
      <trkpt lat="44.21516" lon="1.98801">
        <ele>379.4</ele>
        <time>2019-05-11T15:03:26Z</time>
      </trkpt>
      <trkpt lat="44.21515" lon="1.98795">
        <ele>379.8</ele>
        <time>2019-05-11T15:03:28Z</time>
      </trkpt>
      <trkpt lat="44.21508" lon="1.98794">
        <ele>381.2</ele>
        <time>2019-05-11T15:03:34Z</time>
      </trkpt>
      <trkpt lat="44.21504" lon="1.98792">
        <ele>383</ele>
        <time>2019-05-11T15:03:40Z</time>
      </trkpt>
      <trkpt lat="44.21499" lon="1.98795">
        <ele>384.8</ele>
        <time>2019-05-11T15:03:43Z</time>
      </trkpt>
      <trkpt lat="44.21495" lon="1.98799">
        <ele>386</ele>
        <time>2019-05-11T15:03:49Z</time>
      </trkpt>
      <trkpt lat="44.21491" lon="1.98801">
        <ele>387.6</ele>
        <time>2019-05-11T15:03:53Z</time>
      </trkpt>
      <trkpt lat="44.21486" lon="1.98801">
        <ele>387.9</ele>
        <time>2019-05-11T15:03:58Z</time>
      </trkpt>
      <trkpt lat="44.21482" lon="1.98802">
        <ele>388.9</ele>
        <time>2019-05-11T15:04:01Z</time>
      </trkpt>
      <trkpt lat="44.21477" lon="1.988">
        <ele>390.6</ele>
        <time>2019-05-11T15:04:06Z</time>
      </trkpt>
      <trkpt lat="44.21472" lon="1.98797">
        <ele>390.8</ele>
        <time>2019-05-11T15:04:11Z</time>
      </trkpt>
      <trkpt lat="44.21467" lon="1.98797">
        <ele>391.4</ele>
        <time>2019-05-11T15:04:16Z</time>
      </trkpt>
      <trkpt lat="44.21462" lon="1.988">
        <ele>392.3</ele>
        <time>2019-05-11T15:04:20Z</time>
      </trkpt>
      <trkpt lat="44.21457" lon="1.98804">
        <ele>392.9</ele>
        <time>2019-05-11T15:04:23Z</time>
      </trkpt>
      <trkpt lat="44.21452" lon="1.98804">
        <ele>393.8</ele>
        <time>2019-05-11T15:04:26Z</time>
      </trkpt>
      <trkpt lat="44.21447" lon="1.98805">
        <ele>394.5</ele>
        <time>2019-05-11T15:04:29Z</time>
      </trkpt>
      <trkpt lat="44.21441" lon="1.98805">
        <ele>395.3</ele>
        <time>2019-05-11T15:04:32Z</time>
      </trkpt>
      <trkpt lat="44.21436" lon="1.98801">
        <ele>396.7</ele>
        <time>2019-05-11T15:04:35Z</time>
      </trkpt>
      <trkpt lat="44.21432" lon="1.98797">
        <ele>398.1</ele>
        <time>2019-05-11T15:04:38Z</time>
      </trkpt>
      <trkpt lat="44.21429" lon="1.98803">
        <ele>399.9</ele>
        <time>2019-05-11T15:04:41Z</time>
      </trkpt>
      <trkpt lat="44.21423" lon="1.98804">
        <ele>403.8</ele>
        <time>2019-05-11T15:04:46Z</time>
      </trkpt>
      <trkpt lat="44.21419" lon="1.98808">
        <ele>405.4</ele>
        <time>2019-05-11T15:04:51Z</time>
      </trkpt>
      <trkpt lat="44.21414" lon="1.98806">
        <ele>406.6</ele>
        <time>2019-05-11T15:04:55Z</time>
      </trkpt>
      <trkpt lat="44.2141" lon="1.98811">
        <ele>407.5</ele>
        <time>2019-05-11T15:05:00Z</time>
      </trkpt>
      <trkpt lat="44.21405" lon="1.98816">
        <ele>408.3</ele>
        <time>2019-05-11T15:05:05Z</time>
      </trkpt>
      <trkpt lat="44.21401" lon="1.98813">
        <ele>408.3</ele>
        <time>2019-05-11T15:05:09Z</time>
      </trkpt>
      <trkpt lat="44.21396" lon="1.98814">
        <ele>408</ele>
        <time>2019-05-11T15:05:18Z</time>
      </trkpt>
      <trkpt lat="44.21392" lon="1.98817">
        <ele>407.4</ele>
        <time>2019-05-11T15:05:29Z</time>
      </trkpt>
      <trkpt lat="44.21386" lon="1.98817">
        <ele>406.6</ele>
        <time>2019-05-11T15:05:31Z</time>
      </trkpt>
      <trkpt lat="44.21382" lon="1.98824">
        <ele>404.9</ele>
        <time>2019-05-11T15:05:33Z</time>
      </trkpt>
      <trkpt lat="44.21379" lon="1.98827">
        <ele>404</ele>
        <time>2019-05-11T15:05:35Z</time>
      </trkpt>
      <trkpt lat="44.21372" lon="1.98824">
        <ele>403.3</ele>
        <time>2019-05-11T15:05:37Z</time>
      </trkpt>
      <trkpt lat="44.21368" lon="1.98825">
        <ele>400.8</ele>
        <time>2019-05-11T15:05:41Z</time>
      </trkpt>
      <trkpt lat="44.21362" lon="1.98823">
        <ele>399.7</ele>
        <time>2019-05-11T15:05:45Z</time>
      </trkpt>
      <trkpt lat="44.21358" lon="1.98823">
        <ele>399.7</ele>
        <time>2019-05-11T15:05:49Z</time>
      </trkpt>
      <trkpt lat="44.21352" lon="1.9882">
        <ele>398.9</ele>
        <time>2019-05-11T15:05:52Z</time>
      </trkpt>
      <trkpt lat="44.21347" lon="1.98818">
        <ele>399.4</ele>
        <time>2019-05-11T15:05:55Z</time>
      </trkpt>
      <trkpt lat="44.21342" lon="1.98822">
        <ele>400.1</ele>
        <time>2019-05-11T15:06:00Z</time>
      </trkpt>
      <trkpt lat="44.21338" lon="1.98825">
        <ele>402.5</ele>
        <time>2019-05-11T15:06:05Z</time>
      </trkpt>
      <trkpt lat="44.21335" lon="1.9883">
        <ele>403.8</ele>
        <time>2019-05-11T15:06:10Z</time>
      </trkpt>
      <trkpt lat="44.2133" lon="1.98832">
        <ele>403.9</ele>
        <time>2019-05-11T15:06:16Z</time>
      </trkpt>
      <trkpt lat="44.21325" lon="1.98837">
        <ele>404.9</ele>
        <time>2019-05-11T15:06:20Z</time>
      </trkpt>
      <trkpt lat="44.21322" lon="1.98843">
        <ele>405.7</ele>
        <time>2019-05-11T15:06:23Z</time>
      </trkpt>
      <trkpt lat="44.2132" lon="1.9885">
        <ele>406.5</ele>
        <time>2019-05-11T15:06:26Z</time>
      </trkpt>
      <trkpt lat="44.21318" lon="1.98857">
        <ele>406.9</ele>
        <time>2019-05-11T15:06:30Z</time>
      </trkpt>
      <trkpt lat="44.21317" lon="1.98864">
        <ele>407.2</ele>
        <time>2019-05-11T15:06:34Z</time>
      </trkpt>
      <trkpt lat="44.21311" lon="1.98865">
        <ele>409.1</ele>
        <time>2019-05-11T15:06:39Z</time>
      </trkpt>
      <trkpt lat="44.21306" lon="1.98867">
        <ele>409.7</ele>
        <time>2019-05-11T15:06:44Z</time>
      </trkpt>
      <trkpt lat="44.213" lon="1.98868">
        <ele>410.5</ele>
        <time>2019-05-11T15:06:47Z</time>
      </trkpt>
      <trkpt lat="44.21295" lon="1.98871">
        <ele>411.6</ele>
        <time>2019-05-11T15:06:50Z</time>
      </trkpt>
      <trkpt lat="44.2129" lon="1.98872">
        <ele>412.5</ele>
        <time>2019-05-11T15:06:54Z</time>
      </trkpt>
      <trkpt lat="44.21285" lon="1.98875">
        <ele>414.1</ele>
        <time>2019-05-11T15:06:58Z</time>
      </trkpt>
      <trkpt lat="44.2128" lon="1.98876">
        <ele>415.8</ele>
        <time>2019-05-11T15:07:02Z</time>
      </trkpt>
      <trkpt lat="44.21275" lon="1.98878">
        <ele>417.1</ele>
        <time>2019-05-11T15:07:07Z</time>
      </trkpt>
      <trkpt lat="44.2127" lon="1.98881">
        <ele>418.9</ele>
        <time>2019-05-11T15:07:13Z</time>
      </trkpt>
      <trkpt lat="44.21263" lon="1.98885">
        <ele>421.3</ele>
        <time>2019-05-11T15:07:24Z</time>
      </trkpt>
      <trkpt lat="44.21255" lon="1.98891">
        <ele>420.8</ele>
        <time>2019-05-11T15:07:26Z</time>
      </trkpt>
      <trkpt lat="44.21252" lon="1.98897">
        <ele>420.2</ele>
        <time>2019-05-11T15:07:28Z</time>
      </trkpt>
      <trkpt lat="44.21248" lon="1.98903">
        <ele>420.3</ele>
        <time>2019-05-11T15:07:30Z</time>
      </trkpt>
      <trkpt lat="44.21245" lon="1.98909">
        <ele>419.2</ele>
        <time>2019-05-11T15:07:33Z</time>
      </trkpt>
      <trkpt lat="44.21241" lon="1.98912">
        <ele>418.4</ele>
        <time>2019-05-11T15:07:36Z</time>
      </trkpt>
      <trkpt lat="44.21236" lon="1.98914">
        <ele>418.4</ele>
        <time>2019-05-11T15:07:39Z</time>
      </trkpt>
      <trkpt lat="44.21232" lon="1.98917">
        <ele>416.5</ele>
        <time>2019-05-11T15:07:45Z</time>
      </trkpt>
      <trkpt lat="44.21226" lon="1.98918">
        <ele>414.6</ele>
        <time>2019-05-11T15:07:51Z</time>
      </trkpt>
      <trkpt lat="44.2122" lon="1.98917">
        <ele>413.4</ele>
        <time>2019-05-11T15:07:55Z</time>
      </trkpt>
      <trkpt lat="44.21215" lon="1.98917">
        <ele>412.8</ele>
        <time>2019-05-11T15:07:57Z</time>
      </trkpt>
      <trkpt lat="44.21208" lon="1.98915">
        <ele>412.2</ele>
        <time>2019-05-11T15:08:02Z</time>
      </trkpt>
      <trkpt lat="44.21194" lon="1.98912">
        <ele>413.6</ele>
        <time>2019-05-11T15:08:13Z</time>
      </trkpt>
      <trkpt lat="44.21189" lon="1.98917">
        <ele>410.1</ele>
        <time>2019-05-11T15:08:19Z</time>
      </trkpt>
      <trkpt lat="44.21184" lon="1.98916">
        <ele>410.4</ele>
        <time>2019-05-11T15:08:22Z</time>
      </trkpt>
      <trkpt lat="44.21178" lon="1.98917">
        <ele>409.6</ele>
        <time>2019-05-11T15:08:27Z</time>
      </trkpt>
      <trkpt lat="44.21173" lon="1.98917">
        <ele>409.7</ele>
        <time>2019-05-11T15:08:30Z</time>
      </trkpt>
      <trkpt lat="44.21168" lon="1.98915">
        <ele>410.7</ele>
        <time>2019-05-11T15:08:35Z</time>
      </trkpt>
      <trkpt lat="44.21162" lon="1.98916">
        <ele>412.5</ele>
        <time>2019-05-11T15:08:39Z</time>
      </trkpt>
      <trkpt lat="44.21157" lon="1.98918">
        <ele>413.8</ele>
        <time>2019-05-11T15:08:42Z</time>
      </trkpt>
    </trkseg>
  </trk>
</gpx>